GFSCGP_con_mlcape_000.txt.gz
CAPE
0 0 0 0 0 0 0 0 0 0 0 0 0 101 135 249 260 290 364 295 319 243 253 249 289 302 408 459 604 706 852 1392 1943 1711 1572 1714 1654 1441 1209 957 1041 1235 1004 1022
0 0 0 0 0 0 0 0 0 0 0 0 45 83 144 275 389 476 548 534 498 523 294 280 318 391 442 537 640 869 941 1466 1647 1530 1504 1408 1402 1316 1259 1439 1552 1267 993 949
0 0 0 0 0 0 0 0 0 4 8 2 67 82 162 236 330 390 465 629 676 794 635 452 425 522 625 718 843 1102 1349 1485 1594 1624 1579 1600 1663 1336 1185 1061 1383 710 431 231
0 0 0 0 0 0 0 0 0 10 27 6 43 20 49 117 111 149 267 479 549 625 781 762 753 529 764 1003 1072 1520 1587 1771 1849 1944 1569 1292 529 317 132 522 684 191 0 0
0 0 0 0 0 0 0 0 0 12 37 22 17 18 18 6 13 67 138 316 384 406 751 861 912 649 852 1207 1423 1530 1673 1820 1784 1757 1598 1393 229 0 53 113 0 0 0 0
0 0 0 0 0 0 0 0 0 7 12 24 12 15 8 14 41 23 24 268 312 286 634 906 1017 751 1158 1335 1619 1752 1643 1514 1498 1571 1150 369 0 0 0 0 0 0 0 0
0 0 0 0 0 0 0 0 0 0 0 0 0 34 0 3 24 18 11 139 264 231 300 645 683 725 1309 1482 1602 1753 1628 1271 1058 520 7 0 0 0 0 0 0 0 0 0
0 0 0 0 0 0 0 0 0 0 0 0 0 0 0 0 5 17 5 94 185 187 210 376 263 311 907 1316 1421 1529 1406 1277 862 103 0 0 0 0 0 0 0 0 0 0
0 0 0 0 0 0 0 0 0 0 0 0 0 0 0 0 1 5 0 12 104 155 191 255 265 340 701 1075 1229 1384 1161 1185 677 273 0 0 0 0 0 0 0 0 0 0
0 0 0 0 0 0 0 0 0 0 0 0 0 0 0 14 22 27 2 2 11 68 181 228 289 384 786 983 1292 1406 1129 1104 760 254 0 0 8 2 8 0 0 0 0 0
0 0 0 0 0 0 0 0 0 0 0 0 0 0 0 16 20 42 46 37 2 36 56 228 320 405 810 1065 1312 1473 1297 1210 894 285 0 2 92 61 8 0 0 0 0 0
0 0 0 0 0 0 0 0 0 0 0 0 0 0 0 3 15 33 56 51 23 1 56 122 240 311 664 990 1350 1466 1485 1350 1105 362 12 53 305 277 101 27 10 0 0 0
0 0 0 0 0 0 0 0 0 0 0 0 0 0 0 0 0 2 2 0 0 0 0 45 93 178 442 831 1241 1397 1518 1459 1194 557 211 172 326 324 47 29 21 6 0 0
0 0 0 0 0 0 0 0 0 0 0 0 0 0 0 0 0 0 0 0 0 0 0 18 90 124 328 730 1047 1324 1435 1478 1226 612 271 256 162 3 17 24 24 2 0 0
0 0 0 0 0 0 0 0 0 0 0 0 0 0 0 0 0 0 2 4 3 10 23 14 116 237 458 752 1022 1324 1409 1375 1099 639 381 351 78 56 15 10 1 0 4 11
0 0 0 0 0 0 0 0 0 0 0 0 0 0 0 0 0 7 12 14 0 24 98 64 191 473 730 893 1045 1124 1215 1250 914 578 417 311 212 165 47 50 16 12 6 59
0 0 0 0 0 0 0 0 0 0 0 0 0 0 1 2 23 17 6 0 0 1 3 194 709 786 1041 1196 1162 1039 1023 938 864 538 364 284 318 140 151 151 124 51 21 68
0 0 0 1 0 0 0 0 9 16 24 10 0 0 0 1 54 25 0 0 0 0 0 0 143 735 1151 1506 1367 903 599 718 650 431 368 323 373 202 264 239 155 130 169 211
74 0 5 8 2 0 7 41 41 36 24 51 47 24 27 38 24 14 0 0 0 0 0 0 36 236 458 1397 1470 876 525 579 575 358 306 384 427 480 338 319 187 246 283 343
79 45 25 9 1 3 30 112 92 82 64 59 95 17 25 32 40 31 5 0 0 51 68 59 166 357 663 1256 1154 931 643 473 442 313 342 336 334 371 336 298 297 375 460 512
103 159 48 20 3 0 71 172 65 89 99 37 11 43 91 104 112 60 66 158 183 181 128 233 321 300 610 1132 1058 913 589 597 383 347 251 239 431 426 382 356 537 591 605 362
61 168 95 46 62 67 29 192 202 68 26 14 3 7 2 0 2 3 0 0 1 19 319 453 502 723 1156 1132 1099 907 653 327 332 255 260 180 20 175 675 699 880 689 484 333
26 3 17 114 1 0 0 1 0 0 0 0 4 0 16 4 30 14 0 0 0 0 0 215 611 1023 1459 1046 712 565 235 305 215 184 207 0 0 0 0 391 820 651 223 37
1 32 14 0 0 0 0 0 0 0 0 0 0 0 0 5 16 5 1 77 418 434 155 432 992 933 1055 745 556 453 319 72 11 0 0 0 0 0 13 439 396 259 231 154
189 284 127 60 0 0 0 0 0 0 0 0 0 0 0 0 189 812 683 787 652 652 790 929 1154 986 720 454 222 31 0 0 0 0 0 0 2 22 171 62 69 126 0 0
86 360 261 117 14 0 0 0 0 0 0 0 0 0 0 0 708 673 506 951 907 946 839 737 599 359 58 3 0 0 0 0 0 0 0 0 46 100 100 117 0 0 0 0

GFSCGP_con_mlcape_003.txt.gz
CAPE
0 0 0 0 0 0 0 0 0 0 0 0 19 28 105 257 163 104 157 166 140 177 251 213 392 483 405 394 740 1200 1404 1658 1675 1622 1588 1571 1461 1384 1268 1225 1196 995 838 853
0 0 0 0 0 0 0 0 0 0 0 14 33 27 54 93 79 49 62 130 174 189 196 194 216 323 316 347 596 820 1096 1286 1622 1668 1533 1474 1532 1467 1300 998 1006 1246 938 769
0 0 0 0 0 0 0 0 0 0 0 25 38 28 103 78 84 81 102 136 119 149 170 176 195 200 247 314 441 560 818 932 1301 1703 1523 1460 1391 1409 1260 1394 1585 1137 1046 925
0 0 0 0 0 0 0 0 0 0 0 0 34 0 69 135 157 206 237 256 261 214 182 184 204 256 282 283 398 586 751 964 1284 1516 1504 1346 910 581 321 460 946 931 606 178
0 0 0 0 0 0 0 0 0 0 0 0 17 1 23 93 137 196 267 312 392 387 258 253 235 303 307 331 525 694 931 1257 1510 1605 1632 1383 1006 425 78 111 701 582 0 0
0 0 0 0 0 0 0 0 0 0 0 0 0 0 0 28 82 104 145 207 422 420 519 415 290 325 434 546 771 950 1091 1498 1656 1730 1905 1507 1123 260 0 89 258 0 0 0
0 0 0 0 0 0 0 0 0 0 0 0 0 0 0 4 40 54 65 91 267 416 595 644 599 514 597 673 996 1132 1229 1492 1490 1750 1803 1431 1201 80 0 0 0 0 0 0
0 0 0 0 0 0 0 0 0 0 0 0 0 0 0 0 17 38 51 46 144 293 375 677 772 724 700 723 1067 1302 1445 1474 1321 1445 1361 1240 263 0 0 0 0 0 0 0
0 0 0 0 0 0 0 0 0 0 0 0 0 0 0 0 0 6 17 13 74 183 212 595 805 763 819 848 1083 1298 1529 1637 1185 950 885 302 0 0 0 0 0 0 0 0
0 0 0 0 0 0 0 0 0 0 0 0 0 0 0 0 0 0 0 9 13 102 162 423 764 670 903 958 1071 1327 1538 1617 1205 658 492 65 0 0 0 1 5 0 0 0
0 0 0 0 0 0 0 0 0 0 0 0 0 0 0 0 0 0 0 2 7 45 110 257 507 535 707 989 1260 1263 1486 1548 1219 711 397 52 0 0 0 6 7 3 0 0
0 0 0 0 0 0 0 0 0 0 0 0 0 0 0 0 0 0 6 11 4 26 85 182 333 445 481 700 1030 1117 1371 1299 1103 804 523 173 0 0 0 0 0 0 0 0
0 0 0 0 0 0 0 0 0 0 0 0 0 0 0 0 0 0 0 0 0 5 42 130 247 376 442 631 884 1024 1355 1257 1075 804 654 266 1 43 44 18 1 0 0 0
0 0 0 0 0 0 0 0 0 0 0 0 0 0 0 0 0 0 25 14 3 0 0 15 166 323 410 471 864 1111 1355 1455 1238 951 816 498 36 37 233 189 48 5 4 0
0 0 0 0 0 0 0 0 0 0 0 0 0 0 0 0 0 0 2 3 0 7 0 0 20 128 275 384 717 1063 1355 1560 1389 1151 988 769 154 28 345 319 64 4 0 6
0 0 0 0 0 0 0 0 0 0 0 0 0 0 0 0 0 0 0 0 0 0 0 0 1 34 114 254 536 834 1235 1529 1426 1194 1210 665 250 20 326 152 0 0 0 2
0 0 0 0 0 0 0 0 0 0 0 0 0 0 0 0 0 0 0 0 0 0 6 2 7 33 107 201 468 720 1083 1446 1403 1335 906 834 516 67 163 35 15 4 1 5
18 0 0 0 0 0 0 0 0 0 9 3 0 0 0 0 0 1 0 0 0 4 55 179 174 194 289 459 624 769 1064 1321 1295 1161 847 590 463 241 208 56 113 76 90 45
1 0 0 0 0 0 11 43 52 32 27 9 9 0 0 0 0 1 0 3 55 25 10 27 76 22 145 504 890 997 1018 1141 1148 868 554 550 368 357 193 221 140 185 187 177
0 1 0 0 0 4 13 47 21 1 33 9 0 0 4 0 2 26 0 2 1 0 2 2 6 48 163 279 938 1122 1000 974 1040 918 718 634 266 307 197 302 194 309 276 236
2 49 16 4 9 47 1 1 9 79 14 0 0 0 22 42 1 0 2 0 26 86 159 151 131 86 161 395 529 892 936 1058 972 744 694 682 352 283 240 188 57 4 87 254
7 154 93 96 34 49 1 78 64 18 0 0 0 0 0 0 0 0 1 7 5 1 0 0 237 700 589 610 619 723 963 749 597 569 545 342 158 128 49 48 29 1 0 21
23 97 33 0 3 0 0 0 0 0 0 0 0 2 9 7 0 0 0 0 10 0 0 0 0 111 538 928 805 788 734 549 529 471 302 27 1 0 0 0 9 21 0 0
11 57 0 0 0 0 0 0 0 0 0 0 0 0 0 0 0 0 0 0 79 28 5 153 261 262 583 832 766 633 496 376 387 184 111 20 10 11 0 0 2 98 129 155
26 73 6 0 0 0 0 0 0 0 0 0 0 0 0 0 39 71 12 41 9 224 237 520 596 693 706 524 369 165 86 148 124 55 4 0 0 0 27 11 45 118 16 12
4 382 66 0 0 0 0 0 0 0 0 0 0 0 0 0 0 40 62 537 597 626 598 669 526 620 377 196 16 14 1 6 1 0 0 0 0 1 1 0 0 0 0 0

GFSCGP_con_mlcape_006.txt.gz
CAPE
0 0 0 0 0 0 0 7 13 8 17 19 27 59 124 202 188 184 162 152 247 338 450 503 483 563 562 612 876 1072 1280 1545 1585 1469 1386 1466 1281 1237 1219 1127 975 913 695 753
0 0 0 0 0 0 0 0 0 0 0 40 39 54 111 218 139 135 99 90 104 166 225 237 314 444 335 364 720 905 1247 1501 1571 1510 1381 1416 1358 1345 1337 1165 1076 904 834 783
0 0 0 0 0 0 0 0 0 0 0 4 26 12 51 169 200 150 99 63 48 56 82 118 141 237 362 275 518 642 876 1271 1436 1406 1342 1354 1252 1264 1085 1138 996 1053 919 739
0 0 0 0 0 0 0 0 0 0 0 0 26 0 18 67 86 119 99 75 61 66 85 93 109 140 239 254 338 412 600 898 1142 1246 1430 1473 1376 1046 727 672 1066 1151 901 737
0 0 0 0 0 0 0 0 0 0 0 0 10 0 0 37 38 68 95 88 81 69 92 115 115 115 115 188 268 308 441 553 868 1089 1223 1444 1332 1053 308 158 368 812 430 234
0 0 0 0 0 0 0 0 0 0 0 0 0 0 0 0 32 62 123 131 128 102 100 96 83 72 126 143 219 286 368 451 781 912 1138 1344 1275 815 378 73 42 455 275 0
0 0 0 0 0 0 0 0 0 0 0 0 0 0 0 0 23 46 87 127 166 164 166 151 115 124 191 245 300 356 385 511 776 1036 1291 1398 1292 799 441 14 0 152 0 0
0 0 0 0 0 0 0 0 0 0 0 0 0 0 0 0 1 36 50 96 117 178 275 324 250 227 277 336 378 439 510 596 759 1175 1340 1435 1418 888 562 29 19 39 0 0
0 0 0 0 0 0 0 0 0 0 0 0 0 0 0 0 0 0 10 64 89 125 244 409 380 333 389 432 515 538 641 792 802 1058 1238 1136 1291 951 552 0 0 0 0 0
0 0 0 0 0 0 0 0 0 0 0 0 0 0 0 0 0 0 0 3 45 76 206 344 502 518 567 576 638 724 755 847 864 999 949 907 1014 861 34 0 0 0 0 0
0 0 0 0 0 0 0 0 0 0 0 0 0 0 0 0 0 0 0 0 0 24 100 233 555 685 735 685 686 856 863 1084 1093 951 823 636 726 312 0 0 0 0 0 0
0 0 0 0 0 0 0 0 0 0 0 0 0 0 0 0 0 0 0 0 0 1 72 137 474 683 785 756 760 941 1030 1133 1265 1094 779 494 423 87 0 0 0 0 0 0
0 0 0 0 0 0 0 0 0 0 0 0 0 0 0 0 0 0 0 1 0 1 33 82 295 548 705 737 902 1054 1228 1157 1309 1235 673 444 352 120 11 0 0 0 0 0
0 0 0 0 0 0 0 0 0 0 0 0 0 0 0 0 0 0 0 0 0 1 28 74 130 313 473 548 734 1047 1275 1317 1306 1035 705 596 508 282 45 0 0 0 0 0
0 0 0 0 0 0 0 0 0 0 0 0 0 0 0 0 0 0 0 0 0 0 3 55 126 201 343 440 515 714 1006 1234 1245 980 725 771 626 285 24 0 11 0 0 0
0 0 0 0 0 0 0 0 0 0 0 0 0 0 0 0 0 0 0 0 0 4 15 27 77 184 244 278 341 557 817 1016 1254 1088 855 723 470 353 233 26 1 7 21 7
0 0 0 0 0 0 0 0 0 0 0 0 0 0 0 0 0 0 0 0 18 38 24 40 24 44 54 100 219 403 646 948 1232 1173 992 800 447 215 19 0 11 196 177 61
4 0 0 0 0 0 0 0 0 0 0 0 0 0 0 0 0 0 0 0 0 1 11 21 13 2 0 5 98 238 481 780 1110 1191 1177 775 419 215 65 0 0 123 109 2
0 0 0 0 0 0 0 0 0 0 4 5 0 0 0 0 0 0 0 0 0 0 20 47 66 76 10 19 167 320 508 773 1034 1156 1165 906 583 332 152 32 1 3 23 28
0 0 0 0 0 0 0 0 5 11 15 0 0 0 0 0 0 0 0 0 0 1 48 96 107 25 4 44 270 326 476 845 975 1070 1085 932 802 428 86 2 0 0 8 23
0 6 0 0 0 0 0 0 10 36 0 0 0 0 3 0 0 0 0 0 0 7 47 93 141 214 297 308 335 231 367 550 850 849 865 813 767 622 87 1 1 0 26 36
0 6 26 0 26 74 0 36 55 5 0 0 0 0 0 0 0 0 0 0 0 0 0 0 0 0 33 125 345 429 307 608 712 675 521 442 428 309 54 26 0 0 37 36
11 25 54 0 0 0 0 0 0 0 0 0 0 0 0 0 0 0 0 0 0 22 48 140 79 74 136 286 557 351 552 546 470 334 252 150 40 48 5 0 0 0 0 0
81 0 8 0 0 0 0 0 0 0 0 0 0 0 0 0 0 5 104 74 7 40 83 246 236 209 307 428 439 469 395 378 285 147 25 0 0 0 0 0 0 0 0 0
13 32 0 0 0 0 0 0 0 0 0 0 0 0 0 0 0 0 0 196 296 325 303 294 259 230 443 470 411 390 335 248 204 94 38 28 0 0 0 0 0 0 0 14
0 5 0 0 0 0 0 0 0 0 0 0 0 0 0 0 0 0 0 0 206 389 416 390 301 348 425 416 421 343 301 330 212 62 5 0 0 0 0 0 0 0 0 0

GFSCGP_con_mlcape_009.txt.gz
CAPE
0 0 0 0 0 0 0 4 36 38 19 23 50 41 155 319 397 437 656 747 694 589 739 968 1145 1138 1258 1328 1303 1368 1464 1551 1557 1718 1513 1341 1459 1753 1756 1412 1221 1137 1070 1108
0 0 0 0 0 0 0 1 38 12 21 35 32 30 52 240 248 319 419 544 584 644 772 894 1004 931 970 1161 1165 1298 1445 1632 1762 1929 2090 1959 1920 1979 1808 1865 1778 1538 1453 1381
0 0 0 0 0 0 0 0 8 6 4 17 34 9 29 111 278 261 260 303 322 362 471 574 694 804 818 910 1034 1130 1345 1538 1834 2108 2152 1939 1863 1767 1751 1813 1791 1634 1531 1426
0 0 0 0 0 0 0 0 7 30 12 0 26 0 16 73 106 207 246 232 221 202 278 326 429 596 741 759 802 859 1185 1419 1786 2082 1916 1809 1617 1667 1771 1666 1561 1630 1610 1377
0 0 0 0 0 0 0 0 0 2 21 0 1 0 0 21 43 99 112 270 205 169 175 206 318 369 485 640 632 724 943 1226 1582 1848 1937 1845 1830 1855 1817 1205 1090 1774 1516 1378
0 0 0 0 0 0 0 0 0 0 0 0 0 0 0 0 1 47 132 128 156 174 175 220 260 237 280 423 471 622 772 908 1083 1407 1771 1766 1748 1832 1468 850 467 858 1153 803
0 0 0 0 0 0 0 0 0 0 0 0 0 0 0 0 3 12 65 81 82 121 133 156 257 269 302 360 464 573 680 787 929 1199 1432 1616 1637 1870 1494 905 528 450 497 590
0 0 0 0 0 0 0 0 0 0 0 0 0 0 0 0 10 17 64 88 62 78 113 165 234 321 349 420 485 556 649 727 905 1001 1154 1467 1601 1827 1581 982 625 272 435 347
0 0 0 0 0 0 0 0 0 0 0 0 0 0 0 0 0 0 12 48 67 123 138 171 305 367 438 479 563 633 716 777 868 1038 1253 1445 1652 1738 1450 995 733 259 310 114
0 0 0 0 0 0 0 0 0 0 0 0 0 0 0 0 0 0 0 12 66 129 246 354 463 462 540 628 708 804 828 887 906 1118 1332 1420 1721 1643 1637 1168 698 25 162 19
0 0 0 0 0 0 0 0 0 0 0 0 0 0 0 0 0 0 0 0 46 131 165 372 675 599 600 743 821 925 933 1023 1056 1102 1312 1436 1642 1443 1416 1214 683 2 59 39
0 0 0 0 0 0 0 0 0 0 0 0 0 0 0 0 0 0 0 0 0 82 112 487 740 755 753 826 892 975 1090 1113 1188 1160 1324 1352 1269 1037 713 732 318 4 0 12
0 0 0 0 0 0 0 0 0 0 0 0 0 0 0 0 0 0 0 0 0 6 86 390 679 897 939 977 1056 1103 1252 1289 1414 1526 1447 1281 865 735 914 579 182 0 0 8
0 0 0 0 0 0 0 0 0 0 0 0 0 0 0 0 0 0 0 0 7 16 59 252 471 766 920 1070 1129 1176 1330 1470 1563 1621 1656 1156 806 787 577 481 135 6 11 52
7 0 0 0 0 0 0 0 0 0 0 0 0 0 0 0 0 0 0 6 3 23 51 164 245 431 781 1073 1231 1283 1380 1527 1627 1756 1812 1337 884 766 804 254 18 0 0 20
0 17 0 0 0 0 0 0 0 0 0 0 0 0 0 0 0 0 0 25 14 21 71 163 244 437 576 773 863 1083 1321 1559 1772 1841 1726 1454 1177 748 475 106 10 0 0 0
87 8 27 0 0 0 0 0 0 0 0 0 0 0 0 0 0 0 0 8 70 74 120 175 251 412 513 602 779 805 992 1255 1553 1662 1657 1472 1239 809 432 116 15 0 0 0
114 62 4 1 0 0 0 0 0 0 0 0 0 0 0 0 0 1 1 36 109 191 278 242 206 317 361 426 494 615 883 1045 1254 1519 1587 1468 1204 811 468 216 68 0 0 0
122 14 0 0 0 0 0 0 0 0 0 0 0 0 0 0 0 0 0 0 18 74 131 190 181 127 97 139 245 482 679 835 1048 1313 1537 1581 1271 861 603 390 84 42 0 0
31 6 0 1 0 0 0 0 0 0 0 0 0 0 0 0 0 37 0 0 9 68 150 246 217 150 117 150 238 265 294 435 632 1333 1598 1696 1222 1037 697 421 122 72 2 0
11 8 16 122 42 0 0 0 4 0 0 0 0 0 0 2 40 3 8 77 179 210 382 515 386 264 274 317 414 292 481 574 1329 1602 1667 1479 1173 1066 877 352 109 41 1 0
31 0 0 49 83 31 0 9 124 46 0 3 5 12 14 14 3 21 23 20 24 24 4 92 58 107 204 237 296 451 524 827 1170 1302 1382 1231 1094 639 389 263 25 21 0 0
7 0 0 0 2 0 0 0 0 78 45 47 54 33 12 56 103 81 66 80 127 262 241 408 356 300 340 421 510 242 456 744 923 1128 1064 950 819 552 296 210 74 4 0 0
39 2 0 0 0 0 0 0 0 0 0 0 27 9 7 16 79 203 241 240 244 414 402 329 301 371 389 553 564 611 622 788 818 859 784 713 669 446 246 127 46 49 2 0
13 1 1 6 0 0 0 0 0 0 0 0 0 0 0 0 0 103 281 359 394 416 375 403 340 277 319 551 613 672 675 647 718 655 480 345 262 262 63 7 0 0 0 0
4 3 0 2 0 0 0 0 0 0 0 0 0 0 0 0 0 0 0 0 0 60 507 549 478 465 364 461 534 549 533 499 502 393 210 72 0 0 0 0 0 0 0 0

GFSCGP_con_mlcape_012.txt.gz
CAPE
0 0 0 0 0 0 0 7 22 24 96 144 74 45 212 560 504 420 639 570 330 196 246 587 923 1018 1028 1274 1445 1622 1604 1658 2058 1240 1131 1300 1216 1146 1348 1294 1662 1754 1701 1473
0 0 0 0 0 0 0 0 17 56 108 80 62 78 80 214 486 373 465 616 677 316 253 584 883 923 950 1221 1509 1703 1846 1949 2132 1506 1490 1387 1404 1187 1445 1521 1590 1796 1740 1726
0 0 0 0 0 0 0 0 4 68 99 106 62 57 36 33 255 389 420 354 623 505 389 418 571 787 882 1009 1457 1686 1930 2103 2329 1778 1766 2026 1978 1806 1639 1484 1550 1726 1951 1911
0 0 0 0 0 0 0 0 0 48 48 40 50 30 19 29 112 268 432 389 199 497 551 525 539 631 827 946 1221 1637 1965 2217 2370 2506 2063 1974 1455 846 570 704 647 785 1334 1439
0 0 0 0 0 0 0 0 0 7 39 36 78 38 7 14 34 131 345 458 236 86 287 478 540 476 715 861 1074 1393 1898 2150 2265 2385 2368 2068 2019 913 833 817 898 689 1045 999
0 0 0 0 0 0 0 0 0 3 13 26 40 31 0 0 14 17 124 298 369 83 87 143 276 354 584 741 949 1114 1610 2132 2313 2418 2540 2394 1755 1334 811 1034 705 340 481 774
0 0 0 0 0 0 0 0 0 1 7 9 13 13 0 0 0 1 14 119 362 106 47 74 144 340 576 724 836 1040 1383 1926 2152 2281 2309 2497 2393 2136 1808 1608 764 138 219 213
0 0 0 0 0 0 0 0 0 1 3 5 0 0 0 0 0 0 6 39 223 197 56 59 129 273 529 659 834 1008 1189 1776 2036 2036 2156 2420 2560 2323 1985 1861 460 247 85 98
0 0 0 0 0 0 0 0 0 7 11 6 0 0 0 0 0 0 5 37 126 264 87 70 106 260 446 621 896 1187 1511 1704 1866 1900 2076 2364 2533 2382 1624 1447 1565 696 246 119
0 0 0 0 0 0 0 0 0 0 2 3 0 0 0 0 0 0 7 54 108 229 250 67 159 253 466 651 817 1098 1363 1666 1757 1790 1944 2076 2217 2440 2202 2123 1737 779 505 346
0 0 0 0 0 0 0 0 0 0 0 0 2 0 0 0 0 0 0 39 81 186 382 306 165 326 572 633 718 1023 1328 1552 1744 1742 1838 1871 1929 2082 2399 2299 2082 1596 994 576
0 0 0 0 0 0 0 0 0 0 0 0 0 0 0 0 0 0 0 0 13 97 360 523 505 511 602 777 732 852 1053 1260 1541 1715 1981 1892 1949 1992 2089 2539 2178 1835 1049 380
0 0 0 0 0 0 0 0 0 0 0 1 0 0 0 0 0 0 0 3 32 119 395 600 706 838 870 850 1051 1051 1261 1244 1229 1653 1688 1667 1813 2016 2024 2244 2077 1300 750 314
0 0 0 0 0 0 0 0 0 0 0 0 0 4 0 0 0 0 0 2 19 268 415 656 750 984 1134 1153 1444 1558 1412 1472 1509 1519 1818 1892 1921 1919 1978 2160 1873 805 381 24
0 0 12 0 0 0 0 0 0 0 0 0 0 0 0 0 0 0 0 0 38 362 303 648 886 1247 1598 1573 1737 1806 1750 1740 1739 1874 1926 2190 2347 2232 1932 1945 1430 639 269 1
0 0 6 22 4 3 3 2 0 0 0 0 0 0 0 0 0 0 0 0 5 451 400 740 1057 1303 1698 1750 1877 1956 2028 1909 2017 2134 2204 2302 2621 2545 2017 1924 1195 412 129 0
0 0 59 12 33 60 21 0 0 0 0 0 0 0 0 0 0 0 0 0 22 328 426 608 912 1244 1688 1819 2000 2009 2089 2037 2101 2299 2349 2453 2666 2560 2030 1934 1178 551 255 6
43 61 85 86 132 85 1 0 0 0 0 0 0 0 0 0 0 0 0 0 0 447 674 816 910 1210 1487 1583 1767 1747 1919 2067 2188 2404 2471 2536 2583 2364 1920 1583 1200 860 427 5
2 53 123 81 98 78 21 147 32 1 0 0 0 0 0 0 0 0 122 65 154 513 931 1020 1034 1322 1422 1270 1421 1591 1629 1845 1973 2139 2356 2396 2407 2262 1980 1393 862 704 461 23
57 50 115 120 76 69 300 36 13 72 1 0 0 0 0 0 0 0 152 8 62 385 901 1011 794 957 1176 1101 1228 1409 1316 1522 1782 1959 2307 2438 2463 2296 1937 1608 1069 621 269 95
224 177 51 149 123 141 39 1 195 94 22 72 0 0 0 0 57 273 260 291 411 550 750 864 947 1020 1069 949 1016 1236 1282 1539 1709 1941 2318 2591 2620 2315 1807 1509 1101 596 268 160
166 173 94 128 229 155 0 95 187 278 285 208 195 51 63 225 327 460 583 738 952 1150 1179 1200 1208 1173 1208 1307 1546 1651 1726 1983 2185 2389 2451 2655 2217 1912 1592 1101 708 412 407 596
221 146 164 185 189 9 1 0 4 224 458 441 418 354 373 359 435 519 493 521 544 559 458 587 822 1161 1442 1565 1521 1579 1604 1662 1998 2113 2399 1746 1660 1313 1035 682 483 341 340 370
379 359 367 166 48 0 0 0 0 81 380 381 406 382 393 390 415 492 611 719 660 613 595 663 751 728 763 1224 1559 1672 1735 1827 1998 1651 1288 1156 1001 765 585 398 331 408 381 354
81 219 244 77 0 0 0 0 0 0 0 2 15 104 381 606 653 731 808 798 713 735 782 698 594 572 831 1276 1405 1571 1483 1632 1791 1423 1364 1144 797 866 720 60 257 419 314 122
4 124 248 78 0 5 0 0 0 0 0 0 0 0 0 0 1 0 1 29 333 830 1086 1120 920 975 1259 1504 1625 1595 1581 1720 1523 1220 1124 1008 824 812 585 186 5 0 0 0

GFSCGP_con_mlcape_015.txt.gz
CAPE
0 0 0 0 0 0 3 38 0 36 8 39 64 97 120 334 302 122 84 27 15 35 197 301 559 579 619 748 1025 1253 1375 1582 1459 1369 1657 1449 1350 1356 1058 897 1512 2104 1894 1822
0 0 0 0 0 0 0 12 29 13 25 4 90 116 167 338 307 326 247 125 57 25 38 191 477 532 746 822 1070 1509 1682 1924 1969 1740 1648 1591 1105 911 913 730 1169 1572 1710 1990
0 0 0 0 0 0 0 0 18 43 87 40 80 43 110 120 302 332 244 315 177 49 8 76 301 554 697 822 1121 1704 2079 2296 2271 2074 1761 1775 1916 1696 1386 920 1478 1465 1560 1550
0 0 0 0 0 0 0 0 1 34 31 56 3 85 65 48 77 205 411 317 366 108 45 27 310 586 621 784 1162 1594 2173 2364 2390 2347 1796 1694 1341 758 399 441 423 954 1043 970
0 0 0 0 0 0 0 0 2 12 78 82 39 51 14 7 40 50 203 429 400 200 123 56 169 403 573 710 992 1538 2257 2512 2580 2649 1823 1603 1479 554 627 434 993 895 1044 765
0 0 0 0 0 0 0 0 6 9 29 39 92 68 82 9 42 95 89 197 474 441 127 285 199 318 421 587 882 1308 2281 2773 2828 2851 2554 2340 2135 978 728 778 912 415 426 718
0 0 0 0 0 0 0 0 0 5 16 12 52 74 64 62 44 31 35 62 197 512 298 116 393 304 526 637 937 1309 2092 2887 2963 2598 2545 2460 2383 2165 1594 1573 808 369 298 479
0 0 0 0 0 0 0 0 0 0 10 11 10 31 28 41 27 41 26 18 51 286 443 113 134 337 542 610 1119 1320 1833 2676 2972 2687 2760 2822 2805 1951 1525 1474 974 396 309 380
0 0 0 0 0 0 0 0 0 1 25 30 24 16 12 21 64 48 18 6 10 131 376 189 114 130 314 527 1036 1327 1759 2394 2759 2260 3039 3042 3016 2688 1489 1387 1647 1121 433 243
0 0 0 0 0 0 0 0 0 0 7 27 22 25 15 16 10 2 8 0 1 43 335 260 122 116 283 482 815 1298 1661 2290 2309 2298 2706 2765 2894 3165 2713 2435 2221 1357 810 406
0 0 0 0 0 0 0 0 0 0 1 11 32 36 24 23 6 0 0 0 3 17 227 369 153 152 263 334 494 932 1293 1776 2136 2207 2301 2339 2489 2673 3036 2776 2438 2252 1291 1043
0 0 0 0 0 0 0 0 0 0 0 0 15 30 18 0 1 1 9 6 20 7 84 309 296 253 277 353 322 544 820 998 1737 1857 2324 2425 2487 2525 2477 2893 2813 2685 1899 1351
0 0 0 0 0 0 0 0 0 0 0 0 7 0 0 1 15 11 10 0 0 29 41 200 377 293 447 447 459 377 735 659 1019 1736 1977 2390 2324 2664 2441 2857 2854 2823 2485 1812
0 0 0 0 0 0 0 0 0 0 0 0 0 14 28 10 2 2 0 0 0 0 220 120 401 548 643 817 820 708 638 584 845 1213 1344 1850 2395 2441 2596 2772 2837 2978 2765 1879
0 0 0 0 0 0 0 0 0 0 0 0 0 7 14 23 26 2 0 0 0 0 68 481 635 1029 1361 1233 1411 1331 1076 1158 1066 1310 1446 1717 2295 2554 2596 2549 2874 3013 2613 1891
0 0 0 0 0 0 0 0 0 0 0 0 0 0 0 3 4 11 0 0 0 0 2 560 764 975 1822 1743 1980 2056 1804 1872 1719 2036 1964 2165 2689 2602 2593 2719 2904 2917 2622 1840
0 0 0 0 2 37 23 0 0 0 0 0 0 0 0 0 0 1 0 0 0 0 0 60 724 1080 1573 1820 2399 2323 2516 2281 2322 2429 3054 2730 3306 3302 3338 3148 2999 2818 2581 1614
0 0 5 12 44 52 0 26 8 1 5 5 3 0 0 0 0 0 0 0 0 0 0 0 635 1099 1625 1866 1983 2153 2401 2752 2835 3089 2943 3250 3314 3815 3718 3331 3058 2840 2072 1312
4 0 10 28 22 37 40 188 213 228 39 12 4 15 0 0 0 0 0 0 0 0 0 15 868 1107 1760 2061 2293 2480 2557 2847 3021 3146 3236 3346 3503 3504 3660 3321 2851 2461 1651 1306
2 36 81 95 51 64 133 328 109 239 3 15 106 76 7 0 0 0 0 0 0 110 113 154 1054 1240 1951 2223 2154 2506 2506 2656 2820 2887 3047 3150 3258 3399 3214 2930 2496 2212 1737 1128
0 0 2 66 79 64 484 155 130 81 107 708 567 471 223 47 0 0 166 0 13 252 206 1166 1384 1754 2325 2128 1990 2454 2374 2412 2292 2228 2443 2775 2975 3081 3017 2710 2171 1775 1562 1098
0 0 6 58 59 67 291 268 212 499 620 722 708 590 479 331 0 369 612 625 651 623 859 1431 1593 1841 2053 1997 2200 2368 2063 2022 2122 2295 2540 2884 3111 2900 2671 2320 1986 1551 998 679
4 8 31 140 114 378 208 297 417 528 787 824 819 801 738 500 669 784 1028 1246 1433 1480 1348 1425 1649 1811 1705 1788 1880 2069 2655 2564 2577 2679 2882 3131 2931 2356 2093 1927 1475 1184 743 577
131 132 158 556 374 96 91 212 469 722 791 971 1080 964 935 1033 955 967 1002 1047 1222 1448 1529 1579 1670 1791 2135 2287 2512 3033 2796 2776 2801 3019 2701 2290 1777 1458 1366 1335 1027 786 703 623
4 138 714 606 169 112 19 55 164 163 251 525 466 565 1100 1135 1150 1035 1009 917 782 756 796 1001 1294 1620 1930 2206 2176 2267 2460 2636 2604 1871 1420 1272 1048 1082 675 265 416 579 223 301
1 4 199 175 175 85 3 0 0 0 0 0 2 0 54 215 229 398 666 1029 961 810 803 817 1068 1464 1883 2072 2152 2233 2400 2243 1970 1683 1472 1287 1132 603 360 185 43 0 0 0

GFSCGP_con_mlcape_018.txt.gz
CAPE
0 0 0 0 0 0 0 0 0 1 4 1 147 39 0 4 108 8 11 0 22 74 123 264 310 323 380 783 1208 1155 1260 1321 2292 2139 1430 1460 1596 1631 1531 1541 1714 1939 1891 1762
0 0 0 0 0 0 0 0 1 10 14 6 81 216 72 38 162 59 24 8 0 0 59 222 390 362 485 806 1025 1369 1380 1850 1487 1809 1653 1611 1515 1419 1595 952 1563 1749 1801 1719
0 0 0 0 0 0 0 0 0 0 6 15 18 23 119 122 124 123 68 48 4 0 0 164 362 420 584 773 1201 1622 1800 1895 1825 1865 1707 1647 1479 1562 1638 1348 1361 1758 2089 1934
0 0 0 0 0 0 0 0 0 0 5 3 4 4 68 50 257 172 133 141 152 22 0 47 282 571 585 839 1390 1751 1886 1876 2406 1611 2131 1792 1403 1534 1020 1166 1138 2119 1606 1272
0 0 0 0 0 0 0 0 0 0 0 18 123 35 47 89 191 251 156 139 167 283 45 0 211 424 580 880 1345 1871 2353 2488 2544 2546 1792 1966 1555 1369 881 688 1193 1839 1906 1146
0 0 0 0 0 0 0 0 0 0 0 0 9 23 32 74 24 0 78 141 245 264 292 66 79 280 548 801 1417 1521 2577 2582 2438 2781 2167 2101 1637 1068 1349 1056 1148 1028 1210 892
0 0 0 0 0 0 0 0 0 0 0 0 8 44 5 25 54 0 0 8 238 352 390 225 108 403 675 821 1185 1746 2447 2648 2622 2666 2866 1820 2460 1580 1549 1524 1291 824 155 1016
0 0 0 0 0 0 0 0 0 0 0 0 0 1 28 112 22 7 0 73 109 365 386 369 370 338 760 781 1108 1572 2478 2675 2944 2448 3198 2826 2189 2821 1798 1771 1463 968 566 723
0 0 0 0 0 0 0 0 0 0 0 0 0 5 5 30 49 0 0 7 30 254 393 440 452 579 829 882 948 1470 2388 2860 3133 3091 2843 3268 2474 2554 2580 1753 1743 1175 608 1231
0 0 0 0 0 0 0 0 0 0 0 0 0 0 7 16 64 1 0 0 9 6 444 521 428 669 805 1029 1056 1479 1924 2826 3281 3212 3115 3078 3147 2447 2279 2039 1809 1207 1330 482
0 0 0 0 0 0 0 0 0 0 0 0 0 0 25 59 94 112 12 2 4 0 213 371 540 380 786 1007 1180 1439 1742 2654 3187 3227 3127 3196 3213 3225 2564 2948 2154 2190 1416 806
0 0 0 0 0 0 0 0 0 0 0 0 0 0 18 48 33 92 26 23 9 0 26 222 579 412 492 677 928 1357 1740 2204 2871 3119 2886 3159 3296 3313 3326 2610 3105 2601 2120 1818
0 0 0 0 0 0 0 0 0 0 0 0 0 0 0 14 0 0 13 0 13 22 74 267 514 445 491 582 833 1224 1596 1905 2606 2811 2723 2946 2875 3105 3031 3365 2764 3193 2597 1844
0 0 0 0 0 0 0 0 0 0 0 0 0 0 0 59 5 0 5 0 24 16 246 273 268 611 550 679 820 1005 1352 1601 1956 2578 2585 2590 2733 2785 2781 3009 3391 3059 3063 2452
0 0 0 0 0 0 0 0 0 0 0 0 0 0 1 3 110 20 18 0 0 54 63 46 123 639 780 842 926 923 998 1179 1341 1917 2241 2452 2662 2795 2826 2850 3177 3243 3298 3078
0 0 0 0 0 0 0 0 0 0 0 0 0 0 0 0 22 65 0 0 5 17 84 297 213 670 1255 1169 1115 1026 929 1100 1159 1307 1961 2212 2481 2804 2759 3021 2881 3411 3269 3315
0 0 0 0 0 0 4 0 0 0 0 0 0 0 0 0 0 22 145 14 55 16 0 29 584 787 1182 2063 1592 1278 1135 1260 1152 1411 1812 1940 2229 2630 2907 2921 3110 3063 3323 3368
7 0 0 0 0 1 0 0 0 0 0 0 0 0 0 0 0 0 0 3 17 10 0 0 36 1057 1249 1268 2121 2022 1711 1462 1649 1582 2030 2064 2344 2736 3039 3072 3073 3250 3398 3442
1 0 0 0 0 0 0 0 21 36 0 5 20 55 0 0 0 0 0 0 0 0 152 33 0 55 1268 1388 2055 2269 2642 2160 2083 2522 2676 2814 3215 3446 3504 3403 3496 3537 3570 3487
0 0 16 5 4 0 0 70 272 152 27 216 387 183 151 193 165 3 0 0 0 0 0 1 75 236 1170 1798 2241 2613 2557 3058 2587 2752 3180 3475 3974 4504 4266 4296 4048 3906 3420 2778
9 30 8 1 0 0 78 358 188 56 38 659 766 624 461 352 362 368 276 125 83 95 0 0 368 1370 1664 2252 2514 2846 2774 3261 3337 3248 3977 3864 4016 4088 4368 4416 3817 3052 2426 2048
7 1 38 84 23 37 452 29 30 438 487 572 674 584 521 475 360 354 374 596 416 435 108 273 1691 2016 2445 2706 2831 3102 3139 3412 3576 3691 3783 3851 4003 3908 3913 3673 3003 2425 2139 1712
0 0 0 22 15 292 339 699 707 615 749 1213 1325 1040 523 383 406 495 964 979 959 1161 1098 1316 2592 3110 3064 2844 3439 3241 3441 3237 3166 3186 3370 3556 3684 3402 3301 2879 2480 1991 1630 1198
69 142 135 55 371 648 550 668 793 849 1147 1120 1466 1536 1536 1102 1295 1421 1456 1598 1828 1815 1777 2239 2477 2649 2885 3116 3287 3232 2798 2988 3012 3431 3632 3267 3018 2699 2330 2117 1869 1485 1192 907
85 38 287 285 630 449 518 523 541 594 651 527 609 621 858 892 962 1394 1375 1617 1913 2012 2349 2569 2582 2712 3263 3581 3360 3402 3414 3428 3448 3062 2649 2311 2076 1924 1162 599 762 1016 577 792
0 21 146 506 199 283 158 139 40 3 46 83 59 6 43 43 19 7 286 880 1277 1595 1931 2117 2329 2558 2639 2732 2852 3139 3268 2765 2465 2203 1830 1539 1175 916 664 474 216 0 17 12

GFSCGP_con_mlcape_021.txt.gz
CAPE
0 0 0 0 0 0 0 0 0 0 15 17 0 5 10 1 0 0 38 7 72 77 121 264 221 317 523 685 745 926 872 1330 1137 1251 1323 1352 1338 1201 1197 909 1065 1194 1353 1594
0 0 0 0 0 0 0 0 0 0 25 0 17 5 0 0 0 0 8 15 48 76 66 183 195 221 394 672 760 677 881 1683 1460 1285 1302 1408 1380 1376 1436 1315 1698 1501 1574 1531
0 0 0 0 0 0 0 0 0 0 0 16 33 2 0 0 0 0 3 0 25 38 59 140 165 200 254 546 792 780 757 1315 1827 1553 1428 1299 1166 1139 1232 1410 1360 1388 1374 1345
0 0 0 0 0 0 0 0 0 0 0 0 52 10 9 0 11 6 7 0 5 38 64 105 207 218 220 516 855 898 888 1103 1361 1701 1324 1288 847 909 1010 1299 1463 1435 1519 1439
0 0 0 0 0 0 0 0 0 0 0 1 0 0 26 60 31 28 1 0 0 0 3 60 252 204 302 507 781 1032 1004 1092 1245 1452 1375 1100 864 777 1094 1258 1234 1696 1709 1246
0 0 0 0 0 0 0 0 0 0 0 0 0 0 1 62 19 51 60 19 1 0 0 22 128 296 266 667 899 1310 1244 1196 1549 1252 1489 1393 1393 1409 1080 898 976 1318 1294 917
0 0 0 0 0 0 0 0 0 0 0 0 0 0 0 29 21 54 124 78 103 30 0 0 68 322 367 709 1142 1410 1405 1439 1604 1622 1273 1444 1799 1325 976 1247 1237 1189 1106 668
0 0 0 0 0 0 0 0 0 0 0 0 0 0 0 33 50 152 165 22 125 80 29 5 51 200 484 621 1113 1641 1689 1592 1849 1842 1812 1493 1545 1688 1186 1286 1014 776 749 670
0 0 0 0 0 0 0 0 0 0 0 0 0 0 0 1 42 79 31 19 12 0 229 115 64 138 419 589 1147 1354 2126 1908 1984 2189 2120 1784 1668 1978 2062 1401 1729 834 254 469
0 0 0 0 0 0 0 0 0 0 0 0 0 0 0 0 23 48 8 14 29 2 128 270 94 140 403 580 993 1409 2158 2121 2155 1896 2295 2180 1914 1744 2043 2214 1301 1577 710 989
0 0 0 0 0 0 0 0 0 0 0 0 0 0 0 0 48 71 6 7 27 1 49 335 245 232 490 681 942 1369 1977 2272 2380 2322 2054 2447 2395 2208 1893 2193 1867 1348 1342 596
0 0 0 0 0 0 0 0 0 0 0 0 0 0 0 0 43 84 59 13 5 0 131 348 418 394 709 756 830 1308 2104 2345 2500 2602 2467 2216 2590 2637 2133 1758 2114 1638 1272 1274
0 0 0 0 0 0 0 0 0 0 0 0 0 0 0 0 0 0 9 8 1 12 195 457 397 616 820 876 850 1262 1913 2393 2698 2797 2776 2678 2428 2690 2443 2006 1910 2282 1652 1458
1 0 0 0 0 0 0 0 0 0 0 0 0 0 0 0 0 0 0 5 11 10 6 400 471 543 825 1029 1089 1110 1588 2292 2613 2912 2832 2714 2691 2585 2623 2766 2165 2158 2690 1906
0 0 0 0 0 0 0 0 0 0 0 0 0 0 0 0 12 47 54 22 14 0 47 282 509 437 729 866 1023 1206 1419 1635 2451 2702 2843 2639 2697 2802 2840 2830 3046 2445 2472 2578
0 0 0 0 0 0 0 0 0 0 0 0 0 0 0 0 0 83 63 75 17 0 261 299 603 514 462 615 813 1066 1378 1568 1753 2507 2611 2701 2574 2731 2708 2819 2813 3142 2618 2717
0 0 0 0 0 0 0 0 0 0 0 0 0 0 0 0 0 19 203 84 2 9 108 346 420 718 573 636 748 952 1190 1486 1626 1851 2466 2547 2530 2573 2618 2674 2760 2952 3106 3006
0 0 0 0 0 2 0 0 0 0 0 0 0 0 0 0 0 0 0 0 0 0 97 307 270 604 1164 838 813 931 1109 1366 1475 1505 1995 2287 2391 2410 2579 2723 2846 2834 3126 3123
0 0 0 0 0 0 0 0 0 0 0 0 5 0 0 0 0 0 0 0 0 0 0 25 502 451 866 1540 1130 949 1026 1206 1262 1316 1441 1930 2130 2324 2482 2708 2774 2980 2960 3194
0 0 0 0 0 0 0 0 0 108 5 265 114 76 45 15 0 8 325 235 81 1 0 0 10 178 740 1047 1759 1469 1152 1125 1197 1232 1505 1743 1939 2184 2500 2777 2891 3025 3172 3302
0 5 1 0 0 0 0 0 222 118 106 496 444 443 322 104 238 204 121 59 119 252 4 0 0 0 283 774 1655 1948 1628 1368 1476 1618 1705 2104 2249 2444 2830 2955 3108 3337 3261 3003
48 1 0 7 10 3 40 93 243 187 615 618 477 398 248 222 104 9 39 131 8 306 679 110 0 0 22 748 1596 2100 2487 2092 1853 2805 2589 3352 3416 3682 3718 3559 3505 3153 2765 2752
0 0 3 30 356 410 739 742 814 1210 1049 1336 1042 1088 1011 1163 1273 1534 1714 1835 1740 1609 1980 1645 790 757 1259 1636 2099 2322 2968 3462 3229 2925 3490 3884 4090 4221 3878 3705 2960 2348 2621 2067
0 3 10 14 173 1 48 68 1136 912 878 929 1050 1216 1112 886 1204 1406 1697 2034 2290 2531 2752 2949 2960 3149 3461 3367 3264 3345 3490 3532 3616 3635 3666 3463 3468 3304 3068 2655 2255 2047 1684 1551
0 10 48 27 40 279 769 982 654 519 215 305 263 400 743 841 829 956 1168 1562 2047 2428 2834 3049 3166 3223 3401 3599 3714 3604 3562 3533 3392 3265 3028 2742 2415 2075 1584 850 1038 1399 968 1083
1 24 36 62 3 0 13 20 29 35 30 18 34 30 4 26 49 243 421 642 1211 1856 1745 2093 3011 3243 3433 3452 3273 3145 3100 2963 2845 2474 1873 1627 1656 1301 984 782 358 0 43 230

GFSCGP_con_mlcape_024.txt.gz
CAPE
0 0 0 0 0 0 0 0 0 0 0 0 16 11 0 294 400 413 461 421 355 256 257 192 447 423 238 330 706 744 786 621 1074 1095 804 725 485 513 662 1024 793 1004 1112 1258
0 0 0 0 0 0 0 0 0 0 0 0 23 25 0 13 129 217 242 269 312 235 261 236 214 472 451 470 719 813 800 644 636 813 733 639 532 759 580 992 953 733 869 1208
0 0 0 0 0 0 0 0 0 0 0 0 16 21 1 0 0 8 113 129 160 94 95 167 186 306 425 609 714 746 812 809 658 702 804 951 845 1075 1132 1212 1266 1365 1387 1264
0 0 0 0 0 0 0 0 0 0 0 0 2 0 7 3 0 0 9 45 100 80 45 60 156 118 272 462 597 666 879 1028 946 973 1078 1063 958 935 893 1054 1135 1266 1335 1334
0 0 0 0 0 0 0 0 0 0 0 0 0 0 0 4 0 0 0 29 35 31 22 19 104 102 175 367 483 531 786 1118 1131 1150 1128 1069 921 840 727 717 1060 1286 1406 1222
0 0 0 0 0 0 0 0 0 0 0 0 0 0 0 0 0 0 0 0 3 12 6 0 45 64 73 279 497 532 582 1048 1213 1197 1188 1093 1019 879 639 603 926 1298 1259 1224
0 0 0 0 0 0 0 0 0 0 0 0 0 0 0 0 0 0 0 1 0 0 0 0 18 47 50 181 497 641 633 755 1096 1207 1110 1100 1013 857 474 488 1004 1040 1165 1150
0 0 0 0 0 0 0 0 0 0 0 0 0 0 0 0 0 0 12 0 0 0 0 3 6 65 69 153 487 756 745 722 993 1065 1163 1097 1071 945 734 1011 985 1029 965 973
0 0 0 0 0 0 0 0 0 0 0 0 0 0 0 0 0 0 12 16 0 0 0 0 53 102 129 231 567 810 871 838 1038 1040 990 1151 1264 1123 1085 1184 1124 1192 1026 740
0 0 0 0 0 0 0 0 0 0 0 0 0 0 0 0 0 0 4 17 3 3 1 13 0 85 181 198 665 893 1059 936 1069 1284 1225 1153 1126 1398 1420 1438 1337 1078 802 709
0 0 0 0 0 0 0 0 0 0 0 0 0 0 0 0 0 0 0 25 40 66 60 21 15 59 128 257 754 1088 1275 1199 1362 1482 1468 1485 1383 1190 1388 1464 1598 1209 866 615
0 0 0 0 0 0 0 0 0 0 0 0 0 0 0 0 0 0 0 35 73 130 42 91 97 37 102 369 790 1092 1575 1445 1530 1709 1713 1652 1666 1616 1372 1292 1618 1727 1333 671
0 0 0 0 0 0 0 0 0 0 0 0 0 0 0 0 0 0 14 3 0 1 2 50 168 29 115 356 642 1079 1600 1714 1811 1850 1833 2006 2011 1915 1576 1270 1440 1693 1767 1152
0 0 0 0 0 0 0 0 0 0 0 0 0 0 0 0 0 0 0 0 4 13 14 17 103 96 242 413 606 1057 1344 1939 2000 2126 1880 1816 2061 2177 1963 1695 1495 1562 1759 1544
0 0 0 0 0 0 0 0 0 0 0 0 0 0 0 0 0 0 0 0 34 15 4 5 148 222 434 580 656 941 1429 1940 2090 2256 2254 1996 1943 2176 2339 2111 1933 1737 1866 1780
0 0 0 0 0 0 0 0 0 0 0 0 0 0 0 0 0 0 0 0 0 10 23 0 148 316 401 664 746 829 1306 2015 2264 2345 2325 2348 2296 2225 2255 2370 2325 2083 1849 2097
0 0 0 0 0 0 0 0 0 0 0 0 0 0 0 0 0 0 0 0 0 0 0 3 158 251 539 779 864 871 1179 1921 2327 2318 2534 2524 2501 2473 2448 2442 2496 2540 2259 2048
0 0 0 0 0 0 0 0 0 0 0 0 0 0 0 0 0 0 0 0 0 0 0 182 342 498 729 815 931 1068 1105 1547 2148 2268 2467 2630 2544 2464 2561 2611 2565 2567 2747 2452
0 0 0 0 0 0 0 0 0 0 0 0 0 0 0 0 0 0 0 0 0 0 0 1 396 491 510 618 746 964 1203 1434 1718 2050 2274 2486 2508 2431 2517 2497 2517 2591 2733 2821
0 0 0 0 0 0 0 0 0 0 0 4 0 0 0 0 0 0 1 0 0 0 0 0 194 799 852 590 666 793 983 1306 1518 1767 1812 2268 2428 2400 2348 2463 2472 2577 2644 2790
14 6 0 0 2 0 0 0 5 0 4 189 53 5 0 0 0 3 24 2 4 0 0 8 0 113 396 972 827 753 806 935 1269 1540 1732 1896 2350 2335 2332 2396 2541 2575 2621 2745
1 15 1 0 0 0 2 6 0 73 519 238 182 53 13 172 639 949 800 206 68 3 0 62 44 0 3 275 1029 768 827 858 1055 1277 1425 1469 1888 2193 2230 2317 2537 2564 2665 2559
9 11 0 0 1 0 146 690 837 869 643 654 445 554 409 521 749 1107 1376 1717 1854 1456 1402 1243 137 8 0 84 753 837 1072 1041 1001 1155 1151 1444 1644 1884 2190 2409 2607 2612 2416 2154
1 96 20 0 8 33 5 50 338 660 608 623 648 634 755 992 1447 1610 1739 1763 1848 2271 2490 2416 1618 857 230 271 330 984 1063 1211 1320 1442 1533 2003 2196 2392 2614 2650 2541 2326 2139 1957
5 3 15 0 1 52 0 0 6 22 156 298 77 252 468 859 1036 1228 1462 1672 1981 2335 2608 2775 2901 2669 2631 2507 1247 1760 2113 1869 2198 2411 2708 2975 2755 2555 1851 1049 1299 1525 1119 1427
3 58 0 3 7 0 0 0 0 0 0 0 22 63 14 199 402 414 648 832 1292 1571 1547 1353 1009 1094 1456 1536 2041 2856 2785 2620 2368 2311 2200 1955 1508 1068 613 353 256 2 129 15

GFSCGP_con_mlcape_027.txt.gz
CAPE
0 0 0 0 0 0 0 0 0 0 0 0 0 0 120 389 376 444 713 708 702 655 711 631 456 385 415 345 423 424 477 478 507 512 528 555 746 665 693 783 817 908 981 1011
0 0 0 0 0 0 0 0 0 0 0 0 0 0 0 354 325 363 416 522 570 649 559 326 475 338 357 332 388 384 441 404 446 544 563 716 708 558 586 631 814 758 973 1150
0 0 0 0 0 0 0 0 0 0 0 0 0 0 0 188 451 474 395 324 294 277 254 134 183 354 290 205 309 325 392 432 439 502 555 787 758 644 536 549 716 882 793 998
0 0 0 0 0 0 0 0 0 0 0 0 0 0 0 5 260 383 390 358 276 204 184 124 117 267 290 231 234 387 415 452 445 537 669 734 589 313 377 621 831 1038 1201 924
0 0 0 0 0 0 0 0 0 0 0 0 0 0 0 0 0 68 175 221 209 195 166 126 69 152 260 271 360 473 461 470 508 432 646 642 538 492 463 484 883 1010 1087 1123
0 0 0 0 0 0 0 0 0 0 0 0 0 0 0 0 0 0 0 55 80 90 124 141 122 79 234 320 483 505 420 484 579 501 557 635 691 665 595 596 652 782 998 1230
0 0 0 0 0 0 0 0 0 0 0 0 0 0 0 0 0 0 0 0 3 15 46 59 44 59 65 240 505 582 515 634 691 644 667 774 827 723 626 636 670 559 732 1041
0 0 0 0 0 0 0 0 0 0 0 0 0 0 0 0 0 0 0 0 0 0 7 22 25 26 55 108 318 471 513 674 853 817 810 850 902 771 700 678 725 488 816 1044
0 0 0 0 0 0 0 0 0 0 0 0 0 0 0 0 0 0 0 0 0 0 0 1 15 12 39 47 156 383 427 578 951 939 863 833 871 832 740 778 734 424 734 997
0 0 0 0 0 0 0 0 0 0 0 0 0 0 0 0 0 0 0 0 0 0 0 0 2 9 12 33 72 325 458 454 683 973 961 848 832 872 879 801 774 641 810 917
0 0 0 0 0 0 0 0 0 0 0 0 0 0 0 0 0 0 0 0 0 0 0 0 16 18 20 26 32 236 493 537 568 825 941 980 932 993 945 896 816 714 960 852
0 0 0 0 0 0 0 0 0 0 0 0 0 0 0 0 0 0 0 0 0 0 0 0 19 27 37 64 51 259 538 612 626 787 834 819 877 1058 1118 1036 978 848 1047 814
0 0 0 0 0 0 0 0 0 0 0 0 0 0 0 0 0 0 0 0 0 0 0 0 0 0 6 47 91 389 590 714 766 869 959 975 962 935 957 1129 1282 1094 1140 1042
0 0 0 0 0 0 0 0 0 0 0 0 0 0 0 0 0 0 0 0 0 0 0 5 0 0 2 32 112 431 731 902 938 1076 1125 1134 1161 1151 1091 1063 1163 1238 1131 1070
0 0 0 0 0 0 0 0 0 0 0 0 0 0 0 0 0 0 0 0 0 0 0 0 0 0 0 17 144 439 824 1133 1114 1227 1392 1327 1307 1316 1344 1273 1248 1254 1280 1158
0 0 0 0 0 0 0 0 0 0 0 0 0 0 0 0 0 0 0 0 0 0 0 0 0 45 70 99 141 382 824 1322 1369 1372 1461 1593 1562 1570 1573 1571 1474 1373 1312 1325
0 0 0 0 0 0 0 0 0 0 0 0 0 0 0 0 0 0 0 0 0 0 0 0 0 18 36 91 218 383 716 1129 1611 1565 1637 1674 1603 1632 1802 1933 1832 1649 1534 1511
0 0 0 0 0 0 0 0 0 0 0 0 0 0 0 0 0 0 0 0 0 0 0 0 0 30 153 147 320 460 751 1170 1579 1704 1876 1969 1835 1733 1763 1880 1977 1953 1775 1654
0 0 0 0 0 0 0 0 0 0 0 0 0 0 0 0 0 0 0 0 0 0 0 0 0 0 79 208 434 670 789 1157 1650 1733 1887 2024 2062 1977 1976 1912 1930 2080 2118 1894
0 0 0 0 0 0 0 0 0 0 0 0 0 0 0 0 0 0 0 0 0 0 0 0 0 33 175 397 695 802 800 1078 1500 1790 1884 2070 2155 2142 2104 2053 2088 2168 2238 2289
0 0 0 0 0 0 0 0 0 0 0 0 0 0 0 0 0 0 0 0 0 0 0 0 0 42 191 460 724 850 905 927 1213 1675 1983 2152 2315 2280 2200 2210 2211 2261 2278 2392
22 28 0 0 0 0 0 6 32 8 0 0 0 0 0 0 0 2 0 9 0 8 58 176 0 0 146 439 598 812 930 1039 1135 1345 1607 1918 2092 2353 2341 2267 2371 2393 2466 2561
24 32 0 0 0 0 0 0 0 4 29 99 0 22 197 226 250 334 366 480 591 738 1109 1533 1307 1295 732 0 664 556 773 940 1027 1191 1309 1423 1721 2208 2313 2273 2307 2332 2421 2519
38 93 49 49 15 0 28 45 4 8 83 86 222 497 771 633 944 864 932 1043 1419 1897 1717 2000 1894 1826 1866 2034 1582 440 893 714 718 927 1150 1284 1327 1812 2122 2186 2299 2434 2564 2569
28 93 14 47 21 0 37 0 0 0 0 76 111 239 476 788 831 907 1064 1276 1644 1781 1604 1682 1813 1726 1590 1245 1553 1453 1367 1474 1038 845 883 1025 1152 1454 1694 1235 1973 2495 2411 2351
23 62 53 6 8 0 0 0 0 0 0 1 6 36 20 193 553 684 843 776 981 1313 1286 1205 950 841 523 7 0 26 342 877 1159 1461 1023 1188 1133 888 695 885 869 791 1193 920

GFSCGP_con_mlcape_030.txt.gz
CAPE
0 0 0 0 0 0 0 0 0 0 0 0 0 0 27 136 299 471 498 448 375 306 372 375 306 349 420 367 407 492 469 319 275 92 40 105 396 550 730 444 533 699 787 871
0 0 0 0 0 0 0 0 0 0 0 0 0 0 0 143 113 257 431 482 460 392 484 470 374 234 326 349 319 390 454 462 428 323 211 248 351 464 786 629 664 699 788 895
0 0 0 0 0 0 0 0 0 0 0 0 0 0 0 89 241 359 514 471 474 462 451 483 446 306 208 221 275 277 350 440 433 465 350 343 369 464 622 610 603 665 757 864
0 0 0 0 0 0 0 0 0 0 0 0 0 0 0 0 78 212 220 401 501 493 523 469 430 409 203 205 154 216 238 336 332 401 402 355 329 408 473 582 521 577 698 752
0 0 0 0 0 0 0 0 0 0 0 0 0 0 0 0 0 98 232 227 239 311 368 430 251 212 339 162 151 188 233 272 279 326 420 373 354 421 405 486 518 462 688 831
0 0 0 0 0 0 0 0 0 0 0 0 0 0 0 0 0 10 117 282 281 221 195 204 138 55 98 178 77 141 211 249 245 252 383 381 381 319 352 365 316 473 835 952
0 0 0 0 0 0 0 0 0 0 0 0 0 0 0 0 0 0 0 40 158 256 217 180 121 44 85 135 115 75 199 255 250 214 276 390 461 383 391 360 386 251 527 823
0 0 0 0 0 0 0 0 0 0 0 0 0 0 0 0 0 0 0 0 2 14 85 137 153 87 32 113 137 158 209 274 310 287 253 348 454 455 437 427 439 451 362 479
0 0 0 0 0 0 0 0 0 0 0 0 0 0 0 0 0 0 0 0 0 0 0 7 53 75 76 45 100 178 244 263 319 368 333 307 444 499 483 474 518 518 564 635
0 0 0 0 0 0 0 0 0 0 0 0 0 0 0 0 0 0 0 0 0 0 0 0 0 0 20 33 70 162 291 295 355 423 448 427 507 585 578 514 568 589 604 740
0 0 0 0 0 0 0 0 0 0 0 0 0 0 0 0 0 0 0 0 0 0 0 0 0 4 9 24 14 79 254 350 419 643 647 637 627 677 650 566 610 640 670 745
0 0 0 0 0 0 0 0 0 0 0 0 0 0 0 0 0 0 0 0 0 0 0 0 0 1 7 9 24 35 186 305 369 638 782 774 704 728 682 617 661 681 714 689
0 0 0 0 0 0 0 0 0 0 0 0 0 0 0 0 0 0 0 0 0 0 0 0 0 0 0 0 1 25 97 288 375 512 775 866 821 747 731 702 743 744 771 714
0 0 0 0 0 0 0 0 0 0 0 0 0 0 0 0 0 0 0 0 0 0 0 0 0 0 0 0 1 3 80 248 415 474 637 779 867 831 810 856 854 796 836 760
0 0 0 0 0 0 0 0 0 0 0 0 0 0 0 0 0 0 0 0 0 0 0 0 0 0 0 0 7 26 111 248 446 538 615 711 795 817 832 897 995 1032 989 901
0 0 0 0 0 0 0 0 0 0 0 0 0 0 0 0 0 0 0 0 0 0 0 0 0 0 0 0 20 88 192 384 587 620 646 812 937 902 879 871 866 975 1076 1133
0 0 0 0 0 0 0 0 0 0 0 0 0 0 0 0 0 0 0 0 0 0 0 0 0 0 0 3 56 128 299 593 697 718 780 931 1058 1104 1116 1137 1069 986 1020 1125
0 0 0 0 0 0 0 0 0 0 0 0 0 0 0 0 0 0 0 0 0 0 0 0 0 0 0 0 53 205 323 633 784 858 970 1184 1285 1254 1334 1358 1278 1204 1165 1135
0 0 0 0 0 0 0 0 0 0 0 0 0 0 0 0 0 0 0 0 0 0 0 0 0 0 0 0 49 178 350 651 1015 1165 1247 1342 1479 1473 1517 1520 1517 1530 1411 1306
0 0 0 0 0 0 0 0 0 0 0 0 0 0 0 0 0 0 0 0 0 0 0 0 0 0 0 2 79 160 337 608 872 1327 1405 1534 1552 1503 1484 1570 1706 1816 1794 1676
0 0 0 0 0 0 0 0 0 0 0 0 0 0 0 0 0 0 0 0 0 0 0 0 0 0 0 0 57 206 362 595 866 1274 1617 1759 1782 1721 1607 1652 1716 1801 1983 1999
0 0 0 0 0 0 0 0 0 0 0 0 0 0 0 0 0 0 0 0 0 0 42 69 0 0 0 7 308 458 559 697 943 1343 1579 1765 1891 1967 2018 1990 1974 1963 2002 2089
0 0 0 0 0 0 0 0 0 0 0 0 0 0 0 0 0 0 60 532 780 845 929 1063 712 987 1301 0 157 476 408 643 838 1002 1403 1733 1981 2200 2254 2305 2195 2129 2199 2271
15 8 15 0 0 0 0 0 0 0 1 0 1 0 183 5 441 749 1114 1336 1489 1754 2019 1853 1468 1325 1470 1594 1419 1217 1121 1007 660 686 959 1262 1763 2093 2347 2347 2272 2223 2235 1749
0 0 0 1 0 21 11 0 0 23 32 5 13 136 143 571 766 949 1012 1010 894 674 472 457 372 152 1 0 0 0 134 790 1171 999 660 811 1189 1532 2060 2000 1920 2293 2264 2288
0 0 0 0 0 12 29 3 0 70 59 0 66 184 54 59 244 261 324 227 196 127 28 230 220 188 60 0 0 0 0 0 514 1066 1047 845 962 1067 1159 1227 978 750 1606 1855

GFSCGP_con_mlcape_033.txt.gz
CAPE
0 0 0 0 0 0 0 0 0 0 0 0 0 0 4 243 505 607 602 458 366 255 293 328 381 474 468 545 598 640 635 651 565 416 172 14 0 6 342 742 1102 1176 1083 1317
0 0 0 0 0 0 0 0 0 0 0 0 0 0 0 133 247 517 567 587 529 426 320 347 395 489 551 634 636 723 712 792 597 519 281 88 57 208 773 1197 1198 1136 1216 1461
0 0 0 0 0 0 0 0 0 0 0 0 0 0 0 28 240 476 698 639 616 578 452 418 435 459 552 650 669 736 738 854 781 591 499 432 598 760 859 1121 1246 1209 1335 1468
0 0 0 0 0 0 0 0 0 0 0 0 0 0 0 0 0 202 439 635 633 650 580 593 522 526 467 606 645 686 724 829 866 815 640 459 201 239 548 887 1239 1270 1289 1408
0 0 0 0 0 0 0 0 0 0 0 0 0 0 0 0 0 11 298 511 584 597 625 649 664 561 512 528 593 634 656 740 820 891 782 703 592 573 676 911 1104 1201 1249 1245
0 0 0 0 0 0 0 0 0 0 0 0 0 0 0 0 0 0 135 338 499 610 595 710 756 763 685 524 472 499 645 618 752 756 819 787 739 760 794 854 851 963 1081 1173
0 0 0 0 0 0 0 0 0 0 0 0 0 0 0 0 0 0 0 92 330 396 620 656 780 748 708 700 498 437 518 568 661 632 734 836 751 848 830 814 795 940 1029 1076
0 0 0 0 0 0 0 0 0 0 0 0 0 0 0 0 0 0 0 0 197 392 371 447 537 705 546 482 621 478 494 557 659 645 657 780 858 918 919 948 842 960 927 1034
0 0 0 0 0 0 0 0 0 0 0 0 0 0 0 0 0 0 0 0 0 23 313 404 486 455 403 349 413 485 439 503 628 655 697 738 859 887 881 951 1040 924 1084 1017
0 0 0 0 0 0 0 0 0 0 0 0 0 0 0 0 0 0 0 0 0 0 5 165 467 516 468 318 416 465 420 411 541 651 688 715 742 858 925 1060 998 991 1102 1090
0 0 0 0 0 0 0 0 0 0 0 0 0 0 0 0 0 0 0 0 0 0 0 0 95 327 503 445 342 532 538 526 627 700 755 767 796 909 989 1030 1054 1088 1159 1142
0 0 0 0 0 0 0 0 0 0 0 0 0 0 0 0 0 0 0 0 0 0 0 0 0 72 187 412 432 399 598 713 699 715 801 802 892 967 998 1031 1075 1162 1129 1193
0 0 0 0 0 0 0 0 0 0 0 0 0 0 0 0 0 0 0 0 0 0 0 0 0 0 41 188 329 350 453 633 794 897 895 968 1002 1080 1118 1179 1227 1234 1224 1271
0 0 0 0 0 0 0 0 0 0 0 0 0 0 0 0 0 0 0 0 0 0 0 0 0 0 5 72 208 307 412 555 730 909 1003 1067 1121 1187 1247 1350 1321 1249 1295 1299
0 0 0 0 0 0 0 0 0 0 0 0 0 0 0 0 0 0 0 0 0 0 0 0 0 0 0 32 167 236 346 547 678 896 986 1093 1253 1410 1402 1394 1418 1382 1374 1276
0 0 0 0 0 0 0 0 0 0 0 0 0 0 0 0 0 0 0 0 0 0 0 0 0 0 0 3 107 206 300 419 725 804 796 1095 1397 1504 1438 1415 1413 1409 1376 1397
0 0 0 0 0 0 0 0 0 0 0 0 0 0 0 0 0 0 0 0 0 0 0 0 0 0 0 0 27 157 302 482 664 781 911 1065 1283 1500 1524 1561 1564 1544 1503 1483
0 0 0 0 0 0 0 0 0 0 0 0 0 0 0 0 0 0 0 0 0 0 0 0 0 0 0 0 2 166 457 500 625 857 996 1146 1256 1391 1483 1499 1460 1610 1684 1648
0 0 0 0 0 0 0 0 0 0 0 0 0 0 0 0 0 0 0 0 0 0 0 0 0 0 0 0 0 131 455 697 853 944 1042 1124 1089 1175 1452 1486 1501 1587 1596 1675
0 0 0 0 0 0 0 0 0 0 0 0 0 0 0 0 0 0 0 0 0 0 0 0 0 0 0 0 5 151 351 700 816 1013 1092 1265 1374 1444 1516 1661 1778 1866 1818 1732
0 0 0 0 0 0 0 0 0 0 0 0 0 0 0 0 0 0 0 0 0 0 0 0 0 0 0 0 21 129 390 623 777 1345 1670 1732 1736 1745 1821 1950 2046 2164 2122 2102
0 0 0 0 0 0 0 0 0 0 0 0 0 0 0 0 0 0 0 0 0 0 0 0 0 0 0 53 67 325 553 918 1244 1435 1690 1908 1936 1935 1999 2137 2225 2260 2321 2418
0 0 7 0 0 0 0 0 0 0 0 0 0 0 0 0 0 0 0 88 448 764 700 1202 837 80 32 324 715 623 709 901 1097 1394 1624 1870 2154 2275 2293 2212 2093 2142 2365 2488
0 4 5 1 0 0 0 0 0 13 0 8 19 2 0 0 59 3 656 963 1573 1530 1450 1884 1747 1125 629 660 867 1038 1134 979 1152 1333 1656 2007 2213 2378 2584 2613 2305 2340 2400 2432
1 8 3 1 0 0 0 0 0 0 0 0 2 19 17 210 616 780 1133 1419 1221 800 385 150 54 5 7 5 33 154 854 1485 1261 1167 1232 1491 1969 2100 2651 2674 2722 2365 2094 2651
1 0 0 0 0 0 0 0 4 42 1 0 0 10 32 226 583 817 740 488 463 515 464 337 172 31 0 0 0 0 0 370 1069 840 828 946 1285 1740 2180 2614 1989 1470 1655 2269

GFSCGP_con_mlcape_036.txt.gz
CAPE
0 0 0 0 0 0 0 0 0 0 0 0 0 0 0 92 342 488 746 822 786 681 519 454 472 394 456 528 579 680 747 850 996 883 676 407 146 60 31 180 488 1191 1460 1817
0 0 0 0 0 0 0 0 0 0 0 0 0 0 0 45 313 541 671 695 818 807 628 508 549 523 500 596 751 1022 992 1073 1231 979 678 194 31 0 12 349 831 1755 2029 2046
0 0 0 0 0 0 0 0 0 0 0 0 0 0 0 2 90 245 544 648 705 819 778 569 459 487 480 510 712 969 1352 1392 1460 987 790 545 151 67 100 483 1226 1844 1968 2119
0 0 0 0 0 0 0 0 0 0 0 0 0 0 1 0 7 23 111 598 667 801 859 698 452 458 481 670 805 1025 1385 1670 1743 1485 696 644 150 80 103 526 956 1202 1935 1971
0 0 0 0 0 0 0 0 0 0 0 0 0 0 0 0 0 0 35 245 650 788 861 843 648 373 389 633 757 1107 1496 1813 1784 1794 986 834 809 166 244 430 982 1535 1630 2001
0 0 0 0 0 0 0 0 0 0 0 0 0 0 0 0 0 0 16 100 426 668 744 875 872 525 391 502 811 1103 1579 1984 1891 1794 1740 1384 1285 945 520 810 1039 1258 1228 1396
0 0 0 0 0 0 0 0 0 0 0 0 0 0 0 0 0 0 0 2 296 714 655 753 928 932 571 503 701 1055 1448 1908 1954 1775 1741 1746 1585 1590 1479 1451 1328 1232 968 879
0 0 0 0 0 0 0 0 0 0 0 0 0 0 0 0 0 0 0 0 30 504 744 708 914 1065 1079 835 973 1036 1359 1727 1932 1839 1904 2046 2117 1571 1493 1585 1382 1387 1035 998
0 0 0 0 0 0 0 0 0 0 0 0 0 0 0 0 0 0 0 0 0 248 588 780 845 1001 1217 1295 1319 1312 1499 1764 1888 1817 2029 2044 2112 1871 1379 1438 1878 1531 1561 1225
0 0 0 0 0 0 0 0 0 0 0 0 0 0 0 0 0 0 0 0 0 0 346 505 802 978 1129 1364 1451 1595 1649 1555 1490 1682 1874 1911 1981 2150 1975 2002 1907 1772 1666 1689
0 0 0 0 0 0 0 0 0 0 0 0 0 0 0 0 0 0 0 0 0 0 105 394 463 650 860 1114 1393 1509 1722 1766 1775 1748 1817 1798 1834 1935 2104 2047 2101 2126 1907 2046
0 0 0 0 0 0 0 0 0 0 0 0 0 0 0 0 0 0 0 0 0 0 0 46 130 318 637 920 1034 1107 1342 1596 1627 1737 2000 1829 1826 1877 1832 2062 2108 2312 2094 2168
0 0 0 0 0 0 0 0 0 0 0 0 0 0 0 0 0 0 0 0 0 0 0 4 31 43 262 678 1008 979 1101 1258 1404 1685 1731 1711 1702 1772 1861 2167 2131 2229 2291 2361
0 0 0 0 0 0 0 0 0 0 0 0 0 0 0 0 0 0 0 0 0 0 0 0 0 0 2 233 711 1122 930 1033 1186 1338 1562 1751 1885 1826 1937 2137 2232 2312 2383 2396
0 0 0 0 0 0 0 0 0 0 0 0 0 0 0 0 0 0 0 0 0 0 0 0 0 3 277 295 632 1233 1058 949 1045 1421 1484 1778 2038 2199 2131 2152 2301 2392 2477 2442
0 0 0 0 0 0 0 0 0 0 0 0 0 0 0 0 0 0 0 0 0 0 0 0 0 51 332 468 815 931 1192 991 1032 1441 1675 1802 2149 2340 2293 2342 2452 2504 2492 2515
0 0 0 0 0 0 0 0 0 0 0 0 0 0 0 0 0 0 0 0 0 0 0 0 0 0 17 242 527 745 1093 1123 1197 1371 1783 1944 2254 2419 2514 2564 2592 2576 2545 2573
0 0 0 0 0 0 0 0 0 0 0 0 0 0 0 0 0 0 0 0 0 0 0 0 0 0 0 0 0 162 671 1341 1330 1563 1792 2016 2212 2419 2656 2709 2568 2637 2750 2635
0 0 0 0 0 0 0 0 0 0 0 0 0 0 0 0 0 0 0 0 0 0 0 0 0 0 0 0 0 0 382 1041 1424 1592 1753 2068 2174 2217 2433 2764 2794 2722 2628 2693
0 0 0 0 0 0 0 0 0 0 0 0 0 0 0 0 0 0 0 0 0 0 0 0 0 0 0 0 1 157 346 804 1502 1628 1851 2087 2211 2289 2366 2715 2805 2755 2644 2631
0 0 0 0 0 0 0 0 1 0 9 0 0 0 0 0 6 27 36 3 0 0 0 0 0 0 0 0 128 29 370 764 1355 1683 1770 2107 2348 2479 2534 2773 2787 2675 2598 2396
3 0 0 0 0 0 0 0 0 0 0 0 0 0 0 0 0 0 7 112 101 4 0 0 14 0 49 737 714 596 823 1133 1621 1757 1932 2269 2527 2366 2302 2721 2913 2827 2762 2802
0 0 0 0 0 0 0 0 0 0 0 0 0 0 0 0 0 0 0 285 450 3 0 509 84 226 548 1227 1016 1016 1520 1753 1968 2097 2355 2583 2759 2707 2506 2771 2850 2849 2882 2523
2 14 12 0 0 0 0 0 0 0 0 0 0 0 0 0 0 0 94 805 393 818 1580 1691 1921 1368 1666 2033 2047 2025 2359 2233 2198 2331 2657 2877 3077 3008 2903 2835 2968 2833 2810 2806
6 19 14 5 0 0 0 0 0 0 0 0 0 0 0 0 0 0 576 1126 1345 2209 2305 2490 2423 2037 2060 2248 2481 2529 2436 2289 2497 2668 2739 2847 2809 2852 3120 3028 2881 2859 2820 2658
0 0 0 0 1 13 7 6 2 0 0 0 0 0 0 0 0 113 1095 1582 2080 1820 1337 1088 885 732 502 560 807 1068 1949 2693 2389 2300 2165 2109 2145 2529 2676 2822 2995 2332 1999 1627

GFSCGP_con_mlcape_039.txt.gz
CAPE
0 0 0 0 0 0 0 0 1 45 12 1 20 39 22 55 209 392 793 902 862 717 462 344 423 328 293 339 481 791 841 1028 1025 920 775 562 327 326 206 93 276 829 1277 1504
0 0 0 0 0 0 0 0 6 19 9 0 34 28 44 66 185 375 648 804 848 794 658 352 406 346 247 349 545 916 1142 1478 1367 1087 966 521 410 128 87 6 545 955 1555 1922
0 0 0 0 0 0 0 0 0 5 13 0 1 7 46 51 99 381 577 624 743 850 837 623 396 399 326 404 786 1027 1404 1607 1572 1246 1143 887 483 240 30 36 391 1036 1619 1970
0 0 0 0 0 0 0 0 0 0 0 6 0 3 2 14 60 122 466 604 645 778 872 859 544 416 376 449 724 1246 1722 1914 1910 1729 970 772 283 35 3 31 131 998 1681 1872
0 0 0 0 0 0 0 0 0 0 0 0 1 11 11 10 23 47 71 354 554 644 846 904 830 464 329 410 565 1090 1968 2168 1931 1994 1324 919 690 21 70 81 289 982 1927 1942
0 0 0 0 0 0 0 0 0 0 0 0 0 0 0 1 23 31 36 48 238 541 716 917 924 646 368 303 462 877 1755 2244 2421 2381 1834 1810 920 516 278 222 475 890 1083 1847
0 0 0 0 0 0 0 0 0 0 0 0 0 0 0 0 1 15 15 51 62 367 752 876 893 793 529 397 620 894 1740 2398 2635 2609 2333 1959 1650 1173 1684 1149 654 848 787 689
0 0 0 0 0 0 0 0 0 0 0 0 0 0 0 0 0 5 7 42 55 94 607 869 982 917 756 578 799 887 1654 2500 2793 2631 2603 2592 2318 1694 1428 1421 1050 1026 808 636
0 0 0 0 0 0 0 0 0 0 0 0 0 0 0 0 0 0 0 2 11 20 469 746 913 1041 1081 818 1005 1150 1600 2403 2841 2723 2800 2875 2809 2302 1623 1631 1849 1875 1509 943
0 0 0 0 0 0 0 0 0 0 0 0 0 0 0 0 0 0 0 0 0 1 284 742 839 1054 1276 1155 1044 1341 1671 2451 2872 2705 2892 2967 3048 2954 2328 2202 2197 1895 1914 1893
0 0 0 0 0 0 0 0 0 0 0 0 0 0 0 0 0 0 0 0 0 0 143 638 871 987 1279 1371 1341 1435 1692 2247 2759 2914 2882 2839 2950 2870 2989 2545 2556 2454 2440 2719
0 0 0 0 0 0 0 0 0 0 0 0 0 0 0 0 0 0 0 0 0 0 15 458 589 911 1036 1308 1514 1639 1790 1746 2448 2446 2838 2854 2890 2824 2914 2949 2701 2830 2789 2681
0 0 0 0 0 0 0 0 0 0 0 0 0 0 0 0 0 0 0 0 0 0 0 84 377 672 710 931 1400 1547 1845 1902 1948 2294 2425 2819 2794 2873 2707 2937 3029 3009 2983 2997
0 0 0 0 0 0 0 0 0 0 0 0 0 0 0 0 0 0 0 0 0 0 0 1 66 178 309 559 1134 1469 1493 1678 1820 2038 2211 2459 2830 2706 2740 2774 3150 3039 3203 3153
0 0 0 0 1 0 0 0 0 0 0 0 0 0 0 0 0 0 0 0 0 0 0 0 0 5 153 463 1175 1713 1327 1447 1491 1983 2229 2442 2828 3018 2987 2871 2993 3097 3216 3299
0 0 0 0 0 0 0 0 0 0 0 0 0 0 0 0 0 0 0 0 0 0 0 0 0 0 78 254 557 1105 1824 1555 1489 1965 2111 2347 2739 3048 3118 3159 3083 3289 3140 3291
0 0 1 0 0 0 0 0 0 0 0 0 0 0 0 0 0 0 0 0 0 0 0 0 0 0 5 278 742 886 1442 1753 1668 1752 2388 2334 2673 2984 3256 3366 3389 3302 3399 3440
0 0 0 0 0 0 0 0 0 0 0 0 0 0 0 0 0 0 0 0 0 0 0 0 0 0 5 10 0 623 880 1873 1959 2239 2088 2591 2623 3059 3265 3438 3506 3592 3599 3517
0 0 0 0 0 0 0 0 0 0 0 0 0 0 0 0 0 0 0 0 0 0 0 0 0 0 0 0 0 2 274 1231 2183 2165 2489 2382 2993 3066 3491 3517 3518 3657 3678 3694
0 0 0 0 0 0 0 0 0 0 0 0 0 0 0 0 0 0 6 4 12 11 2 0 0 0 0 0 0 0 0 56 1644 2285 2650 2841 2998 3265 3492 3661 3816 3835 3756 3682
0 0 0 0 0 0 0 1 0 0 67 7 0 0 4 3 12 110 39 3 32 123 265 151 85 0 13 4 0 25 140 240 757 2008 2555 3009 3171 3457 3441 3548 3850 3947 3821 3316
2 0 0 0 0 0 0 0 5 1 0 0 1 1 0 0 0 0 0 0 37 86 371 379 149 1 113 208 104 388 744 908 1409 1756 2385 2659 3142 3191 3094 3595 3805 4051 3885 3700
0 0 0 0 0 0 0 0 0 0 0 0 0 0 0 0 0 0 0 0 1 331 892 691 89 72 450 496 927 1423 1780 2377 2133 2323 2722 2908 3300 3481 3170 3516 3869 3777 3775 3335
1 1 0 0 0 0 0 0 0 0 0 0 0 0 0 0 0 0 0 0 1 541 1071 1063 1247 1210 1461 1763 1903 2125 2234 2671 2558 2761 3081 3199 3464 3515 3415 3267 3349 3335 3179 3242
6 0 3 0 0 0 0 0 0 0 0 0 0 0 0 0 0 0 0 0 12 657 1537 2149 2283 2552 2362 2809 2906 2913 3067 3009 2819 3019 3038 3177 3225 3339 3545 3336 3115 3172 3182 2790
0 5 16 5 2 2 0 1 0 0 0 0 0 0 0 0 0 0 0 0 197 1220 2161 2140 2043 2226 1867 2140 2493 2977 3333 2905 2995 3033 3072 3032 3003 3368 3322 3471 3407 2542 2490 1703

GFSCGP_con_mlcape_042.txt.gz
CAPE
0 0 0 0 0 0 4 3 0 31 80 10 6 8 29 7 29 515 569 649 501 438 442 485 354 269 348 481 785 580 748 797 1166 1003 976 999 564 517 519 436 319 1369 1491 1622
0 0 0 0 0 0 0 0 0 0 49 16 15 13 6 35 21 425 636 623 672 528 405 511 461 317 274 473 819 963 800 1042 1356 1221 1219 952 812 523 451 323 433 740 1193 1487
0 0 0 0 0 0 0 0 0 2 5 2 2 17 25 9 0 132 564 581 743 718 525 410 494 392 302 630 818 1127 1060 1538 1547 1298 1282 1084 883 683 571 277 176 803 1287 1928
0 0 0 0 0 0 0 0 0 3 33 25 31 27 13 24 49 72 337 498 766 810 724 523 570 484 410 558 854 1192 1291 1365 1774 1460 1225 1188 778 515 320 191 274 826 1030 1539
0 0 0 0 0 0 0 0 0 0 0 0 4 3 28 19 58 119 249 478 487 794 778 692 576 548 508 535 952 1244 1443 1563 1931 1284 1761 1064 914 510 271 296 105 553 1511 1894
0 0 0 0 0 0 0 0 0 0 0 0 0 1 5 5 0 15 79 429 447 692 853 951 761 639 546 657 1083 1264 1703 1692 1972 1990 1201 1948 1014 764 297 141 359 750 1902 1724
0 0 0 0 0 0 0 0 0 0 0 0 0 0 0 6 9 6 52 48 492 585 832 1080 1055 845 647 729 1006 1277 1892 1870 2009 2238 1904 1224 2128 882 860 878 182 698 1158 1777
0 0 0 0 0 0 0 0 0 0 0 0 0 0 0 0 0 5 46 36 84 365 718 962 1219 1082 803 697 874 1261 2004 2191 2414 2230 2399 1764 1843 2104 718 1237 1117 466 1047 1223
0 0 0 0 0 0 0 0 0 0 0 0 0 0 0 0 0 0 15 68 63 159 406 723 1284 1234 993 760 868 1051 1581 2258 2473 2329 2518 2577 1564 2374 1695 859 1601 1629 917 1557
0 0 0 0 0 0 0 0 0 0 0 0 0 0 0 0 0 0 0 12 41 80 272 859 1179 1325 1182 897 855 1072 1495 2059 2474 2619 2517 2729 2601 2043 2050 1540 1707 1380 2039 1111
0 0 0 0 0 0 0 0 0 0 0 0 0 0 0 0 0 0 0 0 0 115 265 662 1159 1372 1376 1148 981 1095 1322 2141 2638 2843 2937 2820 2879 2623 2246 1991 2012 2302 1769 2559
0 0 0 0 0 0 0 0 0 0 0 0 0 0 0 0 0 0 0 0 0 12 318 557 999 1276 1539 1456 1248 1236 1445 1741 2598 3122 3116 2937 2896 3148 2831 2257 2182 2440 2678 2170
0 0 0 0 0 0 0 0 0 0 0 0 0 0 0 0 0 0 0 0 0 0 228 638 850 1118 1506 1670 1638 1496 1527 1643 2435 2963 3271 3253 3132 3148 3180 3005 2509 2557 2466 2946
0 0 0 0 0 0 0 0 0 0 0 0 0 0 0 0 0 0 0 0 0 9 26 502 667 1068 1332 1646 1803 1837 1799 1769 1889 2652 3055 3185 3350 3315 3329 3279 3293 2757 2929 2626
0 0 0 0 0 3 0 0 0 0 0 0 0 0 0 0 0 0 0 0 0 23 57 384 523 1128 1289 1490 1871 1988 2008 2126 2101 2025 2719 2843 3069 3358 3277 3312 3384 3535 3148 3209
0 0 0 0 0 0 0 0 0 0 0 0 0 0 0 0 0 0 0 0 0 0 0 0 0 34 147 1674 1840 1972 2044 2268 2218 2373 2410 2692 2857 3014 3339 3236 3251 3326 3601 3443
0 0 0 0 0 0 0 0 0 0 0 0 0 0 0 0 0 0 0 0 0 0 0 0 0 0 58 261 1178 2125 2000 1888 2191 2296 2615 2705 2908 3131 3299 3405 3333 3306 3454 3602
0 0 0 0 0 0 0 0 0 0 0 0 0 0 1 0 0 0 0 0 0 0 0 0 0 0 0 0 43 642 1932 2220 1882 2243 2101 2732 3045 3129 3380 3504 3496 3562 3513 3671
0 0 0 0 0 0 1 0 0 0 0 0 0 0 0 0 0 0 0 0 0 0 0 0 0 0 0 3 234 644 852 1858 2329 2042 2501 2232 3021 3039 3381 3612 3606 3660 3753 3702
0 0 0 0 0 0 0 0 0 0 0 7 0 0 0 0 0 71 207 92 89 211 324 431 396 262 99 208 48 850 954 1540 1834 1829 1830 2872 2459 3168 3345 3634 3841 3894 3864 3923
0 0 0 0 0 0 0 0 0 0 22 8 8 12 0 5 92 102 41 3 28 155 243 344 450 427 247 37 56 46 416 483 1667 2309 2465 2448 3137 2832 3408 3570 3957 4005 3978 4004
0 0 0 0 0 0 0 0 0 0 0 0 0 0 0 0 0 0 0 0 0 3 122 796 749 666 484 113 209 507 192 771 631 624 2458 3051 3250 3277 3252 3739 4026 4128 4146 4054
0 0 0 0 0 0 0 0 0 0 0 0 0 0 0 0 0 0 0 0 0 0 44 562 1575 711 522 414 843 735 695 1437 1495 1835 2443 2819 3407 3691 3380 3700 3937 4165 4234 4163
0 0 0 0 0 0 0 0 0 0 0 0 0 0 0 0 0 0 0 0 0 0 70 329 1457 2178 2068 1913 1974 1998 2083 2209 2915 2524 2960 3324 3393 3738 3850 3589 3925 3950 3964 4177
0 0 0 0 0 0 0 0 0 0 0 0 0 0 0 0 0 0 0 0 0 23 111 726 2122 3043 3348 3095 3211 3250 3237 3016 3415 3477 3580 3821 3659 3764 3994 3696 3673 3867 3861 3793
1 0 2 2 0 0 0 0 0 0 0 0 0 0 0 0 0 0 0 0 0 0 309 1549 2271 2082 2645 2341 3076 3226 3456 3585 3570 3558 3578 3526 3369 3626 3636 3995 3343 1083 1590 1546

GFSCGP_con_mlcape_045.txt.gz
CAPE
0 0 0 0 0 0 0 0 0 0 27 38 40 3 128 73 175 242 295 449 374 237 184 468 420 187 0 0 62 24 281 417 276 544 437 464 12 274 432 292 1178 1007 1124 1414
0 0 0 0 0 0 0 0 0 0 0 3 0 5 26 126 270 117 114 364 410 373 275 226 90 98 55 92 32 170 393 608 424 552 448 652 703 307 371 226 793 1076 1257 1421
0 0 0 0 0 0 0 0 0 0 0 0 7 5 28 219 284 87 109 236 360 391 309 234 97 93 111 186 116 185 196 657 576 624 599 434 765 704 454 278 134 1284 1182 1233
0 0 0 0 0 0 0 0 0 0 0 14 0 0 0 19 134 154 448 615 174 372 313 309 168 148 178 321 330 176 299 639 796 841 822 611 405 476 588 332 179 253 1071 988
0 0 0 0 0 0 0 0 0 0 1 0 0 0 0 11 2 194 603 359 72 438 323 321 282 285 132 310 554 411 358 598 978 929 866 795 636 607 325 501 167 294 489 705
0 0 0 0 0 0 0 0 0 0 0 0 0 0 0 4 1 235 501 374 371 628 405 313 384 339 245 434 642 731 524 648 919 1002 978 686 845 593 523 133 168 192 694 782
0 0 0 0 0 0 0 0 0 0 0 0 0 0 0 0 0 47 205 296 436 394 230 462 420 371 363 469 624 809 736 626 938 981 811 1302 816 750 317 306 47 224 627 1129
0 0 0 0 0 0 0 0 0 0 0 0 0 0 0 0 0 5 142 410 357 191 476 593 427 448 371 419 643 937 857 778 814 1194 973 703 1616 954 653 483 323 28 649 982
0 0 0 0 0 0 0 0 0 0 0 0 0 0 0 0 0 0 0 439 313 214 625 657 532 528 393 513 721 831 1103 942 1103 1213 1348 941 772 1909 969 353 653 1028 452 1065
0 0 0 0 0 0 0 0 0 0 0 0 0 0 0 0 0 0 0 1 300 489 818 824 696 624 508 492 729 921 1224 1206 1179 1322 1526 1441 956 813 1974 1041 395 611 1258 458
0 0 0 0 1 0 0 0 0 0 0 0 0 0 0 0 0 0 0 0 22 458 876 1098 957 822 655 508 744 932 1182 1572 1592 1598 1531 1876 1772 1323 1080 1920 926 513 1222 1622
0 0 0 0 0 0 0 0 0 0 0 0 0 0 0 0 0 0 0 0 0 246 761 1223 1177 1066 882 667 701 856 1085 1621 1839 1928 1951 1829 2186 2193 1420 1327 1887 637 1128 1216
0 0 0 0 0 0 0 0 0 0 0 0 0 0 0 0 0 0 0 0 0 91 570 1158 1283 1225 1138 869 714 821 921 1402 1804 2132 2144 2184 2110 2370 2204 1672 1325 1892 977 1573
13 0 0 0 0 0 0 0 0 0 0 0 0 0 0 0 0 0 0 0 0 45 558 1005 1342 1308 1357 1103 885 827 927 1144 1887 2092 2312 2368 2438 2415 2448 2453 2077 1326 1919 1654
0 0 0 0 0 0 0 0 0 0 0 0 0 0 0 0 0 0 0 0 0 4 427 1030 1260 1373 1492 1350 1124 1014 993 1202 1376 2234 2442 2487 2670 2600 2584 2587 2783 2525 1812 2112
0 0 0 0 0 0 0 0 0 0 0 0 0 0 0 0 17 0 0 0 35 137 392 683 965 1250 1533 1601 1407 1278 1195 1248 1385 1840 2329 2708 2869 2941 2777 2857 2792 2918 2888 2309
0 0 0 0 0 0 0 0 0 0 0 0 0 0 0 0 4 0 0 0 0 0 0 5 11 886 1475 1670 1740 1670 1603 1497 1499 1614 1867 2548 2854 2970 3024 3046 3136 3063 3104 3176
0 0 0 0 0 0 0 0 2 0 0 0 0 3 0 1 35 1 0 0 0 0 0 0 0 0 0 1301 1862 1788 1884 1969 1897 1800 1870 1924 2650 2836 2958 3055 3108 3143 3172 3250
0 0 0 0 0 0 0 0 0 10 0 2 70 23 7 77 5 94 70 117 158 163 197 202 186 75 16 0 0 1867 2183 2165 2329 2320 2355 2283 2449 2694 2915 2946 3093 3170 3184 3182
0 0 0 0 0 0 0 0 0 0 0 0 35 234 72 35 0 22 0 17 75 149 209 406 289 215 68 15 1 726 1311 1970 2255 2391 2583 2720 2715 2850 2886 3074 3140 3286 3289 3269
0 0 0 0 0 0 0 0 0 0 0 0 0 0 0 0 0 0 0 0 0 10 86 369 564 800 814 238 66 30 484 1448 2163 2046 1995 2348 2555 2767 3011 3081 3354 3430 3471 3480
4 1 0 0 0 0 0 0 0 0 0 0 0 0 0 0 0 0 0 0 0 0 0 236 386 640 1198 1257 164 0 54 209 548 1798 2306 2095 2330 2366 2878 3057 3361 3598 3630 3639
0 0 0 0 0 0 0 0 0 0 0 0 0 0 0 0 0 0 0 0 0 0 0 19 439 1159 1556 2052 1156 251 507 1317 1580 548 1818 2259 2258 2426 2474 2818 3215 3658 3798 3847
0 0 0 0 0 0 0 0 0 0 0 0 0 0 0 0 0 0 0 0 0 0 0 2 456 1431 2857 3152 2966 2683 2676 2368 1577 1643 2156 2368 2914 3087 3045 3127 3277 3576 3959 4012
1 0 0 0 0 0 0 0 0 0 0 0 0 0 0 0 0 0 0 0 0 0 0 0 33 802 2085 2456 3026 3149 3096 3108 3402 2396 2940 3102 2763 3315 3482 3120 2852 3717 3837 3937
0 0 2 1 0 1 0 0 0 0 0 0 0 0 0 0 0 0 0 0 0 0 0 0 0 301 2009 2024 2012 2044 2132 2679 3062 3768 3518 3878 3679 3600 3638 3133 1768 334 1180 1593

GFSCGP_con_mlcape_048.txt.gz
CAPE
0 0 0 0 0 0 0 0 0 0 0 58 5 53 31 574 441 460 365 374 273 220 164 128 153 109 126 99 59 0 15 125 282 164 125 13 44 44 135 283 661 624 626 905
0 0 0 0 0 0 0 0 0 0 0 10 43 80 67 502 450 359 390 463 409 390 260 236 155 93 107 103 117 40 11 5 147 57 48 19 0 0 26 137 491 691 771 962
0 0 0 0 0 0 0 0 0 0 0 0 13 13 34 100 461 469 397 404 401 372 356 258 287 115 138 77 129 69 26 0 56 178 126 66 4 0 7 113 232 729 891 1098
0 0 0 0 0 0 0 0 0 0 0 0 0 0 1 62 119 338 315 322 290 272 288 355 344 263 190 56 87 100 97 92 70 308 146 123 12 4 16 59 89 543 913 1105
0 0 0 0 0 0 0 0 0 0 0 0 0 2 2 33 137 195 78 108 34 267 235 182 318 308 125 71 87 79 250 224 238 375 270 190 202 145 350 264 188 196 884 1097
0 0 0 0 0 0 0 0 0 0 0 0 0 0 0 8 77 193 54 44 57 199 307 202 106 45 34 110 34 153 338 328 354 399 362 268 207 148 163 333 316 175 353 793
0 0 0 0 0 0 0 0 0 0 0 0 0 0 0 5 64 30 109 113 148 257 302 275 147 78 74 207 135 98 242 482 451 420 465 390 302 265 97 201 180 197 200 348
0 0 0 0 0 0 0 0 0 0 0 0 0 0 0 0 0 50 193 290 399 147 241 293 233 138 92 236 327 210 217 329 546 453 427 504 457 425 272 282 251 46 137 341
0 0 0 0 0 0 0 0 0 0 0 0 0 0 0 0 0 10 173 468 572 310 140 367 308 228 188 234 442 438 318 288 551 585 583 654 585 521 457 421 195 99 80 328
0 0 0 0 0 0 0 0 0 0 0 0 0 0 0 0 0 0 21 383 620 405 465 373 323 358 247 259 414 583 553 420 462 770 644 558 738 1038 725 511 447 373 126 350
0 0 0 0 0 0 0 0 0 0 0 0 0 0 0 0 0 0 0 111 415 491 646 325 459 436 320 317 493 666 716 655 666 661 863 794 640 537 1274 1075 474 354 535 590
0 3 0 0 0 0 0 0 0 0 0 0 0 0 0 0 0 0 0 73 246 437 512 358 591 499 440 387 516 626 864 825 773 838 936 1085 1060 832 566 1118 1344 810 469 406
3 1 0 0 0 0 0 0 0 0 0 0 0 0 0 0 0 0 0 0 18 395 489 417 706 621 546 395 517 700 816 998 959 1013 1062 1121 1293 1277 1040 681 985 1393 1011 712
10 3 1 0 0 0 0 0 0 0 0 0 0 0 0 0 0 0 0 0 0 154 393 589 828 734 654 503 504 729 866 1160 1227 1285 1321 1228 1386 1642 1594 1384 968 1030 1302 889
2 0 0 0 0 0 0 0 0 0 0 0 0 0 0 0 0 0 0 0 0 139 741 902 974 899 847 653 536 718 927 1078 1493 1563 1620 1592 1530 1597 1930 1887 1670 1334 1143 1329
1 0 0 0 0 0 0 0 0 0 0 0 0 0 0 0 0 0 0 0 0 228 932 1182 1103 1057 1052 882 699 680 835 1069 1369 1638 1707 1766 1874 1819 1800 1959 2018 1869 1638 1219
0 0 0 0 0 0 0 0 0 0 0 0 0 0 0 0 0 3 3 0 2 155 791 1244 1156 1131 1156 1087 879 756 828 885 1268 1580 1675 1927 1976 2101 2086 2132 2185 2277 2157 2037
0 0 0 0 0 0 0 0 0 0 0 0 0 0 0 86 83 61 90 85 136 140 254 433 871 1047 1240 1238 1044 899 828 901 1068 1252 1764 1961 2303 2291 2434 2478 2419 2400 2521 2569
0 0 0 0 0 0 0 0 0 0 0 0 0 17 143 102 26 19 11 45 118 219 162 107 97 465 904 1268 1431 1250 1155 1138 1118 1234 1278 1908 2180 2480 2582 2715 2780 2724 2818 2801
0 0 0 0 0 0 0 0 0 0 0 0 0 0 8 24 11 0 0 0 0 75 200 350 526 399 138 98 944 1670 1624 1574 1493 1390 1455 1497 1854 2375 2537 2693 2749 2928 2945 2957
0 0 0 0 0 1 0 0 0 0 0 0 0 0 0 0 0 0 0 0 0 1 190 447 737 843 1008 680 34 627 1711 2054 1990 1983 1761 1745 1726 1861 2274 2532 2715 2780 2930 2981
0 0 0 0 0 1 0 0 0 0 0 0 0 0 0 0 0 0 0 0 0 0 84 524 1351 1879 2142 1421 229 1 64 403 983 2119 2164 2364 2396 2257 2382 2501 2585 2779 2853 2998
0 0 0 0 0 0 0 0 0 0 0 0 0 0 0 0 0 0 0 0 0 0 0 3 748 1628 2506 2892 1638 1283 2217 2022 1902 769 942 2195 2463 2594 2741 2733 2720 2831 3022 3114
0 0 0 0 0 0 0 0 0 0 0 0 0 0 0 0 0 0 0 0 0 0 0 0 21 844 1686 2384 2669 2789 2742 2735 2760 2150 1449 1757 1790 2149 2489 2721 2782 2887 3044 3155
2 0 2 0 0 0 0 0 0 0 0 0 0 0 0 0 0 0 0 0 0 0 0 0 0 0 579 1708 1840 1594 1399 1754 2538 2823 3107 2307 1880 1988 2170 1985 2110 2910 3071 3076
3 2 3 1 0 1 0 0 0 0 0 0 0 0 0 0 0 0 0 0 0 0 0 0 0 0 0 829 1696 1661 1402 1119 1009 1893 2691 3169 3406 3154 2779 1849 1270 119 673 1538

GFSCGP_con_mlcape_051.txt.gz
CAPE
0 0 0 0 0 0 0 0 0 0 0 24 57 35 274 347 360 248 178 151 182 154 103 63 96 72 49 0 0 0 0 8 72 57 216 213 142 207 358 498 739 741 974 692
0 0 0 0 0 0 0 0 0 0 0 0 30 32 164 347 279 341 246 159 182 146 130 59 96 82 50 0 0 0 0 0 35 47 260 96 9 38 103 243 599 622 910 1020
0 0 0 0 0 0 0 0 0 0 0 0 22 53 10 386 437 430 294 163 205 180 117 86 88 128 53 28 0 0 0 0 13 36 85 70 34 21 42 92 258 497 692 804
0 0 0 0 0 0 0 0 0 0 0 0 0 0 13 79 360 414 386 269 197 219 162 133 105 123 112 2 3 0 0 0 0 51 92 55 1 0 0 0 76 343 717 807
0 0 0 0 0 0 0 0 0 0 0 0 0 0 0 39 178 262 326 373 291 262 223 178 139 133 127 22 18 0 0 0 0 58 36 0 0 0 0 0 0 192 570 824
0 0 0 0 0 0 0 0 0 0 0 0 0 0 0 0 24 76 201 372 365 361 327 310 215 201 154 59 29 0 0 0 0 17 11 0 14 0 0 0 0 5 311 658
0 0 0 0 0 0 0 0 0 0 0 0 0 0 0 0 0 0 51 309 346 342 341 295 291 257 282 163 54 22 20 33 0 18 31 0 19 0 0 0 0 0 84 402
0 0 0 0 0 0 0 0 0 0 0 0 0 0 0 0 0 7 54 192 240 151 112 340 220 316 333 255 90 61 61 68 48 33 47 63 35 8 15 0 0 93 150 258
0 0 0 0 0 0 0 0 0 0 0 0 0 0 0 0 0 0 2 114 79 112 108 137 293 228 220 225 147 130 119 174 116 54 101 141 123 95 59 32 9 0 74 241
0 0 0 0 0 0 0 0 0 0 0 0 0 0 0 0 0 0 0 72 130 103 102 177 302 213 136 162 175 100 134 210 209 130 171 207 201 189 193 117 50 7 72 134
0 0 0 0 0 0 0 0 0 0 0 0 0 0 0 0 0 0 0 6 67 132 151 144 195 269 184 128 254 192 131 163 244 317 260 259 311 311 332 300 235 196 100 95
2 0 0 0 0 0 0 0 0 0 0 0 0 0 0 0 0 0 0 0 9 91 232 279 110 249 238 137 206 310 235 179 188 327 352 365 433 500 539 435 334 261 269 303
0 1 0 0 0 0 0 0 0 0 0 0 0 0 0 0 0 0 0 0 0 78 249 330 215 270 285 221 161 358 448 382 280 288 481 553 479 403 454 810 862 490 359 345
0 0 0 0 0 0 0 0 0 0 0 0 0 0 0 0 0 0 0 0 0 0 86 336 336 320 346 289 216 334 525 562 508 468 467 610 713 680 527 456 664 922 778 604
0 0 0 0 0 0 0 0 0 0 0 0 0 0 0 0 0 0 0 0 0 0 1 199 373 383 370 328 247 419 489 690 680 634 681 655 795 928 982 873 624 599 898 881
0 0 0 0 0 0 0 0 0 0 0 0 0 0 0 0 0 0 0 0 0 0 5 144 367 451 433 410 340 435 580 693 870 822 784 811 853 1008 1151 1167 1106 929 783 981
0 0 0 0 0 0 0 0 0 0 0 0 0 0 0 0 0 1 2 0 0 0 30 182 293 504 557 499 430 462 657 762 1051 1057 1044 1089 1138 1126 1260 1469 1557 1429 1194 1107
0 0 0 0 0 0 0 0 0 0 0 0 0 0 22 25 26 34 5 20 15 0 110 226 389 673 650 601 532 466 642 845 1067 1325 1374 1470 1513 1533 1521 1573 1717 1803 1771 1569
0 0 0 0 0 0 0 0 0 0 0 0 0 0 4 36 64 67 0 7 42 88 283 429 664 818 797 826 706 603 675 820 1090 1258 1503 1663 1737 1722 1893 1879 1813 1926 2023 2083
0 0 0 0 0 0 0 0 0 0 0 0 0 0 0 0 0 0 0 0 43 219 370 524 667 808 1009 984 912 807 784 855 979 1151 1450 1680 1788 1900 1949 2049 2083 2141 2306 2262
0 0 0 2 0 1 0 0 0 0 0 0 0 0 0 0 0 0 0 0 0 12 542 978 1068 824 674 739 1154 1158 1070 1143 1080 988 1103 1327 1767 1879 2166 2253 2355 2436 2496 2556
0 0 0 0 0 0 0 0 0 0 0 0 0 0 0 0 0 0 0 0 0 1 351 844 1413 1259 369 362 1112 1268 1401 1149 1455 1380 1253 1279 1346 1738 2053 2234 2398 2556 2673 2735
0 0 0 0 0 3 0 0 0 0 0 0 0 0 0 0 0 0 0 0 0 0 0 60 918 1886 2086 2141 1826 1570 1824 1613 1201 1620 1959 1951 1742 1686 1655 2028 2236 2448 2615 2648
0 0 0 0 0 0 0 0 0 0 0 0 0 0 0 0 0 0 0 0 0 0 0 0 53 593 1249 1518 1566 1792 2187 2534 2522 2392 2095 1810 1938 2243 2377 2238 2235 2315 2507 2639
2 1 0 0 0 0 0 0 0 0 0 0 0 0 0 0 0 0 0 0 0 0 0 0 0 0 125 1098 1393 1252 1150 792 961 1951 2393 2607 2795 2219 1989 1952 2075 2651 2723 2674
3 0 0 0 0 2 0 0 0 0 0 0 0 0 0 0 0 0 0 0 0 0 0 0 0 0 0 2 989 1212 1144 1000 660 406 611 1734 2127 2937 2651 1908 1008 15 432 1050

GFSCGP_con_mlcape_054.txt.gz
CAPE
0 0 0 0 0 0 0 0 0 0 0 0 13 63 184 201 119 29 0 0 0 0 0 56 64 99 129 87 40 17 0 0 0 0 6 34 66 152 207 141 408 481 574 593
0 0 0 0 0 0 0 0 0 0 0 0 0 15 195 222 176 156 115 51 19 4 0 28 58 61 100 28 11 15 0 0 0 0 0 17 108 69 208 276 537 674 683 834
0 0 0 0 0 0 0 0 0 0 0 0 0 0 68 270 284 143 97 81 71 87 80 24 28 61 43 48 0 0 9 0 0 0 2 10 7 9 37 136 357 565 683 917
0 0 0 0 0 0 0 0 0 0 0 0 0 0 0 120 139 200 177 147 87 84 102 78 39 46 37 15 0 0 0 0 0 0 0 26 135 102 23 43 100 395 579 730
0 0 0 0 0 0 0 0 0 0 0 0 0 0 0 9 28 120 223 178 157 88 89 107 79 45 50 0 0 0 0 0 0 0 0 0 0 0 0 0 0 126 349 599
0 0 0 0 0 0 0 0 0 0 0 0 0 0 0 0 0 131 244 264 228 159 121 128 89 50 25 0 0 0 0 0 0 0 0 0 0 0 0 0 0 0 121 339
0 0 0 0 0 0 0 0 0 0 0 0 0 0 0 0 0 18 47 188 288 269 159 121 111 74 44 27 3 0 0 0 0 0 0 0 0 0 0 0 0 0 0 120
0 0 0 0 0 0 0 0 0 0 0 0 0 0 0 0 0 9 80 194 237 312 250 185 114 123 90 68 47 27 0 0 0 0 0 0 0 0 0 0 0 0 0 0
0 0 0 0 0 0 0 0 0 0 0 0 0 0 0 0 0 0 2 50 122 266 265 257 259 182 145 100 45 38 3 0 9 7 0 0 0 0 0 0 0 0 0 0
0 0 0 0 0 0 0 0 0 0 0 0 0 0 0 0 0 0 0 0 18 190 253 240 255 247 214 160 114 16 22 0 21 5 10 20 10 0 0 0 0 0 0 0
0 0 0 0 0 0 0 0 0 0 0 0 0 0 0 0 0 0 0 0 33 143 225 130 78 175 185 225 188 72 36 7 0 31 56 61 81 38 23 0 5 3 0 0
0 2 0 0 0 0 0 0 0 0 0 0 0 0 0 0 0 0 0 0 17 49 101 142 120 84 105 184 220 123 75 56 72 91 104 131 144 120 59 50 49 20 17 0
0 1 0 0 0 0 0 0 0 0 0 0 0 0 0 0 0 0 0 0 0 0 62 119 115 127 156 82 129 126 90 104 142 202 211 217 212 192 112 117 133 111 119 108
4 0 0 0 0 0 0 0 0 0 0 0 0 0 0 0 0 0 0 0 0 5 49 87 106 113 216 112 89 129 113 89 124 188 301 305 304 273 232 246 255 169 170 236
0 0 0 0 0 0 0 0 0 0 0 0 0 0 0 0 0 0 0 0 0 0 0 42 90 124 136 177 80 169 180 135 128 172 331 383 360 337 317 395 517 594 322 261
0 0 0 0 0 0 0 0 0 0 0 0 0 0 0 0 0 0 0 0 0 0 0 0 6 139 166 195 181 216 331 339 299 256 305 381 450 431 397 337 351 496 722 673
0 0 4 0 0 0 0 0 0 0 0 0 0 0 0 0 0 0 0 0 0 0 0 0 0 57 207 264 263 297 405 471 502 459 409 403 470 614 645 667 630 485 449 646
0 0 2 0 0 0 0 0 0 0 0 0 0 0 0 0 0 0 0 0 0 0 0 0 0 127 241 298 319 331 410 518 582 581 600 647 663 675 808 944 931 915 834 660
0 0 0 0 0 0 0 0 0 0 0 0 0 0 0 0 0 0 0 0 0 0 11 54 80 255 297 318 318 360 498 557 719 761 812 850 881 886 947 1043 1148 1215 1251 1183
0 0 0 0 0 0 3 0 0 0 0 0 0 0 0 0 0 0 0 0 0 0 125 305 182 280 382 363 350 414 566 663 812 957 1051 1145 1152 1189 1214 1184 1242 1425 1546 1544
0 0 0 0 0 1 1 0 0 0 0 0 0 0 0 0 0 0 0 0 0 0 38 626 437 398 477 484 455 507 596 747 859 1046 1289 1402 1476 1465 1506 1565 1668 1715 1784 1899
0 0 0 0 0 0 0 0 0 0 0 0 0 0 0 0 0 0 0 0 0 9 28 153 924 907 524 544 654 661 706 637 711 908 1191 1353 1492 1698 1774 1792 1922 2054 2076 2130
0 1 0 0 0 2 0 1 0 0 0 0 0 0 0 0 0 0 0 0 0 0 3 51 292 1026 1091 1107 903 968 898 834 857 902 1043 1147 1457 1670 1871 1926 2011 2167 2323 2402
0 2 1 0 0 4 0 0 0 0 0 0 0 0 0 0 0 0 0 0 0 0 0 0 6 104 491 919 1412 1870 2016 1542 1475 1564 1456 1314 1265 1345 1636 1949 2095 2238 2383 2497
1 1 1 0 1 4 1 0 0 0 0 0 0 0 0 0 0 0 0 0 0 0 0 0 0 0 0 156 715 792 690 989 2030 2381 2477 2387 2046 1977 1978 1742 1700 2134 2287 2338
4 0 0 0 0 0 4 6 0 0 0 0 0 0 0 0 0 0 0 0 0 0 0 0 0 0 0 0 4 364 723 684 446 546 840 1586 1956 2721 2209 1592 1189 162 500 875

GFSCGP_con_mlcape_057.txt.gz
CAPE
0 0 0 0 0 0 0 0 0 0 1 40 61 43 249 272 137 113 64 30 19 1 0 8 62 147 230 352 242 178 62 24 0 0 23 72 104 227 340 593 763 924 940 1071
0 0 0 0 0 0 0 0 0 0 0 1 21 33 205 317 227 148 82 42 22 3 0 10 69 89 158 271 294 160 82 22 0 0 109 305 426 516 813 861 801 1070 1034 1211
0 0 0 0 0 0 0 0 0 0 0 0 0 5 20 352 391 272 43 7 4 5 6 19 64 80 102 191 310 230 186 177 0 60 189 216 346 322 446 693 886 969 1202 1325
0 0 0 0 0 0 0 0 0 0 0 0 0 0 0 124 219 279 265 134 3 0 0 0 40 70 98 207 179 186 257 243 129 49 90 72 166 299 450 635 723 1009 1188 1262
0 0 0 0 0 0 0 0 0 0 0 0 0 0 0 18 191 233 384 321 233 112 14 8 13 33 68 77 121 46 127 200 171 95 108 146 215 359 547 412 531 803 1036 1195
0 0 0 0 0 0 0 0 0 0 0 0 0 0 0 0 9 204 484 480 379 276 234 215 83 34 0 25 68 0 13 61 117 138 81 95 144 245 303 313 315 428 773 1014
0 0 0 0 0 0 0 0 0 0 0 0 0 0 0 0 0 50 182 269 423 425 292 294 261 126 55 60 53 28 0 40 83 136 111 65 117 165 82 227 208 232 388 751
0 0 0 0 0 0 0 0 0 0 0 0 0 0 0 0 0 0 99 196 398 504 399 348 339 251 138 128 134 67 42 60 46 80 166 170 164 162 142 213 170 184 131 303
0 0 0 0 0 0 0 0 0 0 0 0 0 0 0 0 0 0 0 154 310 497 490 414 412 309 206 145 204 132 130 89 72 58 150 230 227 218 197 201 222 188 174 105
0 0 0 0 0 0 0 0 0 0 0 0 0 0 0 0 0 0 0 31 117 338 533 532 455 420 244 166 176 168 150 111 135 83 123 210 235 289 269 299 155 191 219 124
0 0 0 0 0 0 0 0 0 0 0 0 0 0 0 0 0 0 0 0 21 113 261 483 589 517 393 220 243 226 143 183 177 136 138 183 266 326 339 293 307 279 243 271
0 0 0 0 0 0 0 0 0 0 0 0 0 0 0 0 0 0 0 0 2 46 177 382 533 551 490 423 332 269 228 233 205 202 159 142 266 326 344 315 360 394 301 315
1 1 0 0 0 0 0 0 0 0 0 0 0 0 0 0 0 0 0 0 0 51 229 384 442 497 535 596 507 449 327 264 291 261 206 200 248 327 361 422 444 463 408 370
4 0 0 0 0 0 0 0 0 0 0 0 0 0 0 0 0 0 0 0 0 0 58 229 314 357 460 567 640 610 468 352 315 298 311 345 358 357 451 527 541 565 524 430
1 0 0 0 0 0 0 0 0 0 0 0 0 0 0 0 0 0 0 0 0 0 0 31 139 195 289 421 595 698 593 434 393 425 464 493 511 539 600 703 694 697 672 577
2 0 0 0 0 0 0 0 0 0 0 0 0 0 0 0 0 0 0 0 0 0 0 0 151 213 265 443 382 563 598 493 497 546 613 662 687 698 737 777 821 820 691 633
1 0 0 0 0 0 0 0 0 0 0 0 0 0 0 0 0 0 0 0 0 0 0 7 4 169 261 393 448 417 529 577 532 572 639 778 841 815 826 875 953 1015 932 956
1 0 5 0 0 0 0 0 0 0 0 0 0 0 0 3 0 0 0 0 0 0 0 2 52 25 438 368 508 478 605 655 594 567 586 787 900 894 931 949 947 946 1086 1172
1 7 4 1 5 1 76 0 0 0 0 0 0 0 0 0 0 0 0 0 0 0 0 5 96 125 0 481 558 647 780 842 765 644 686 773 925 1001 1107 1093 1091 1075 1037 1018
1 14 4 0 0 3 3 2 0 2 0 0 0 0 0 0 0 0 0 0 0 0 1 290 778 294 4 551 701 773 898 980 876 875 898 984 976 1002 1121 1234 1299 1396 1403 1357
3 6 0 4 5 0 2 1 0 3 0 0 0 0 0 0 0 0 0 0 0 1 5 996 488 542 631 738 794 865 993 960 1099 1258 1256 1269 1271 1295 1327 1414 1587 1754 1799 1857
3 3 0 0 2 0 1 0 3 0 0 0 0 0 0 0 0 0 0 0 0 0 0 288 993 645 829 706 761 856 983 1235 1376 1464 1429 1480 1458 1438 1655 1701 1825 1897 2033 2096
0 0 0 0 0 1 7 4 7 3 0 0 0 0 0 0 0 0 0 0 0 0 0 0 259 599 1211 1106 1031 1058 1213 1311 1260 1372 1461 1576 1770 1842 1974 2106 2179 2226 2340 2327
0 3 0 0 2 4 7 3 11 8 0 0 0 0 0 0 0 0 0 0 0 0 0 0 0 0 209 868 1127 1474 1559 1264 1226 1336 1566 1819 1987 2119 2294 2429 2459 2500 2608 2632
1 1 0 0 3 3 0 12 9 8 2 0 0 0 0 0 0 0 0 0 0 0 0 0 0 0 0 5 245 729 1087 2167 1886 1597 1565 1666 1851 1999 2392 2435 2463 2604 2741 2765
3 1 0 0 5 8 3 3 4 3 6 5 2 0 0 1 0 0 0 0 0 0 0 0 0 0 0 0 0 1 169 905 1247 1721 2076 1963 2586 1997 2146 2246 1342 490 751 893

GFSCGP_con_mlcape_060.txt.gz
CAPE
0 0 0 0 0 0 0 0 0 0 141 218 292 283 634 488 530 508 506 347 202 156 139 68 32 18 0 0 139 184 55 87 140 68 44 138 249 537 777 863 1234 1576 1465 1653
0 0 0 0 0 0 0 0 0 0 3 152 252 211 216 646 439 534 553 476 264 205 129 63 115 61 0 12 46 215 181 181 273 0 19 39 291 513 671 983 1370 1603 1611 1742
0 0 0 0 0 0 0 0 0 0 0 1 165 216 183 314 578 501 489 490 353 234 207 84 134 75 45 57 148 215 344 256 305 0 0 455 657 892 1097 1139 1054 1424 1683 1768
0 0 0 0 0 0 0 0 0 0 0 0 19 113 100 148 541 565 479 458 419 291 206 148 123 127 78 95 201 313 451 454 392 77 0 440 472 225 228 564 560 968 1665 1681
0 0 0 0 0 0 0 0 0 0 0 0 0 39 77 121 233 599 582 451 368 326 226 144 154 237 125 92 194 437 617 694 491 402 56 209 345 0 179 429 886 1227 1783 1802
0 0 0 0 0 0 0 0 0 0 0 0 0 0 0 33 83 186 554 537 474 317 236 190 140 202 251 166 114 363 779 918 887 782 298 215 201 116 144 583 715 733 845 1304
0 0 0 0 0 0 0 0 0 0 0 0 0 0 0 15 78 85 218 503 576 561 353 203 143 117 276 264 249 326 655 999 962 842 603 189 285 570 530 760 529 420 374 605
0 0 0 0 0 0 0 0 0 0 0 0 0 0 0 0 1 6 100 387 660 716 640 574 329 176 131 273 290 342 460 875 894 801 942 618 704 439 608 752 495 483 287 297
0 0 0 0 0 0 0 0 0 0 0 0 0 0 0 0 0 0 1 114 208 398 581 646 723 673 426 232 358 440 615 757 781 658 1094 1081 906 674 385 621 714 550 634 347
0 0 0 0 0 0 0 0 0 0 0 0 0 0 0 0 0 0 0 0 61 192 521 647 755 812 750 476 379 429 516 735 681 595 894 899 807 940 771 750 861 840 582 761
0 0 0 0 0 0 0 0 3 0 0 0 0 0 0 0 0 0 0 0 1 187 561 668 747 777 842 692 430 505 539 626 704 658 770 726 716 772 993 853 1016 1165 1025 866
0 0 0 0 0 0 0 10 0 11 0 0 0 0 0 0 0 0 0 0 0 17 187 565 644 720 803 824 602 470 553 609 663 730 978 846 894 844 740 984 1021 1192 1279 1164
0 0 0 0 0 0 0 0 3 15 14 1 0 0 0 0 0 0 0 0 0 13 48 245 458 677 822 873 780 569 559 576 564 696 706 714 805 820 819 986 1115 1254 1355 1423
0 0 0 0 0 0 0 9 20 0 6 2 6 6 0 0 0 0 0 0 0 13 77 170 389 511 871 941 1053 929 668 554 543 595 636 767 850 833 845 1106 1294 1282 1464 1561
6 1 4 0 0 0 0 0 0 0 0 3 5 12 23 0 0 0 0 0 0 0 0 57 312 566 934 1098 1259 1196 898 811 699 937 736 903 1145 1078 1071 1244 1412 1441 1524 1586
26 12 3 0 0 0 0 0 0 0 0 0 0 0 13 5 0 0 0 0 0 3 18 0 154 399 765 1034 1337 1485 1362 1145 1012 1213 1124 1159 1416 1356 1367 1444 1580 1675 1636 1633
29 17 23 3 0 0 0 0 0 0 0 0 0 0 0 2 0 0 0 0 0 0 15 81 135 130 341 757 1049 1371 1561 1386 1288 1417 1397 1423 1626 1723 1671 1632 1709 1719 1671 1757
28 41 22 9 14 0 0 0 7 0 0 0 0 0 0 0 25 0 0 0 0 0 0 26 71 148 191 384 538 1098 1274 1557 1549 1634 1625 1661 1780 1812 1942 1983 1965 1946 1884 1902
15 39 14 14 12 0 2 25 5 6 0 28 0 0 0 0 89 148 0 0 0 1 52 128 195 258 350 375 478 816 1083 1427 1488 1678 1739 1800 1931 1883 1910 2003 2060 2054 2033 2060
16 34 36 11 9 5 57 0 0 0 41 0 0 0 0 0 0 10 0 0 0 30 122 265 505 872 944 884 424 695 1087 1216 1588 1646 1752 1916 2021 2045 2011 2085 2116 2153 2068 2091
41 41 1 18 17 5 1 0 0 38 24 2 2 0 0 3 0 0 0 0 0 0 8 340 1220 1504 1314 1219 450 913 1176 1233 1579 1483 1462 1756 1936 2114 2120 2242 2257 2254 2123 1999
0 11 12 13 12 2 1 0 0 0 1 1 1 1 0 0 0 0 0 0 0 0 0 182 1518 1467 1100 633 410 1384 1508 1525 1581 1583 1566 1911 1958 1849 1957 2406 2458 2414 2440 2471
6 27 14 19 3 4 2 5 2 0 5 9 3 8 1 0 0 0 0 0 0 0 0 0 261 1529 1658 1212 1065 1490 1747 1705 1844 1855 2014 2087 2147 2121 2098 2349 2580 2544 2659 2495
0 1 1 0 1 1 5 6 25 16 9 20 4 9 1 1 0 0 0 0 0 0 0 0 0 0 733 1565 1798 1655 1768 1863 1990 2169 2274 2327 2439 2429 2245 2522 2654 2574 2558 2592
1 1 0 0 2 5 8 6 11 14 31 19 15 15 6 5 1 0 0 0 0 0 0 0 0 0 0 42 375 1422 2104 1991 2139 2293 2430 2564 2634 2498 2720 2688 2579 2777 2748 2607
3 1 0 1 5 6 7 6 4 2 3 2 1 1 0 1 1 0 0 0 0 0 0 0 0 0 0 0 0 3 591 2277 2090 2142 2166 2266 2388 2755 2760 2834 2593 1081 1158 1235

GFSCGP_con_mlcape_063.txt.gz
CAPE
0 0 0 0 0 0 0 0 0 0 187 147 157 223 0 522 506 673 610 305 318 320 281 130 60 26 1 0 0 25 62 394 275 364 251 208 406 496 736 782 1243 1306 1452 1548
0 0 0 0 0 0 0 0 0 0 19 136 146 192 346 395 434 595 655 472 326 372 307 151 83 25 9 8 55 141 194 503 359 215 209 180 334 432 470 444 1145 1364 1248 1608
0 0 0 0 0 0 0 0 0 0 0 84 149 95 160 150 377 510 656 686 287 353 391 258 144 47 23 33 85 302 421 539 503 159 160 200 342 597 459 851 984 1322 1482 1656
0 0 0 0 0 0 0 0 0 0 0 0 30 74 31 34 388 428 605 715 610 243 378 400 315 175 79 31 69 337 529 661 635 334 0 198 279 250 269 572 460 935 1406 1505
0 0 0 0 0 0 0 0 0 0 0 0 0 2 105 108 327 327 529 663 659 510 305 358 367 352 166 38 101 123 701 836 560 505 154 116 484 134 186 255 1065 1007 1578 1516
0 0 0 0 0 0 0 0 0 0 0 0 0 2 24 7 62 320 484 568 624 602 463 376 331 371 311 124 93 288 764 1076 1064 851 160 518 321 432 24 89 892 519 1161 1290
0 0 0 0 0 0 0 0 0 0 0 0 0 0 0 69 39 52 353 490 554 559 566 474 355 291 407 328 229 383 928 1290 1281 1186 463 567 751 466 775 726 476 349 174 327
0 0 0 0 0 0 0 0 0 0 0 0 0 0 0 0 37 57 6 399 483 522 514 555 484 369 466 499 491 513 960 1530 1524 1211 968 514 779 210 224 615 409 281 112 151
0 0 0 0 0 0 0 0 0 0 0 0 0 0 0 0 0 18 0 198 302 498 541 508 575 501 501 574 681 628 840 1510 1662 1126 1493 1523 848 249 43 531 909 990 555 316
0 0 0 0 0 0 0 0 0 0 0 0 0 0 0 0 0 0 2 44 84 329 590 681 693 561 500 576 609 728 898 1550 1552 1335 1557 1509 1283 1041 691 1123 1569 943 929 829
0 0 0 0 0 0 0 0 0 4 0 0 0 0 0 0 0 0 0 0 103 544 512 632 733 864 629 516 581 676 850 1132 1295 1449 1490 1223 1303 931 953 1475 1510 1411 1296 1446
0 0 0 0 0 0 0 0 0 19 4 0 0 0 0 0 0 0 0 0 0 35 324 491 631 863 974 964 708 625 659 763 1121 1267 1461 1339 1505 1041 1015 1210 1358 1719 1814 1754
0 0 0 0 0 0 0 0 9 3 0 22 0 0 0 0 0 0 0 0 0 16 174 439 556 728 900 1110 1133 811 649 638 762 1232 1200 1357 1402 1459 1051 1513 1454 1653 1940 2082
0 0 5 0 0 0 0 0 3 24 12 4 3 11 0 0 0 0 0 0 0 4 87 172 374 542 817 1059 1425 1292 856 679 671 815 898 1103 1409 1424 1237 1392 1674 1725 2003 2181
0 7 3 0 0 0 0 0 7 14 43 29 2 5 13 1 0 18 2 8 15 20 37 70 103 377 1153 1307 1652 1528 1082 968 784 926 853 1104 1516 1493 1475 1298 1709 1833 2103 2239
24 14 19 7 0 0 0 0 0 0 0 0 0 0 0 2 0 13 0 14 99 54 3 0 138 443 735 1114 1877 1786 1516 1282 1023 1168 956 1007 1504 1648 1606 1523 1715 2006 2147 2310
115 59 20 22 23 9 0 0 0 0 0 0 0 0 0 0 1 51 88 156 18 2 9 34 79 241 547 998 1440 1665 1827 1524 1361 1496 1321 1257 1526 1699 1740 1729 1852 2059 2272 2497
60 68 45 36 26 29 0 0 0 1 0 0 0 0 0 0 0 0 180 55 34 65 72 82 115 129 272 565 968 1422 1728 1848 1810 1578 2096 1615 1860 2048 2093 2097 2104 2281 2467 2455
26 49 46 27 14 5 8 142 137 107 34 0 2 0 0 0 0 0 81 16 37 165 289 315 299 269 232 264 431 919 1442 2162 1982 2308 1892 2247 2122 2264 2441 2397 2468 2582 2683 2710
21 50 21 20 20 11 15 103 37 88 10 246 72 70 73 29 16 8 14 0 0 0 104 274 525 693 740 725 615 517 1095 1578 2226 2420 2348 2373 2377 2613 2749 2766 2736 2830 2958 2885
54 48 17 9 18 26 9 65 7 37 27 7 8 6 70 53 128 8 0 0 0 0 0 0 273 1557 1690 1504 1056 810 834 1466 2067 2315 2446 2717 2655 2766 2969 3051 3123 3151 3093 2489
5 57 42 25 35 19 249 86 1 28 0 4 1 0 0 0 0 0 0 0 0 0 0 0 7 846 2687 1931 1660 1743 1128 1775 1946 2175 2345 2643 2878 2676 2768 3092 3242 3279 3235 3044
2 13 52 58 38 160 160 43 20 10 6 0 13 0 2 0 2 0 0 0 0 0 0 0 0 2 227 1604 1679 1936 1672 2277 2105 2274 2407 2579 2816 2970 2748 3088 3284 3102 3119 2657
2 2 2 2 21 1 1 6 0 3 14 0 13 9 5 8 8 0 0 0 0 0 0 0 1 2 0 0 264 1210 2441 2287 2486 2468 2693 2688 2784 2895 2834 2863 3021 2810 2610 2740
1 0 0 0 0 0 0 8 2 2 4 7 10 5 3 2 5 4 1 0 1 7 2 0 3 4 3 0 1 0 527 1907 2244 2592 2608 2721 2621 2619 2784 2745 2713 2613 2478 2283
2 0 0 0 4 4 6 5 2 2 4 2 0 0 0 0 2 0 7 1 7 10 6 0 0 0 0 0 1 0 1 475 2179 2419 2580 2561 2565 2704 2618 2691 2325 1186 1676 1342

GFSCGP_con_mlcape_066.txt.gz
CAPE
0 0 0 0 0 0 0 0 0 0 0 28 34 90 54 69 80 151 246 428 257 191 290 198 84 0 17 5 0 0 195 645 516 714 730 511 401 572 372 553 1194 1531 1497 1503
0 0 0 0 0 0 0 0 0 0 0 56 167 30 1 0 3 26 258 324 382 254 165 159 98 0 5 6 0 151 122 680 406 935 692 373 572 534 526 743 1444 1139 1475 1663
0 0 0 0 0 0 0 0 0 0 0 52 59 48 27 0 0 78 404 212 330 351 252 153 88 19 2 0 46 199 161 731 448 582 429 519 705 968 570 1458 1349 1433 1323 1601
0 0 0 0 0 0 0 0 0 0 0 0 7 82 0 8 90 5 11 285 271 356 296 203 96 54 0 46 238 230 510 1007 372 563 203 298 301 379 371 1203 1277 1183 1637 1651
0 0 0 0 0 0 0 0 0 0 0 0 0 1 59 98 4 0 0 255 155 246 292 237 111 87 0 118 245 396 518 940 551 366 582 361 302 387 907 350 1169 1442 1487 1763
0 0 0 0 0 0 0 0 0 0 0 0 0 0 0 157 9 0 0 90 175 86 257 389 191 123 34 98 180 536 551 702 728 267 475 446 166 750 414 267 1011 1612 1591 1598
0 0 0 0 0 0 0 0 0 0 0 0 0 0 0 13 92 0 0 254 359 261 231 456 449 336 177 61 166 352 684 660 805 725 168 946 231 369 867 821 1040 739 1457 1138
0 0 0 0 0 0 0 0 0 0 0 0 0 0 0 0 153 102 44 86 18 468 392 420 550 563 419 262 133 299 796 834 880 1135 238 374 957 332 588 1091 369 993 409 948
0 0 0 0 0 0 0 0 0 0 0 0 0 0 0 0 0 280 75 1 0 31 525 509 599 563 732 542 304 391 746 1004 1182 940 1175 212 1056 953 397 616 872 652 671 841
0 0 0 0 0 0 0 0 0 0 0 0 0 0 0 0 0 0 117 42 90 72 28 140 670 623 749 719 667 465 823 1156 1392 1165 1400 1042 266 910 627 138 906 781 871 346
0 0 0 0 0 0 0 0 0 0 0 0 0 0 0 0 0 0 159 61 0 0 0 72 9 747 654 748 862 756 752 1341 1645 1649 1363 1278 1056 591 376 650 220 1090 812 1787
0 0 0 0 0 0 0 0 0 0 0 0 0 0 0 0 1 0 0 102 103 9 21 0 0 52 725 732 774 966 909 1164 1669 1849 1634 1470 1650 1116 804 192 1173 1671 1944 1273
0 0 0 0 0 0 0 0 0 0 0 0 0 0 0 0 0 0 0 0 113 294 1 2 53 411 677 730 816 892 968 934 1555 1879 1821 1687 1567 1637 1245 654 839 1608 1352 1730
0 0 0 0 0 0 0 0 0 0 0 0 0 0 0 0 0 1 0 3 3 262 204 265 572 739 863 856 769 841 904 997 1095 1671 1749 1770 1743 1663 1444 1361 632 1427 1989 1688
0 0 0 0 0 0 0 0 0 0 0 0 0 0 0 1 0 0 19 51 0 0 67 120 504 91 295 1331 1095 949 891 852 977 1134 1446 1704 1816 1717 1741 1381 1504 1218 1325 1845
18 13 10 1 0 0 0 0 0 0 0 0 0 0 0 0 1 0 20 197 173 299 194 243 107 558 1134 1418 1548 1503 1190 1072 881 899 1251 1460 1652 1752 1765 1687 1598 1753 1691 1937
55 76 23 4 7 3 0 0 0 0 0 0 0 0 0 0 0 0 20 139 166 167 147 110 54 115 612 312 1384 1853 1625 1338 1132 1062 1195 1288 1603 1652 1739 1876 1555 1839 1854 1956
35 45 51 1 20 6 0 0 0 0 0 0 0 0 0 0 0 0 0 0 18 67 101 162 105 64 49 134 57 2243 2000 1635 1683 1234 1491 1378 1490 1599 1854 1754 1859 1559 1953 1980
29 51 32 24 3 0 0 4 118 108 27 0 110 4 0 0 0 7 88 54 0 37 27 76 177 266 407 617 622 553 2253 1934 1667 1984 1450 1790 1399 1770 1878 1986 1925 1899 1909 2227
99 53 33 23 0 6 1 56 21 11 0 112 51 26 65 60 1 36 49 6 0 3 0 0 0 18 557 994 843 658 592 2435 1939 1672 2090 2000 1689 1807 1996 2061 2091 2108 2145 2194
31 46 12 42 23 6 114 66 27 9 20 35 1 0 2 7 60 74 0 0 0 0 0 0 0 1 233 607 1172 1058 872 914 2589 2134 1859 2278 2570 1947 2326 2417 2457 2451 2437 2548
27 16 23 36 11 3 218 109 55 19 0 0 0 0 2 0 1 0 0 0 0 0 0 0 0 0 9 4 110 1187 1697 1054 1285 2687 2300 2563 2324 2822 2582 2788 2940 2844 2930 2895
21 2 4 49 27 97 47 1 0 4 4 2 2 0 1 9 3 1 0 0 0 0 0 0 2 1 0 1 4 137 1519 2198 1223 1736 2647 2512 3079 2753 2837 3062 3175 3270 3164 3131
0 0 0 0 10 0 0 1 6 1 4 7 5 7 8 15 8 6 2 0 0 2 0 0 1 0 0 0 3 4 57 647 2530 1354 3021 2708 3098 3134 3002 2978 3231 3328 3247 3253
0 0 0 0 1 0 0 4 2 1 0 2 0 2 0 0 0 0 3 3 6 3 2 1 2 0 0 0 0 4 5 120 1925 2897 3020 2924 3012 3025 3203 2823 3244 3292 3246 3223
3 0 0 0 2 3 1 5 3 2 2 1 2 0 0 0 0 0 0 1 8 10 7 9 6 0 0 0 0 4 4 5 890 3120 3092 3045 2838 2978 3001 3007 2670 1623 2405 2234

GFSCGP_con_mlcape_069.txt.gz
CAPE
0 0 0 0 0 0 0 0 0 0 0 0 154 261 93 8 5 308 261 142 20 130 217 120 4 0 0 12 0 0 10 136 111 125 11 378 467 289 675 1156 1107 1260 1267 545
0 0 0 0 0 0 0 0 0 0 0 18 201 276 116 18 138 129 14 212 57 157 240 110 14 4 0 3 0 0 25 141 333 339 215 319 320 415 321 358 854 1162 1400 891
0 0 0 0 0 0 0 0 0 0 0 27 176 190 81 34 11 6 130 35 116 136 189 230 33 2 0 0 0 0 219 178 279 328 184 346 639 491 511 472 716 1092 1518 1343
0 0 0 0 0 0 0 0 0 0 0 0 36 22 113 62 28 8 144 48 63 94 122 243 63 0 0 0 0 0 265 191 264 216 47 176 181 468 328 560 1138 1098 1071 1363
0 0 0 0 0 0 0 0 0 0 0 0 0 0 22 69 26 14 61 37 31 80 57 117 130 0 4 0 0 0 224 292 109 493 43 49 110 196 475 654 945 1188 1185 1273
0 0 0 0 0 0 0 0 0 0 0 0 0 0 0 33 24 3 23 0 81 100 71 145 140 54 3 9 0 37 117 240 105 55 325 0 22 41 488 641 854 835 1379 1489
0 0 0 0 0 0 0 0 0 0 0 0 0 0 0 0 112 0 0 1 46 43 232 212 187 87 2 8 40 0 84 248 160 41 186 174 22 1 443 558 491 972 925 1176
0 0 0 0 0 0 0 0 0 0 0 0 0 0 0 0 94 66 24 2 9 240 189 169 238 147 94 93 165 122 101 209 259 29 9 179 217 4 199 802 1004 975 946 983
0 0 0 0 0 0 0 0 0 0 0 0 0 0 0 0 33 144 57 11 224 337 239 69 187 262 158 154 126 279 219 161 354 146 0 50 345 2 62 282 886 911 732 1048
0 0 0 0 0 0 0 0 0 0 0 0 0 0 0 0 0 129 72 202 191 254 114 209 235 240 217 169 205 215 445 267 408 393 93 0 178 260 25 104 332 981 366 760
0 0 0 0 0 0 0 0 0 0 0 0 0 0 0 0 0 39 216 266 90 41 27 202 196 159 148 134 194 216 562 487 488 380 510 37 0 431 274 185 116 598 597 776
0 0 0 0 0 0 0 0 0 0 0 0 0 0 0 0 0 5 208 373 251 234 301 5 13 4 88 189 310 215 356 657 631 573 622 643 28 78 310 252 21 195 492 622
0 0 0 0 0 0 0 0 0 0 0 0 0 0 0 0 0 1 35 220 262 238 318 169 67 0 0 28 52 400 374 773 815 946 603 889 767 30 141 66 120 5 338 432
0 0 0 0 0 0 0 0 0 0 0 0 0 0 0 0 0 0 0 98 249 317 263 205 45 7 2 54 157 603 469 728 1077 1111 1160 861 911 873 141 66 1 390 229 1059
0 0 0 0 0 0 0 0 0 0 0 0 0 0 0 0 0 0 7 196 245 345 217 215 35 46 112 110 422 414 731 666 1149 1465 1424 1305 1108 1058 1139 555 320 3 853 524
0 0 0 0 0 0 0 0 0 0 0 0 0 0 0 0 0 0 0 4 24 71 174 242 118 66 371 234 126 210 519 866 815 1445 1681 1575 1397 1270 1206 1214 976 401 129 1484
0 0 0 0 0 0 0 0 0 0 0 0 0 0 0 0 0 0 5 25 31 0 2 1 5 143 74 9 14 0 88 827 980 1014 1548 1615 1582 1496 1349 1327 1131 1072 579 448
0 1 15 0 6 0 0 0 0 0 0 0 0 0 0 0 0 0 15 0 3 0 0 21 0 0 84 16 0 153 423 603 776 982 1193 1492 1559 1522 1489 1429 1375 1194 1206 902
0 4 1 13 12 0 0 0 11 13 0 10 0 0 0 0 0 0 0 0 0 0 0 0 11 0 2 119 155 16 24 377 360 873 1135 1290 1466 1501 1533 1382 1436 1419 1398 1505
0 7 23 4 7 0 3 107 80 33 0 0 0 0 0 0 0 0 0 0 0 0 0 0 0 0 0 0 0 452 0 0 137 719 1444 1276 1293 1467 1364 1496 1415 1587 1399 1313
0 0 0 10 12 0 56 103 68 4 0 0 0 0 0 0 0 0 0 0 0 0 0 0 0 0 0 0 0 3 108 179 685 972 1610 1480 1367 1381 1416 1433 1542 1476 1585 1458
3 2 0 0 5 2 2 46 54 2 0 0 0 0 0 0 0 0 0 0 0 0 0 0 0 0 0 0 2 1 0 0 25 624 1779 1936 1777 1482 1650 1527 1665 1679 1644 1658
1 0 0 1 19 2 0 0 0 0 0 0 0 3 2 0 0 0 0 0 0 0 0 0 0 0 0 0 0 0 4 4 0 291 1267 1969 2224 1878 1752 1840 1772 1859 1880 1849
2 0 0 0 0 0 2 1 1 0 0 0 1 2 2 7 0 5 0 0 0 0 0 0 0 0 0 0 0 0 1 4 4 252 1182 2128 2218 2531 2063 2298 2112 2143 2136 2177
0 0 0 0 0 0 1 0 2 0 3 2 3 8 4 0 0 2 8 0 0 0 8 0 1 0 0 0 0 0 0 3 2 14 911 2373 2359 2609 2651 2619 2644 2452 2545 2508
0 0 0 0 1 2 0 0 3 0 3 2 8 3 2 1 1 1 2 0 3 1 7 3 0 0 0 0 0 0 0 1 6 3 774 2192 2665 2928 2919 2693 2117 1229 1970 2581

GFSCGP_con_mlcape_072.txt.gz
CAPE
0 0 0 0 0 0 0 0 0 0 0 0 30 220 178 218 91 277 232 138 21 27 129 19 0 10 2 0 0 105 136 103 20 189 136 264 410 591 882 713 651 929 847 352
0 0 0 0 0 0 0 0 0 0 0 0 116 202 176 153 194 299 287 189 122 90 117 156 1 0 12 0 0 0 33 39 28 127 63 186 323 447 594 742 842 964 789 36
0 0 0 0 0 0 0 0 0 0 0 59 178 201 123 38 224 379 371 187 124 104 72 171 5 20 9 0 0 0 0 0 89 91 40 206 264 283 591 586 647 981 1075 483
0 0 0 0 0 0 0 0 0 0 0 0 64 23 71 60 102 325 383 59 56 126 97 236 2 9 25 0 0 0 57 46 59 78 43 156 371 290 271 311 356 798 1256 898
0 0 0 0 0 0 0 0 0 0 0 0 0 0 0 47 70 103 398 42 181 141 184 247 37 0 31 3 0 53 81 105 166 109 36 139 178 396 249 330 523 666 1025 1212
0 0 0 0 0 0 0 0 0 0 0 0 0 0 0 0 12 51 367 351 208 107 172 250 201 0 0 0 0 92 95 108 180 147 47 28 156 136 372 372 669 807 804 1028
0 0 0 0 0 0 0 0 0 0 0 0 0 0 0 0 0 80 142 293 195 128 204 226 191 31 0 0 0 29 80 93 169 171 90 0 50 84 282 462 617 784 990 1005
0 0 0 0 0 0 0 0 0 0 0 0 0 0 0 0 0 54 133 112 233 86 124 161 155 7 2 0 16 24 62 48 102 202 185 103 30 40 110 544 693 840 883 1004
0 0 0 0 0 0 0 0 0 0 0 0 0 0 0 0 0 10 99 128 212 121 214 249 209 65 47 8 19 53 85 63 51 66 83 124 135 63 54 504 820 758 699 763
0 0 0 0 0 0 0 0 0 0 0 0 0 0 0 0 0 0 113 113 152 268 252 271 330 216 108 53 8 0 92 101 100 57 32 13 58 176 64 77 396 1035 792 737
0 0 0 0 0 0 0 0 0 0 0 0 0 0 0 0 0 0 84 45 58 196 334 366 343 255 209 143 87 63 9 57 170 177 87 0 3 74 284 75 81 435 938 842
0 0 0 0 0 0 0 0 0 0 0 0 0 0 0 0 0 28 86 38 25 170 275 281 362 396 322 197 109 141 219 110 91 231 244 84 0 0 184 245 60 78 388 728
0 0 0 0 0 0 0 0 0 0 0 0 0 0 0 0 0 93 146 133 130 67 85 169 176 208 271 286 185 144 215 359 235 268 266 290 66 0 11 206 231 66 147 562
0 0 0 0 0 0 0 0 0 0 0 0 0 0 0 0 0 0 111 86 100 102 174 108 70 36 0 0 51 98 243 425 463 427 370 391 440 131 0 30 162 185 92 178
0 0 0 0 0 0 0 0 0 0 0 0 0 0 0 0 0 0 10 129 130 123 139 99 56 22 2 2 0 51 249 331 641 603 613 392 599 630 235 0 22 18 138 135
0 0 0 0 0 0 0 0 0 0 0 0 0 0 0 0 14 10 45 42 37 0 0 0 86 256 302 108 8 60 233 313 701 748 773 748 511 747 731 410 44 18 0 72
0 0 0 0 0 0 0 0 0 0 0 0 0 0 0 0 0 0 0 6 11 2 0 0 0 20 169 188 33 13 31 63 264 853 1035 1055 1005 786 807 915 593 307 123 0
0 0 0 0 0 0 0 0 0 0 1 0 0 0 0 0 0 0 0 0 0 0 0 0 0 0 1 27 3 71 30 119 159 221 816 1483 1411 1289 1086 986 1086 889 661 287
0 0 0 0 0 0 0 0 0 0 6 0 0 0 0 0 23 0 0 0 0 0 0 0 0 0 0 0 0 33 187 286 295 343 341 564 1661 1598 1422 1290 1195 1167 1051 818
0 0 0 0 0 0 0 5 45 12 25 0 0 0 0 0 0 0 0 0 0 0 0 0 0 0 0 0 0 0 52 123 23 117 282 262 362 1439 1599 1529 1409 1332 1183 1135
0 0 0 0 0 0 0 0 40 2 0 0 0 0 0 0 0 0 0 0 0 0 1 0 0 0 0 0 0 0 0 10 9 8 28 141 360 1251 1492 1581 1495 1441 1410 1251
0 0 0 0 0 0 0 0 0 1 0 0 0 0 0 0 0 0 0 0 0 0 0 0 0 0 0 0 0 0 0 1 1 1 5 51 239 1250 1340 1525 1521 1355 1364 1440
0 0 0 0 0 0 0 0 0 0 0 0 0 0 0 0 0 0 0 0 0 0 0 0 0 0 0 0 0 0 0 0 0 0 0 25 269 964 1391 1501 1463 1475 1377 1420
0 0 0 0 0 0 0 0 0 1 1 0 0 0 1 0 0 0 0 0 0 0 0 0 0 0 0 0 0 0 0 0 2 2 1 56 333 1020 1650 1412 1423 1416 1440 1383
0 0 0 0 0 0 0 0 0 2 2 1 5 0 2 1 1 0 0 0 0 0 0 1 0 0 0 0 0 0 0 0 2 0 0 44 226 856 1964 1543 1583 1547 1520 1506
0 0 0 0 0 0 0 0 2 4 1 3 3 6 4 3 0 1 1 0 0 0 2 10 1 0 0 0 0 0 0 0 2 0 0 3 69 536 2000 2186 1480 769 1082 1423

GFSCGP_con_mlcape_075.txt.gz
CAPE
0 0 0 0 0 0 0 0 0 0 0 0 0 0 159 80 283 244 145 77 39 49 45 0 0 1 6 22 92 22 148 141 337 244 260 226 253 420 608 680 705 579 742 459
0 0 0 0 0 0 0 0 0 0 0 0 11 0 146 150 116 416 245 99 47 50 56 2 0 3 0 9 30 91 165 92 264 203 282 261 297 414 565 695 828 820 755 400
0 0 0 0 0 0 0 0 0 0 0 68 56 67 182 224 256 272 393 253 72 14 37 0 0 0 0 0 0 66 40 39 87 163 189 230 333 421 583 660 715 899 891 152
0 0 0 0 0 0 0 0 0 0 0 0 79 0 92 62 108 136 329 390 229 53 46 19 0 0 0 0 0 0 68 47 39 83 115 148 308 338 488 450 667 939 1091 712
0 0 0 0 0 0 0 0 0 0 0 0 0 0 0 41 99 212 500 460 355 190 80 77 6 12 0 0 0 0 12 15 0 0 67 59 166 241 253 492 507 518 940 1128
0 0 0 0 0 0 0 0 0 0 0 0 0 0 0 0 0 42 343 372 443 198 170 78 11 1 0 0 0 0 0 0 0 0 11 28 47 159 287 273 363 452 718 1176
0 0 0 0 0 0 0 0 0 0 0 0 0 0 0 0 0 0 30 231 433 292 91 136 71 0 0 0 0 0 0 0 0 0 0 0 22 121 214 358 347 455 705 791
0 0 0 0 0 0 0 0 0 0 0 0 0 0 0 0 0 0 9 74 203 284 180 160 146 1 0 0 0 0 0 0 0 21 16 0 0 30 103 141 364 494 707 790
0 0 0 0 0 0 0 0 0 0 0 0 0 0 0 0 0 0 0 21 201 218 193 188 191 45 0 0 0 17 17 0 0 1 48 45 0 0 8 86 246 600 578 858
0 0 0 0 0 0 0 0 0 0 0 0 0 0 0 0 0 5 13 0 36 247 134 94 190 91 46 0 23 0 49 33 0 0 29 48 46 20 0 0 95 517 683 720
0 0 0 0 0 0 0 0 0 0 0 0 0 0 0 0 0 0 21 0 0 77 128 120 172 111 32 17 0 7 13 61 49 26 15 31 32 64 16 0 30 53 561 808
0 0 0 0 0 0 0 0 0 0 0 0 0 0 0 0 0 0 0 0 0 12 132 138 150 153 6 23 13 40 39 50 61 56 28 10 0 0 1 0 0 7 42 267
0 0 0 0 0 0 0 0 0 0 0 0 0 0 0 0 0 0 16 28 28 38 150 204 220 191 80 16 7 30 5 50 112 126 87 21 0 0 0 0 0 0 22 0
0 0 0 0 0 0 0 0 0 0 0 0 0 0 0 0 0 0 11 93 77 119 108 55 17 0 7 0 0 30 43 29 63 148 205 114 38 0 0 0 0 0 0 7
0 0 0 0 0 0 0 0 0 0 0 0 0 0 0 0 0 0 0 44 62 4 17 44 46 57 46 9 0 0 33 72 158 89 184 198 180 66 0 0 0 0 0 0
0 0 0 0 0 0 0 0 0 0 0 0 0 0 0 0 0 0 0 0 0 0 0 0 0 31 223 210 124 21 0 70 233 270 214 230 252 247 75 0 0 0 0 0
0 0 0 0 0 0 0 0 0 0 0 0 0 0 0 0 0 0 0 0 0 0 0 0 0 0 6 4 15 51 42 77 241 451 379 353 298 362 401 225 0 0 0 0
0 0 0 0 0 0 0 0 0 0 0 0 0 0 0 0 0 0 0 0 0 0 0 0 0 0 0 0 0 1 88 22 136 290 503 655 642 452 467 565 410 147 4 0
0 0 0 0 0 0 0 0 0 0 0 0 0 0 0 0 0 0 0 0 0 0 0 0 0 0 0 0 0 1 35 174 124 134 191 383 932 936 733 699 714 653 343 154
0 0 0 0 0 0 0 0 0 0 0 0 0 0 0 0 25 9 0 0 0 0 0 0 0 0 0 0 0 0 2 2 0 6 75 164 525 1275 1307 1086 948 887 845 694
0 0 0 0 0 0 0 0 0 0 0 0 0 0 0 0 0 0 0 0 0 0 0 0 0 0 0 0 0 0 0 0 3 3 0 0 5 90 415 916 1259 1241 1067 1044
0 0 0 0 0 0 0 0 0 0 0 0 0 0 0 0 0 0 0 0 0 0 0 0 0 0 0 0 0 0 0 0 1 1 3 1 0 5 126 716 1175 1384 1309 1200
0 0 0 0 0 0 0 0 0 0 0 0 0 0 0 0 0 0 0 0 0 0 0 0 0 0 0 0 0 0 0 0 0 1 1 0 0 1 105 511 1136 1383 1401 1441
0 0 0 0 0 0 0 0 0 0 0 0 0 0 1 1 0 2 0 0 0 0 0 0 0 0 0 0 0 0 0 0 0 0 0 0 0 1 91 428 1249 1351 1392 1462
0 0 0 0 0 0 0 0 1 1 0 1 2 2 0 1 0 4 1 0 0 0 0 0 0 0 0 0 0 0 0 0 0 0 0 0 0 1 6 117 1086 1382 1383 1440
0 0 0 0 0 0 0 0 0 0 3 5 2 4 4 6 6 7 4 5 0 0 0 0 0 2 0 0 0 0 0 0 0 0 0 0 0 0 2 65 1082 921 981 1232

GFSCGP_con_mlcape_078.txt.gz
CAPE
0 0 0 0 0 0 0 0 0 0 0 0 0 0 96 213 105 156 202 57 17 37 41 6 0 0 1 16 15 7 4 49 70 71 131 151 186 267 358 389 120 322 494 358
0 0 0 0 0 0 0 0 0 0 0 0 0 0 80 193 76 345 252 96 25 20 42 2 0 0 0 0 12 0 24 12 99 114 163 171 177 251 359 406 506 618 620 469
0 0 0 0 0 0 0 0 0 0 0 16 18 19 123 327 170 287 313 184 43 24 28 24 0 0 0 0 0 10 0 28 110 107 149 137 151 228 379 387 453 732 685 547
0 0 0 0 0 0 0 0 0 0 0 0 5 0 47 236 177 129 258 355 154 31 31 0 3 0 0 27 7 1 11 20 88 115 145 166 170 246 377 150 400 659 831 534
0 0 0 0 0 0 0 0 0 0 0 0 0 0 0 120 190 168 162 253 349 136 50 14 0 0 6 0 0 33 3 14 6 75 130 140 154 233 287 307 371 590 863 906
0 0 0 0 0 0 0 0 0 0 0 0 0 0 0 0 59 78 74 96 224 321 163 30 0 0 0 0 0 0 36 18 12 58 58 83 93 143 168 201 318 442 456 808
0 0 0 0 0 0 0 0 0 0 0 0 0 0 0 0 0 0 0 15 152 358 253 89 1 0 0 0 0 0 21 31 23 2 0 39 40 50 86 90 111 280 373 561
0 0 0 0 0 0 0 0 0 0 0 0 0 0 0 0 0 0 0 0 121 481 345 222 26 0 0 0 0 0 0 0 2 5 0 0 0 0 29 98 198 282 292 473
0 0 0 0 0 0 0 0 0 0 0 0 0 0 0 0 0 0 0 0 43 265 385 216 181 0 3 1 13 0 0 0 0 0 0 0 0 0 0 70 167 240 360 456
0 0 0 0 0 0 0 0 0 0 0 0 0 0 0 0 0 0 0 0 0 8 313 308 171 54 0 0 14 18 0 0 0 0 0 0 0 0 0 12 93 145 263 508
0 0 0 0 0 0 0 0 0 0 0 0 0 0 0 0 0 0 0 0 8 17 110 343 260 95 0 16 0 0 18 0 0 17 34 14 0 0 0 0 9 67 151 354
0 0 0 0 0 0 0 0 0 0 0 0 0 0 0 0 0 0 1 1 24 56 112 253 205 136 47 12 13 0 0 23 0 16 15 34 0 0 0 0 0 0 21 126
0 0 0 0 0 0 0 0 0 0 0 0 0 0 0 0 0 0 0 2 1 76 177 195 227 187 88 17 0 0 0 0 24 18 0 0 0 0 12 0 0 0 0 0
0 0 0 0 0 0 0 0 0 0 0 0 0 0 0 0 0 0 0 0 3 3 2 85 143 100 60 7 11 1 0 0 0 1 24 0 0 0 0 9 0 0 0 0
0 0 0 0 0 0 0 0 0 0 0 0 0 0 0 0 0 0 0 0 0 1 0 0 4 97 104 117 41 2 33 22 11 18 32 0 0 0 0 0 0 0 0 0
0 0 0 0 0 0 0 0 0 0 0 0 0 0 0 0 0 0 0 0 0 1 0 0 0 0 2 2 1 0 14 34 60 35 51 110 52 1 0 0 0 0 0 0
0 0 0 0 0 0 0 0 0 0 0 0 0 0 0 0 0 0 0 0 0 0 0 0 0 0 0 0 0 1 0 49 57 143 126 114 167 167 124 6 0 0 0 0
0 0 0 0 0 0 0 0 0 0 0 0 0 0 0 0 0 0 0 0 0 0 0 0 0 0 0 0 0 0 2 100 102 131 299 216 213 241 250 209 57 0 0 0
0 0 0 0 0 0 0 0 0 0 0 0 0 0 0 0 0 0 0 0 0 0 0 0 0 0 0 0 0 0 2 0 3 21 126 330 442 357 307 345 384 233 46 0
0 0 0 0 0 0 0 0 0 0 0 0 0 0 0 0 0 0 0 0 0 0 0 0 0 0 0 0 0 0 0 0 0 0 1 2 64 301 582 513 475 466 424 271
0 0 0 0 0 0 0 0 0 0 0 0 0 0 0 0 0 0 0 0 0 0 0 0 0 0 0 0 0 0 0 0 0 0 0 2 0 7 72 492 828 604 642 615
0 0 0 0 0 0 0 0 0 0 0 0 0 0 0 0 0 0 0 0 0 0 0 0 0 0 0 0 0 0 0 0 0 0 0 0 0 0 0 27 150 534 1003 964
0 0 0 0 0 0 0 0 0 0 0 0 0 0 0 0 0 0 0 0 0 0 0 0 0 0 0 0 0 0 0 0 0 0 0 0 0 0 0 0 26 158 598 1141
0 0 0 0 0 0 0 0 0 0 0 0 0 0 0 0 1 1 0 0 0 0 0 0 0 0 0 0 0 0 0 0 0 0 0 0 0 0 0 4 2 30 594 1206
0 0 0 0 0 0 0 0 0 0 0 0 1 0 1 2 2 2 0 0 0 0 0 0 0 0 0 0 0 0 0 0 0 0 0 0 0 0 0 0 0 15 151 1056
0 0 0 0 0 0 0 0 0 0 0 0 0 0 5 12 7 5 1 1 1 0 0 0 0 0 0 0 0 0 0 0 2 0 0 0 0 0 0 0 0 0 4 182

GFSCGP_con_mlcape_084.txt.gz
CAPE
0 0 0 0 0 12 18 50 19 207 246 19 0 128 640 810 651 287 184 158 74 4 11 153 158 39 0 0 0 135 272 366 530 614 548 778 880 1095 1118 1197 1264 1211 1306 1352
0 0 0 0 0 0 0 1 0 0 0 0 0 0 434 693 405 549 357 196 116 4 101 233 214 169 0 0 0 0 259 468 429 378 566 768 1017 1046 972 894 1443 1205 1290 1124
0 0 0 0 0 0 0 7 0 0 0 0 30 69 138 327 308 335 284 381 230 38 73 286 281 213 111 0 0 65 305 447 611 584 884 1322 1349 1472 1346 1275 1266 1263 1515 1411
0 0 0 0 0 0 0 4 0 0 0 31 34 201 360 236 361 444 464 388 521 277 118 166 294 290 220 53 1 120 356 486 637 869 840 950 662 619 733 977 1018 1432 1549 1496
0 0 0 0 0 0 5 0 0 0 0 0 0 51 164 300 296 425 355 500 523 404 328 236 268 287 222 230 117 57 397 613 602 902 957 933 839 594 749 714 1206 1350 1566 1519
0 0 0 0 0 0 0 0 0 0 0 0 0 21 7 34 87 84 95 172 503 586 561 409 335 311 276 226 288 286 404 779 963 1086 1284 1155 875 848 786 863 1033 1026 1134 1384
0 0 0 0 3 0 0 0 0 0 0 0 0 0 7 0 0 12 108 168 113 563 562 620 598 445 335 244 257 340 455 963 976 891 1067 1245 1319 1316 1030 830 545 841 960 1067
0 0 0 0 0 0 0 0 0 0 0 0 0 1 0 0 0 54 135 227 199 259 672 660 520 600 464 383 342 472 499 880 1055 963 973 1158 1358 1130 1019 770 352 794 884 1074
1 0 0 0 0 0 0 0 0 0 0 0 0 0 0 0 0 25 116 192 393 312 334 739 657 642 540 488 545 584 717 971 1066 1014 1042 1210 1361 1281 703 475 867 798 708 954
0 0 0 0 0 0 0 0 0 0 0 0 0 0 0 0 0 6 46 87 289 567 374 695 955 954 623 595 598 714 821 965 1117 992 961 1064 1226 1325 1201 960 857 822 521 1037
0 0 0 0 0 0 0 0 0 0 0 0 0 0 0 0 2 2 17 28 77 244 533 808 1089 1012 862 730 719 649 775 914 1149 1049 851 894 966 1056 1194 1013 925 841 890 1070
0 0 0 0 0 0 0 0 0 0 0 0 0 0 0 0 2 3 19 4 4 17 133 151 262 703 926 733 743 699 663 695 879 1038 1060 1013 1042 1042 908 993 790 771 950 936
0 0 0 0 0 0 0 0 0 0 0 0 0 0 0 6 6 12 8 1 0 1 1 1 35 61 107 230 571 736 737 697 683 763 786 903 983 1050 982 734 914 801 889 972
0 0 0 0 0 0 0 0 0 0 0 1 0 0 1 7 5 14 3 2 0 0 0 0 0 1 0 2 38 121 500 607 643 739 769 701 659 710 745 700 685 869 966 955
0 0 0 0 0 0 0 0 0 0 0 0 0 0 0 3 2 3 9 4 4 1 0 0 0 0 0 0 2 5 9 193 574 584 729 816 904 827 712 740 575 665 912 1035
0 0 0 0 0 0 0 0 0 0 0 0 0 0 0 2 4 1 0 0 1 2 3 2 0 0 0 0 0 0 5 5 22 528 789 740 880 909 1025 1071 981 795 830 1068
0 0 0 0 0 0 0 0 0 0 0 0 0 0 0 0 0 0 0 0 0 0 0 0 1 0 0 0 0 0 0 0 4 15 586 717 842 843 961 1017 1109 1143 992 829
0 0 0 0 0 0 0 0 0 0 0 0 0 0 0 0 0 0 0 0 0 0 0 0 0 0 0 0 0 0 0 0 0 0 1 2 110 625 956 985 1065 1045 1083 1050
0 0 0 0 0 0 0 0 0 0 0 0 0 0 0 0 0 1 0 0 0 0 0 0 0 0 0 0 0 0 0 0 0 0 0 0 3 4 126 879 1112 1206 1078 1115
0 0 0 0 0 0 0 0 0 0 0 0 0 0 0 0 0 0 0 0 0 0 0 0 0 0 0 0 0 0 0 0 0 0 0 0 0 4 3 67 623 917 1220 1107
0 0 0 0 0 0 0 0 0 0 0 0 0 0 0 0 0 0 0 0 0 0 0 0 0 0 0 0 0 0 0 0 0 0 0 0 0 0 2 1 4 469 953 1160
0 0 0 0 0 0 0 0 0 0 0 0 0 0 0 0 0 0 0 0 0 0 0 0 0 0 0 0 0 0 0 0 0 0 0 0 0 0 0 2 4 3 148 587
0 0 1 0 2 0 0 0 0 0 0 0 0 0 0 0 0 0 0 0 0 0 0 0 0 0 0 0 0 0 0 0 0 0 0 0 0 0 0 0 2 4 7 85
0 0 0 0 0 0 0 0 0 0 0 0 0 0 0 0 0 0 0 0 0 0 0 0 0 0 0 0 0 0 0 0 0 0 0 0 0 0 0 0 0 0 3 7
0 0 0 0 0 0 0 0 0 0 0 0 0 0 0 0 0 0 0 0 0 0 0 2 6 9 9 8 3 0 0 0 0 0 0 0 0 0 0 0 0 0 0 0
0 0 0 0 0 0 0 0 0 0 0 0 0 0 0 1 2 1 1 1 0 0 2 5 8 5 9 7 9 11 7 3 1 5 0 0 0 0 0 0 0 0 0 0

GFSCGP_con_mlcape_087.txt.gz
CAPE
0 0 0 0 0 0 73 97 32 89 195 287 213 243 640 140 391 293 238 107 70 57 69 4 32 10 0 3 154 305 289 345 515 521 485 899 950 1054 1080 1165 1397 1312 1404 1259
0 0 0 0 0 0 29 93 36 42 174 108 161 300 614 541 482 493 307 194 103 90 17 69 98 17 4 0 0 225 364 548 747 648 637 593 820 996 948 1192 1301 1398 1228 1321
0 0 0 0 0 0 40 141 61 32 3 4 12 248 498 557 756 549 454 292 164 100 15 165 205 114 25 4 0 146 360 585 555 449 753 886 1227 1214 812 1053 1031 1094 1293 1258
0 0 0 0 0 0 6 57 18 53 26 80 97 119 265 449 405 543 392 410 345 170 38 182 143 223 90 0 0 87 455 505 565 769 716 1036 589 582 834 935 1021 1383 1255 1491
0 0 0 0 0 0 1 93 27 1 0 17 57 47 11 587 638 545 632 551 506 287 135 177 220 166 177 15 0 184 520 653 618 829 1204 1007 1024 622 605 1003 1449 1442 1663 1438
0 0 0 0 0 0 9 47 19 3 2 23 19 114 32 252 238 215 461 611 706 604 301 239 302 298 327 58 29 155 611 900 852 1022 1242 1451 1037 803 909 880 780 861 995 1265
0 0 0 2 2 0 23 4 9 0 0 10 1 96 53 15 95 176 167 294 512 799 490 420 212 373 413 159 94 169 452 1076 1099 1083 1239 1387 1372 1121 1339 1307 860 937 828 1059
0 0 2 0 30 3 0 0 1 0 0 3 25 123 6 5 107 169 279 420 300 316 778 456 546 426 531 310 135 275 572 1001 1367 1228 1318 1605 1631 1212 737 967 912 412 964 894
3 2 0 0 0 0 5 0 0 11 25 19 33 0 35 52 75 142 156 390 927 350 797 731 859 399 394 407 248 270 577 1013 1458 1480 1427 1538 1731 1596 750 826 945 792 850 880
7 0 0 0 0 0 0 0 4 0 14 35 33 1 32 1 63 59 84 211 622 782 532 914 674 339 161 303 355 332 605 998 1515 1621 1544 1502 1574 1763 1449 941 863 759 956 796
0 0 0 0 0 0 0 0 3 32 1 61 14 71 8 8 80 76 34 12 106 393 647 926 523 213 213 757 577 566 723 947 1380 1603 1507 1414 1418 1580 1735 1438 1227 1035 984 1140
0 0 0 0 0 0 0 1 0 0 0 0 3 2 19 3 106 77 8 2 19 62 56 3 25 70 146 616 413 152 766 922 1134 1428 1569 1426 1307 1378 1400 1602 1454 1343 1278 1047
0 0 2 0 0 0 0 0 0 1 5 18 3 0 47 44 63 81 1 1 0 0 9 0 0 0 0 10 164 93 284 388 901 1146 1360 1505 1480 1419 1315 1322 1524 1401 1288 1286
0 0 3 0 0 0 0 0 0 0 0 8 112 67 109 34 21 12 5 0 0 0 0 0 0 0 0 1 3 6 14 145 465 691 975 1245 1390 1504 1476 1571 1489 1335 1416 1415
0 0 0 0 0 0 0 0 0 0 0 19 170 149 76 10 20 15 4 4 2 0 0 0 0 0 0 0 0 2 3 4 35 617 950 798 1333 1308 1305 1377 1464 1326 1374 1470
0 2 0 0 0 0 0 0 0 0 0 0 58 104 8 12 9 12 18 3 0 2 1 1 0 0 0 0 0 0 0 0 4 4 76 471 839 919 1273 1555 1403 1440 1148 1299
0 10 0 0 0 0 0 0 0 0 0 0 83 49 8 14 6 5 7 7 4 2 1 0 0 0 0 0 0 0 0 0 0 0 0 2 46 215 460 959 1270 1611 1724 1515
0 0 1 0 0 0 0 0 0 0 0 0 6 2 1 4 2 0 0 0 0 0 0 0 0 0 0 0 0 0 0 0 0 0 0 0 1 4 10 265 1064 1270 1329 1508
0 0 0 0 3 0 0 0 0 0 0 0 0 0 0 0 0 0 0 0 0 0 0 0 0 0 0 0 0 0 0 0 0 0 0 0 0 0 2 4 14 544 1099 1298
0 0 0 0 0 0 0 0 0 0 0 0 0 0 0 0 0 0 0 0 0 0 0 0 0 0 0 0 0 0 0 0 0 0 0 0 0 0 0 0 0 2 192 1014
0 0 0 0 0 7 0 0 0 0 0 0 0 0 0 0 0 0 0 0 0 0 0 0 0 0 0 0 0 0 0 0 0 0 0 0 0 0 0 0 0 0 2 50
0 0 0 0 6 0 0 0 0 0 0 0 0 0 0 0 0 0 0 0 0 0 0 0 0 0 0 0 0 0 0 0 0 0 0 0 0 0 0 0 0 0 0 0
7 20 33 17 67 6 0 0 0 0 0 0 0 0 0 0 0 0 0 0 0 0 0 0 0 0 0 0 0 0 0 0 0 0 0 0 0 0 0 0 0 0 0 5
0 0 0 0 0 0 0 0 0 0 0 0 0 0 0 0 0 0 0 0 0 0 0 0 0 0 0 0 0 2 0 0 0 0 0 0 0 0 0 0 0 0 0 0
0 1 0 0 2 0 0 0 0 0 0 0 0 0 0 0 0 0 0 0 0 0 0 0 0 0 0 0 1 4 5 6 2 0 0 0 0 0 0 0 0 0 0 0
0 0 0 0 0 0 0 0 0 0 0 0 0 0 0 0 0 0 0 1 1 1 1 1 1 1 2 0 3 7 3 6 20 12 0 0 0 0 0 0 0 0 0 0

GFSCGP_con_mlcape_090.txt.gz
CAPE
0 0 0 0 0 0 5 43 164 72 327 485 535 280 142 129 14 8 25 12 20 37 56 11 8 9 19 71 184 273 255 216 627 462 518 645 602 1044 960 486 597 1171 1148 1220
0 0 0 0 0 0 1 23 67 6 0 101 353 337 278 240 76 19 28 13 27 33 53 4 9 6 13 15 159 301 558 316 828 294 1034 846 1005 848 925 1102 1400 1247 1134 1231
0 0 0 0 0 0 0 0 57 14 14 7 115 145 327 230 596 258 161 85 46 27 32 5 38 17 6 7 128 309 756 347 640 824 718 345 204 67 609 1267 1399 1151 1104 1173
0 0 0 0 0 0 0 43 51 19 0 45 96 174 366 499 418 420 326 169 78 56 49 49 66 13 10 3 6 350 856 525 302 867 622 600 397 376 915 1010 1060 1152 1163 1096
0 0 0 0 0 0 0 102 1 12 5 6 2 100 129 0 385 467 456 346 109 38 50 66 100 84 25 9 0 355 602 1024 272 666 936 663 532 330 251 779 828 1270 1236 1401
0 0 0 0 0 0 0 3 27 10 0 1 0 13 195 38 2 402 411 346 306 218 33 118 89 86 113 1 0 236 708 929 1132 590 795 546 607 123 420 706 1018 1051 1292 1366
0 0 0 0 0 0 0 0 64 31 0 0 4 30 91 0 2 1 626 567 486 437 306 23 108 59 45 8 1 395 854 1049 975 1077 1114 1282 1032 1097 340 245 149 980 887 1194
0 11 0 0 0 0 0 1 67 18 12 1 0 158 25 0 82 72 635 488 56 11 591 203 117 167 142 144 67 355 851 1155 1102 1344 1330 1493 1361 1061 994 932 1257 204 1099 984
1 27 0 9 3 31 1 0 35 46 17 26 148 27 57 150 227 314 350 556 712 382 528 663 247 265 268 173 109 217 770 1120 1374 1364 1681 1782 1888 1559 533 646 482 1128 792 704
15 30 23 0 0 0 2 2 0 0 5 31 180 110 132 217 299 169 153 191 285 262 704 617 341 366 355 356 313 659 817 1189 1625 1633 1655 1865 2024 1909 1687 1408 898 1268 992 52
0 4 0 0 0 0 0 0 0 0 8 28 112 146 186 167 191 133 115 136 87 27 35 120 161 58 342 186 132 103 378 1291 1703 1895 1997 1831 1841 2064 2001 1673 1283 811 1100 898
0 1 3 0 0 0 0 9 3 0 0 34 0 64 69 95 166 90 6 22 1 0 0 2 1 41 52 21 20 58 174 401 1408 1921 2015 1982 1906 1906 2050 1888 1693 1486 1192 1175
0 0 36 0 0 0 0 0 0 0 1 7 4 58 96 212 113 25 3 1 0 1 0 1 1 1 2 2 9 20 4 55 260 789 1954 1931 1828 1937 1964 2114 1918 1954 1713 1547
0 0 0 1 8 0 0 0 0 0 0 16 80 127 181 97 58 35 1 0 0 0 0 0 0 0 0 0 3 3 9 28 64 116 777 974 1774 1638 1750 1905 1793 1891 1901 1698
0 0 0 0 0 0 0 0 0 0 0 275 272 197 204 40 5 7 4 2 0 0 0 0 0 0 0 0 0 0 0 2 1 4 18 187 344 1411 1939 2046 1924 1734 1875 1820
0 0 0 0 0 0 0 0 0 0 0 103 180 146 97 26 9 15 6 3 2 1 0 0 0 0 0 0 0 0 0 0 0 1 1 7 108 251 678 1032 1261 1528 1551 1510
0 0 0 0 0 0 0 0 0 0 0 384 165 37 40 45 0 7 7 2 1 0 0 0 0 0 0 0 0 0 0 0 0 0 0 0 2 4 37 183 691 1332 1369 1496
1 8 0 0 0 0 0 0 0 0 0 258 273 121 15 0 0 0 0 0 0 0 0 0 0 0 0 0 0 0 0 0 0 0 0 0 0 0 0 0 26 117 617 1317
0 0 0 0 0 0 0 0 0 0 0 97 194 11 1 0 0 0 0 0 0 0 0 0 0 0 0 0 0 0 0 0 0 0 0 0 0 0 0 0 0 0 3 159
0 0 0 3 3 0 0 0 0 0 0 1 12 16 0 0 0 0 0 0 0 0 0 0 0 0 0 0 0 0 0 0 0 0 0 0 0 0 0 0 0 0 0 4
0 0 0 0 9 34 0 0 0 0 20 1 0 0 0 0 0 0 0 0 0 0 0 0 0 0 0 0 0 0 0 0 0 0 0 0 0 0 0 0 0 0 0 0
4 0 0 0 11 33 0 0 0 1 16 0 0 0 0 0 0 0 0 0 0 0 0 0 0 0 0 0 0 0 0 0 0 0 0 0 0 0 0 0 0 0 0 0
35 30 96 64 112 8 0 0 0 0 0 0 0 0 0 0 0 0 0 0 0 0 0 0 0 0 0 0 0 0 0 0 0 0 0 0 0 0 0 0 0 0 0 0
8 0 18 72 91 47 0 1 0 0 0 0 0 0 0 0 0 0 0 0 0 0 0 0 0 0 0 0 0 0 0 0 0 0 0 0 0 0 0 0 0 0 0 0
52 10 0 4 4 3 0 0 0 0 0 0 0 0 0 0 0 0 0 0 0 0 0 0 0 0 2 0 0 0 1 0 2 0 0 0 0 0 0 0 0 0 0 0
2 0 18 0 0 8 10 0 0 0 0 0 0 0 0 0 0 0 0 0 0 0 0 0 0 0 1 2 4 1 1 1 1 4 0 0 0 0 0 0 0 0 0 0

GFSCGP_con_mlcape_093.txt.gz
CAPE
0 0 0 0 0 0 0 67 99 4 0 0 157 47 85 85 41 3 4 3 11 5 0 5 20 18 32 0 0 4 0 427 20 638 291 550 456 562 503 522 694 1118 857 446
0 0 0 0 0 0 0 0 136 83 24 5 68 130 91 105 47 13 9 4 5 0 1 0 7 11 27 0 0 182 0 73 0 351 513 591 614 758 697 478 624 982 959 836
0 0 0 0 0 0 0 0 52 39 23 14 47 44 181 141 67 61 51 33 7 4 0 0 0 0 5 0 0 279 70 142 382 206 446 358 319 147 504 715 920 1191 1117 1051
0 0 0 0 0 0 0 0 9 66 21 3 0 0 0 70 113 72 43 73 18 6 1 0 0 0 0 0 18 326 184 41 233 805 339 195 23 104 107 567 894 774 937 1191
0 0 0 0 0 0 0 12 211 119 40 120 78 2 4 63 76 51 37 180 80 26 14 3 1 0 0 0 54 229 269 134 0 472 525 203 45 221 315 633 932 926 907 1196
0 0 0 0 0 0 0 11 82 54 47 1 81 50 26 76 165 98 269 231 221 130 83 71 46 3 0 0 63 194 445 277 81 153 733 467 361 87 289 511 677 915 921 1072
0 0 0 0 0 0 0 0 0 36 15 0 0 150 25 68 88 69 166 51 306 187 118 131 91 51 16 18 104 170 368 497 366 197 520 417 411 181 414 456 397 641 930 1082
0 0 0 0 0 0 0 0 0 0 0 0 27 60 47 63 17 58 122 137 93 236 125 165 186 117 82 33 119 185 209 422 422 719 313 377 461 601 397 476 126 580 635 851
0 0 0 0 0 0 0 0 0 0 0 17 196 51 0 0 0 23 81 4 53 90 209 244 180 161 138 45 89 147 290 320 328 1191 622 670 765 335 720 729 866 624 858 1282
17 0 0 0 0 0 0 0 0 0 2 56 133 77 57 171 108 266 176 110 133 206 24 142 282 296 127 140 135 505 565 698 408 526 1085 1069 809 431 687 1070 1286 860 649 672
0 0 0 12 0 0 0 0 0 0 0 7 5 45 130 113 68 61 40 30 68 82 137 262 163 79 82 141 82 126 102 276 467 926 1058 1248 1076 1207 893 875 1091 1294 631 561
0 0 0 0 0 0 0 0 0 0 0 31 41 59 54 11 20 3 2 1 1 2 10 59 24 0 16 0 13 156 46 87 249 336 731 1381 1591 1460 1081 1058 1575 1110 837 782
0 0 1 2 0 0 0 0 0 0 0 19 11 42 139 3 40 2 1 1 0 1 1 2 1 0 0 0 41 41 0 26 74 92 282 971 1723 1816 1319 1396 1523 1660 1441 949
0 0 0 0 0 0 0 0 0 0 6 66 19 75 71 76 5 0 0 0 0 0 0 0 0 0 0 0 1 1 0 4 24 46 102 214 341 820 1488 1929 1829 1811 1778 1666
0 0 0 0 0 0 0 0 0 0 188 0 35 90 127 112 7 0 0 0 0 0 0 0 0 0 0 0 0 0 0 0 0 6 22 1 146 332 292 408 1412 1688 1658 1967
0 0 0 0 0 0 0 0 0 0 251 56 6 217 79 34 0 0 7 3 3 1 1 3 0 0 0 0 0 0 0 0 0 0 14 19 22 18 0 0 427 1424 1536 1663
0 0 0 0 0 0 0 0 0 0 214 131 130 205 38 2 0 0 1 0 0 0 0 0 0 0 0 0 0 0 0 0 0 0 0 0 0 0 8 20 148 344 597 1216
0 0 0 0 0 0 0 0 0 0 315 289 338 163 89 25 0 0 0 0 0 0 0 0 0 0 0 0 0 1 0 0 0 0 0 0 0 0 0 0 0 13 32 273
0 0 0 0 0 0 0 0 0 19 327 372 396 266 3 0 0 0 0 0 0 0 0 0 0 0 0 0 0 0 0 0 0 0 0 0 0 0 0 0 0 0 0 0
0 0 0 0 0 0 0 0 0 0 84 205 44 0 0 0 0 0 0 0 0 0 0 0 0 0 0 0 0 0 0 0 0 0 0 0 0 0 0 0 0 0 0 0
0 0 0 0 2 2 0 0 0 0 36 221 27 0 0 0 0 0 0 0 0 0 0 0 0 0 0 0 0 0 0 0 0 0 0 0 0 0 0 0 0 0 0 0
15 0 0 0 0 4 0 0 0 13 12 1 15 1 0 0 0 0 0 0 0 0 0 0 0 0 0 0 0 0 0 0 0 0 0 0 0 0 0 0 0 0 0 0
16 1 31 42 8 0 0 0 0 0 3 0 0 0 0 0 0 0 0 0 0 0 0 0 0 0 0 0 0 0 0 0 0 0 0 0 0 0 0 0 0 0 0 0
6 0 10 67 81 0 0 0 0 0 0 0 0 0 0 0 0 0 0 0 0 0 0 0 0 0 0 0 0 0 0 0 0 0 0 0 0 0 0 0 0 0 0 0
49 10 0 0 19 4 0 0 0 0 0 0 0 0 0 0 0 0 0 0 0 0 0 0 0 0 0 0 0 0 0 0 0 0 0 0 0 0 0 0 0 0 0 0
40 1 0 7 3 0 18 0 0 0 0 0 0 0 0 0 0 0 0 0 0 0 0 0 0 0 0 0 0 0 0 0 0 0 0 0 0 0 0 0 0 0 0 0

GFSCGP_con_mlcape_096.txt.gz
CAPE
0 0 0 0 0 0 0 0 29 81 164 0 91 148 132 150 129 18 11 7 18 25 25 22 67 65 29 0 0 0 60 288 555 441 431 328 327 428 584 734 822 989 745 238
0 0 0 0 0 0 0 0 42 106 32 19 12 218 174 182 73 93 2 2 2 22 31 41 79 56 0 26 0 0 96 163 327 407 387 499 425 510 453 488 479 939 492 130
0 0 0 0 0 0 0 0 5 88 17 0 0 11 49 213 157 44 29 16 4 7 7 58 100 42 0 0 5 49 148 128 55 461 344 411 320 254 530 518 536 898 839 852
0 0 0 0 0 0 0 0 1 123 82 37 2 0 28 37 105 79 90 61 6 6 2 43 103 110 54 98 93 0 48 50 134 230 377 288 267 311 306 524 634 818 1136 995
0 0 0 0 0 0 0 0 1 88 49 45 0 0 0 0 51 64 128 100 23 0 0 7 91 141 116 77 187 132 56 71 407 351 362 215 79 104 119 525 738 929 822 1141
0 0 0 0 0 0 0 0 196 109 42 9 12 48 1 0 29 53 132 80 101 43 3 1 45 119 148 138 215 171 94 47 269 545 511 214 135 224 345 488 546 709 825 1076
0 0 0 0 0 0 0 0 9 26 18 1 41 76 19 5 62 109 119 114 187 171 118 70 0 100 151 168 234 260 169 32 44 217 433 459 332 125 329 500 691 730 735 1025
0 0 0 0 0 0 0 0 0 5 35 7 71 2 13 123 367 144 273 198 127 178 156 27 28 25 115 155 227 319 216 132 204 135 303 526 468 364 236 499 532 541 598 934
0 0 0 0 0 0 0 0 0 0 0 2 18 22 14 26 155 188 211 121 119 169 216 138 106 43 62 114 194 234 289 251 184 292 218 403 518 433 411 401 404 231 531 784
0 0 0 0 0 0 0 0 0 0 0 1 25 62 30 9 71 141 100 29 52 146 283 311 212 135 92 84 226 251 364 392 424 600 456 345 431 343 172 427 648 810 714 913
0 0 0 0 0 0 0 0 0 0 0 0 18 85 185 28 99 91 72 90 85 68 105 122 211 234 180 112 145 192 185 294 383 526 567 428 550 604 252 328 1011 870 763 761
0 0 0 0 0 0 0 0 0 0 0 44 50 80 193 117 67 37 48 21 32 36 38 116 155 143 125 131 123 1 108 108 209 310 422 518 634 536 757 577 855 821 757 544
0 0 0 0 0 0 0 0 0 0 0 0 3 41 105 17 0 7 3 8 0 1 0 0 1 17 123 107 53 126 82 50 58 109 216 290 405 605 618 809 872 878 851 565
0 0 0 0 0 0 0 0 0 0 0 2 8 52 33 4 0 0 0 2 1 0 0 0 0 6 12 14 8 28 28 89 67 3 55 44 157 246 422 696 834 824 1071 883
0 0 0 0 0 0 0 0 0 0 0 0 123 71 45 1 1 0 0 0 0 0 0 0 0 0 0 0 0 3 14 51 42 72 11 12 32 93 0 6 148 608 967 1069
0 0 0 0 0 0 0 0 0 0 61 80 178 91 52 0 0 0 0 0 0 0 0 0 0 0 0 0 0 1 2 4 0 0 0 16 22 7 40 9 15 217 420 995
0 0 0 0 0 0 0 0 0 16 89 205 85 106 66 45 2 0 0 0 0 0 0 0 0 0 0 0 0 0 0 0 0 0 0 1 14 1 3 12 7 46 143 243
0 0 0 0 0 0 0 0 0 224 242 221 167 70 21 46 2 0 0 0 0 0 0 0 0 0 0 0 0 0 0 0 0 0 0 0 0 0 0 0 0 0 1 8
0 0 0 0 0 0 0 0 0 163 293 373 218 52 1 0 0 0 0 0 0 0 0 0 0 0 0 0 0 0 0 0 0 0 0 0 0 0 0 0 0 0 0 0
0 0 0 0 0 0 0 0 0 90 106 429 283 40 0 0 0 0 0 0 0 0 0 0 0 0 0 0 0 0 0 0 0 0 0 0 0 0 0 0 0 0 0 0
0 0 0 0 0 0 0 0 0 0 0 133 0 0 0 0 0 0 0 0 0 0 0 0 0 0 0 0 0 0 0 0 0 0 0 0 0 0 0 0 0 0 0 0
0 0 0 0 0 0 0 0 0 0 0 0 0 0 0 0 0 0 0 0 0 0 0 0 0 0 0 0 0 0 0 0 0 0 0 0 0 0 0 0 0 0 0 0
0 0 0 0 0 0 0 0 0 0 13 0 0 0 0 0 0 0 0 0 0 0 0 0 0 0 0 0 0 0 0 0 0 0 0 0 0 0 0 0 0 0 0 0
0 0 11 0 0 0 0 0 0 0 0 0 0 0 0 0 0 0 0 0 0 0 0 0 0 0 0 0 0 0 0 0 0 0 0 0 0 0 0 0 0 0 0 0
0 0 0 0 0 0 0 0 0 0 0 0 0 0 0 0 0 0 0 0 0 0 0 0 0 0 0 0 0 0 0 0 0 0 0 0 0 0 0 0 0 0 0 0
2 1 0 0 0 0 0 0 0 0 0 0 0 0 0 0 0 0 0 0 0 0 0 0 0 0 0 0 0 0 0 0 0 0 0 0 0 0 0 0 0 0 0 0

GFSCGP_con_mlcape_099.txt.gz
CAPE
0 0 0 0 0 0 0 0 0 63 54 32 93 89 0 35 33 0 0 2 16 63 146 145 159 235 154 81 191 183 280 510 269 275 206 157 194 384 487 780 750 735 581 446
0 0 0 0 0 0 0 0 0 120 9 40 66 94 40 91 45 8 0 4 9 71 151 163 113 177 144 70 113 137 123 392 234 195 231 258 290 322 402 518 664 809 654 228
0 0 0 0 0 0 0 0 0 77 72 48 33 33 108 32 53 29 8 0 12 54 86 168 131 147 148 66 54 36 122 283 267 323 355 258 215 314 436 482 409 650 553 363
0 0 0 0 0 0 0 0 0 1 14 9 0 6 12 78 101 45 38 0 4 14 97 159 144 135 146 70 52 71 92 16 239 281 276 249 239 118 213 377 398 692 812 794
0 0 0 0 0 0 0 0 1 18 34 20 0 0 0 3 42 70 26 32 0 1 48 107 126 132 120 107 50 72 106 87 132 219 270 235 183 199 153 341 517 624 821 909
0 0 0 0 0 0 0 1 101 52 54 1 0 0 0 2 27 66 58 59 9 0 9 121 127 103 96 158 83 124 121 101 118 149 194 218 182 33 183 192 385 507 760 673
0 0 0 0 0 0 0 0 0 0 20 0 1 13 0 0 0 59 86 60 19 0 10 53 93 94 82 169 153 103 102 85 211 253 234 301 80 197 177 303 391 447 567 719
0 0 0 0 0 0 0 0 0 0 0 0 10 6 0 32 16 65 85 141 124 28 25 0 39 125 151 136 241 179 119 89 148 318 317 310 252 174 188 384 478 523 569 645
0 0 0 0 0 0 0 0 0 0 0 0 15 0 0 94 114 126 101 151 151 105 83 75 2 107 144 156 218 227 132 92 87 124 256 340 340 358 248 279 424 556 545 563
0 0 0 0 0 0 0 0 0 0 0 0 0 0 7 105 217 151 105 103 42 122 191 178 68 13 58 143 223 455 196 196 150 182 130 223 400 443 412 318 395 376 276 372
0 0 0 0 0 0 0 0 0 0 0 0 0 0 199 39 113 78 81 51 29 38 111 214 173 109 41 145 216 258 332 194 310 392 377 304 345 393 414 301 338 673 720 688
0 0 0 0 0 0 0 0 0 0 0 0 0 0 171 60 70 60 66 36 26 43 57 95 170 135 53 96 177 168 156 145 144 314 489 548 579 519 520 484 298 605 815 702
0 0 0 6 0 0 0 0 0 0 0 6 0 5 180 106 63 51 2 0 11 0 1 24 66 60 97 123 94 97 21 64 47 82 187 301 334 457 577 679 631 572 724 570
0 0 0 0 0 0 0 0 0 0 0 0 0 43 196 125 33 21 2 1 0 0 0 0 1 10 73 139 90 150 117 43 47 78 31 31 54 7 51 195 362 533 755 650
0 0 0 0 0 0 0 0 0 0 0 0 8 20 122 82 11 0 0 1 0 1 0 1 0 0 14 40 49 55 47 36 113 115 34 8 52 41 17 6 35 199 380 728
0 0 0 0 0 0 0 0 0 0 0 0 69 116 111 32 1 0 1 1 0 0 0 0 0 0 0 0 1 0 0 9 28 60 84 52 31 33 14 10 14 11 24 197
0 0 0 0 0 0 0 0 0 32 163 76 41 46 122 73 59 30 0 0 0 0 0 0 0 0 0 0 0 1 2 1 1 2 1 0 0 0 4 0 0 0 0 14
0 0 0 0 0 0 0 0 91 219 345 259 129 100 101 66 13 7 0 0 0 0 0 0 0 0 0 0 0 0 0 0 0 0 0 0 1 0 0 0 0 0 0 0
0 0 0 0 0 0 0 0 0 37 185 311 161 110 68 13 0 0 0 0 0 0 0 0 0 0 0 0 0 0 0 0 0 0 0 0 0 0 0 0 0 0 0 0
0 0 0 0 0 0 0 0 0 14 10 381 245 175 2 0 3 0 0 0 0 0 0 0 0 0 0 0 0 0 0 0 0 0 0 0 0 0 0 0 0 0 0 0
0 0 0 0 0 0 0 0 0 0 0 269 249 6 0 0 0 0 0 0 0 0 0 0 0 0 0 0 0 0 0 0 0 0 0 0 0 0 0 0 0 0 0 0
0 0 0 0 0 0 0 0 0 0 32 290 119 0 0 0 0 0 0 0 0 0 0 0 0 0 0 0 0 0 0 0 0 0 0 0 0 0 0 0 0 0 0 0
0 0 0 0 0 0 0 0 0 0 91 34 4 0 0 0 0 0 0 0 0 0 0 0 0 0 0 0 0 0 0 0 0 0 0 0 0 0 0 0 0 0 0 0
0 0 0 0 0 0 0 0 0 0 0 0 0 0 0 0 0 0 0 0 0 0 0 0 0 0 0 0 0 0 0 0 0 0 0 0 0 0 0 0 0 0 0 0
0 0 0 0 0 0 0 0 0 0 0 0 0 0 0 0 0 0 0 0 0 0 0 0 0 0 0 0 0 0 0 0 0 0 0 0 0 0 0 0 0 0 0 0
0 0 0 0 0 0 0 0 0 0 0 0 0 0 0 0 0 0 0 0 0 0 0 0 0 0 0 0 0 0 0 0 0 0 0 0 0 0 0 0 0 0 0 0

GFSCGP_con_mlcape_102.txt.gz
CAPE
0 0 0 0 0 0 0 0 147 72 140 44 59 50 0 25 1 4 34 43 27 80 123 146 165 160 172 202 253 262 248 245 207 218 143 111 169 488 527 622 521 455 633 582
0 0 0 0 0 0 0 0 86 100 1 44 29 43 3 18 5 10 0 30 45 76 98 148 132 167 163 178 214 201 182 258 192 178 155 125 159 294 396 480 652 662 569 294
0 0 0 0 0 0 0 0 23 71 50 23 41 49 40 31 28 5 0 2 34 66 73 111 130 154 151 139 156 144 220 296 167 187 176 156 173 228 311 385 430 631 468 157
0 0 0 0 0 0 0 0 0 39 18 1 16 0 52 32 33 47 1 1 7 38 109 85 131 145 127 100 101 117 131 266 158 178 195 164 128 123 321 353 350 409 644 666
0 0 0 0 0 0 0 0 0 6 1 13 2 0 0 93 56 17 5 13 0 13 93 89 109 132 85 69 0 59 35 141 180 207 235 193 176 133 97 298 415 512 698 870
0 0 0 0 0 0 0 0 0 34 26 0 0 0 0 4 40 35 6 0 0 1 64 117 111 98 75 31 0 0 0 100 169 155 142 173 197 182 197 190 385 398 624 648
0 0 0 0 0 0 0 0 0 1 11 0 0 0 0 0 0 41 76 3 0 0 31 103 81 68 71 97 19 6 0 0 12 105 118 139 167 135 57 159 258 331 514 598
0 0 0 0 0 0 0 0 0 0 0 0 0 0 0 0 15 22 89 57 0 0 23 70 97 86 83 117 84 52 18 60 96 85 85 114 139 101 116 199 235 355 363 513
0 0 0 0 0 0 0 0 0 0 0 15 16 9 0 18 7 51 124 82 4 0 0 23 64 97 69 55 141 118 96 78 110 168 175 197 170 205 175 139 209 353 449 496
0 0 0 0 0 0 0 0 0 0 0 0 0 0 0 36 56 38 152 126 85 25 0 17 1 32 85 82 110 237 107 82 76 182 274 259 257 241 267 294 321 326 362 366
0 0 0 0 0 0 0 0 0 0 0 0 0 0 119 66 166 78 94 124 132 172 114 96 50 7 51 52 71 178 161 130 67 115 105 128 174 250 351 368 259 299 390 495
0 0 0 0 0 0 0 0 0 0 0 0 0 0 97 135 199 149 108 76 52 65 114 253 241 69 4 53 86 171 206 159 122 206 218 217 232 300 269 292 325 272 344 498
0 0 0 3 0 0 0 0 0 0 0 0 0 0 147 194 168 80 82 78 34 33 18 70 183 137 49 125 91 73 57 53 63 89 147 225 228 312 203 250 327 464 508 525
0 0 0 4 0 0 0 0 0 0 0 0 0 0 143 160 112 83 64 11 17 23 8 15 40 83 129 107 50 0 20 20 0 21 8 18 0 0 7 28 87 188 448 569
0 0 0 0 0 0 0 0 0 0 0 0 12 5 104 194 116 57 13 6 18 4 0 1 0 2 34 55 47 75 61 126 85 65 27 21 27 0 0 0 0 1 79 215
0 0 0 0 0 0 0 0 0 0 0 0 26 49 178 176 55 28 21 1 0 0 0 1 1 2 1 1 27 32 28 24 84 93 83 35 8 14 0 0 0 0 0 0
0 0 0 0 0 0 0 0 7 0 85 74 0 53 221 96 53 42 9 0 0 1 0 2 2 2 3 3 1 1 2 1 1 7 3 1 14 1 0 0 0 0 0 0
0 0 0 0 0 4 0 0 14 257 214 242 169 211 201 92 1 0 0 0 0 0 0 0 0 0 0 0 0 0 0 0 0 0 0 1 3 0 0 0 0 0 0 0
0 0 0 0 0 0 0 0 0 0 158 307 188 180 99 11 0 0 0 0 0 0 0 0 0 0 0 0 0 0 0 0 0 0 0 0 0 0 0 0 0 0 0 0
0 0 0 0 0 0 0 0 0 0 0 314 297 225 69 52 66 0 0 0 0 0 0 0 0 0 0 0 0 0 0 0 0 0 0 0 0 0 0 0 0 0 0 0
0 0 0 0 0 0 0 0 0 0 0 355 358 191 70 116 31 0 0 0 0 0 0 0 0 0 0 0 0 0 0 0 0 0 0 0 0 0 0 0 0 0 0 0
0 0 0 0 0 0 0 0 0 0 0 448 296 56 22 0 0 0 0 0 0 0 0 0 0 0 0 0 0 0 0 0 0 0 0 0 0 0 0 0 0 0 0 0
0 0 0 0 0 0 0 0 0 0 0 155 198 0 0 0 0 0 0 0 0 0 0 0 0 0 0 0 0 0 0 0 0 0 0 0 0 0 0 0 0 0 0 0
0 0 0 0 0 0 0 0 0 0 0 0 0 0 0 0 0 0 0 0 0 0 0 0 0 0 0 0 0 0 0 0 0 0 0 0 0 0 0 0 0 0 0 0
0 0 0 0 0 0 0 0 0 0 0 0 0 0 0 0 0 0 0 0 0 0 0 0 0 0 0 0 0 0 0 0 0 0 0 0 0 0 0 0 0 0 0 0
0 0 0 0 0 0 0 0 0 0 0 0 0 0 0 0 0 0 0 0 0 0 0 0 0 0 0 0 0 0 0 0 0 0 0 0 0 0 0 0 0 0 0 0

GFSCGP_con_mlcape_105.txt.gz
CAPE
0 0 0 0 0 0 0 0 46 206 113 111 120 135 26 0 23 84 100 71 139 122 192 216 243 279 245 307 374 397 601 808 667 528 500 533 524 870 795 887 860 826 1302 1090
0 0 0 0 0 0 83 102 101 109 29 29 6 52 117 48 43 101 105 141 115 108 137 221 234 253 240 277 410 514 573 697 573 616 491 508 643 662 800 1059 928 1203 1170 999
0 0 0 0 0 0 0 0 99 140 65 44 0 24 72 58 53 52 35 133 154 115 138 216 200 221 240 245 350 447 485 536 518 549 488 405 528 706 610 674 938 1207 1163 724
0 0 0 0 0 0 0 0 121 90 21 0 11 0 9 64 33 32 45 11 87 122 167 203 218 232 221 229 317 447 478 514 522 492 521 274 381 170 202 370 685 935 1072 917
0 0 0 0 0 0 0 0 9 136 52 67 8 15 21 76 49 12 4 24 3 82 95 175 202 216 248 283 262 346 417 551 491 445 566 460 374 232 279 738 487 752 797 964
0 0 0 0 0 0 1 28 87 78 20 0 32 28 0 63 78 94 35 27 22 23 100 146 173 251 278 291 240 240 304 340 533 414 489 431 319 318 402 551 598 517 835 845
0 0 0 0 0 0 0 3 0 0 0 0 0 24 20 45 69 128 88 72 39 23 64 163 187 219 209 189 196 191 262 239 357 418 461 496 337 527 509 526 652 812 918 1041
0 0 0 0 0 0 0 0 3 0 0 0 1 33 54 35 62 98 174 109 36 21 35 148 204 179 208 183 160 178 199 223 338 436 423 452 488 513 421 371 508 801 878 782
0 0 0 0 0 0 0 0 0 1 0 1 13 17 14 79 170 109 139 180 21 3 10 110 207 224 135 117 182 166 163 237 295 310 379 327 340 411 443 494 619 709 797 811
0 0 0 0 0 0 0 0 0 0 0 0 0 15 29 141 124 167 251 235 67 11 24 60 95 185 161 118 228 203 186 97 151 314 382 340 471 467 559 534 568 634 788 897
0 0 0 0 0 0 0 0 0 0 0 10 7 12 83 207 260 294 446 328 206 37 19 64 150 209 128 125 183 252 313 256 84 147 403 375 352 621 623 578 411 700 742 769
0 0 0 0 0 0 0 0 0 0 0 0 17 0 252 313 424 333 375 412 411 241 161 215 191 130 145 109 142 245 278 237 230 174 216 297 330 400 545 609 442 496 390 806
0 0 0 0 0 0 0 0 0 0 0 0 0 0 333 469 446 392 335 320 271 283 286 323 378 195 114 108 46 104 171 218 351 275 209 388 247 337 476 664 677 486 642 901
0 0 0 0 2 0 0 0 0 0 0 1 0 23 143 296 370 335 312 263 189 116 90 137 296 277 123 53 26 67 91 61 78 109 94 132 272 357 335 294 350 564 828 963
0 2 0 0 0 0 0 0 0 0 0 0 28 62 149 265 257 187 181 137 101 99 58 86 137 274 216 87 41 6 38 21 36 19 2 3 10 67 74 74 81 166 364 577
0 1 0 0 0 0 0 0 0 4 0 45 58 174 497 300 287 183 91 66 71 36 8 30 27 72 77 86 10 9 7 6 110 86 21 15 2 39 29 27 0 0 66 147
0 0 3 17 0 0 0 0 57 64 124 147 110 307 563 286 299 192 98 28 10 8 2 5 2 3 1 0 0 1 0 11 40 62 78 16 1 0 0 13 0 0 0 52
0 0 0 22 13 15 0 0 2 208 330 351 307 316 521 243 86 44 60 6 0 2 3 2 2 2 2 1 0 0 0 0 0 0 1 1 2 0 0 0 0 0 0 0
0 0 0 0 13 1 0 0 0 0 16 347 418 468 220 146 18 4 0 1 0 4 2 1 2 2 1 0 0 0 0 0 0 0 0 0 0 0 0 0 0 0 0 0
0 0 0 0 0 6 1 0 0 11 0 522 469 321 170 36 90 3 0 0 0 0 0 0 0 0 0 0 0 0 0 0 0 0 0 0 0 0 0 0 0 0 1 2
0 0 0 0 0 0 0 0 0 0 0 229 591 338 129 254 259 0 0 0 0 0 0 0 0 0 0 0 0 0 0 0 0 0 0 0 0 0 0 0 0 0 0 0
0 0 0 0 0 0 0 0 0 0 0 56 675 369 332 14 0 0 0 0 0 0 0 0 0 0 0 0 0 0 0 0 0 0 0 0 0 0 0 0 0 0 0 0
0 0 0 0 0 0 0 0 0 0 0 21 420 149 1 0 1 0 0 0 0 0 0 0 0 0 0 0 0 0 0 0 0 0 0 0 0 0 0 0 0 0 0 0
0 0 0 0 0 0 0 0 0 0 0 1 84 1 0 0 0 0 0 0 0 0 0 0 0 0 0 0 0 0 0 0 0 0 0 0 0 0 0 0 0 0 0 0
0 0 0 0 0 0 0 0 0 0 0 7 0 0 0 0 0 0 0 0 0 0 0 0 0 0 0 0 0 0 0 0 0 0 0 0 0 0 0 0 0 0 0 0
0 0 0 0 0 0 0 0 0 0 0 0 5 0 0 0 0 0 0 0 0 0 0 0 0 0 0 0 0 0 0 0 0 0 0 0 0 0 0 0 0 0 0 0

GFSCGP_con_mlcape_108.txt.gz
CAPE
0 0 0 25 0 0 68 168 71 193 177 55 54 30 6 16 120 88 116 77 83 103 173 228 191 121 236 442 548 631 656 763 797 743 506 498 535 680 923 957 1275 1462 1775 1757
0 0 0 68 0 0 14 102 171 166 130 64 0 92 7 0 31 168 91 77 89 92 167 241 293 240 195 297 413 522 617 860 973 673 572 523 662 666 679 1018 962 1149 1589 1817
0 0 3 0 0 0 171 175 203 153 103 27 0 1 59 1 21 113 147 115 109 127 147 216 295 331 269 305 492 625 590 579 489 659 880 837 995 1129 1159 905 699 918 1245 1467
0 0 0 0 0 0 0 16 237 197 109 38 4 2 30 6 5 104 131 132 122 94 164 235 272 305 313 306 537 774 756 660 565 813 709 584 472 385 407 518 791 1111 1416 1179
0 0 0 0 0 0 0 0 41 136 54 51 11 1 0 56 6 5 63 76 123 145 135 223 330 312 287 320 424 705 943 884 591 788 737 472 317 314 474 522 1026 1226 1115 1117
0 0 0 0 0 0 0 0 5 154 77 4 64 80 0 36 123 0 12 80 63 89 162 185 236 338 334 311 387 524 899 895 853 937 651 550 589 546 532 625 747 687 808 997
0 0 0 0 0 0 0 75 27 12 13 22 5 50 48 31 89 182 14 31 79 49 123 185 239 370 395 376 380 449 732 1035 825 732 727 662 432 552 457 569 613 783 705 850
0 0 0 0 0 0 0 10 38 25 33 68 48 98 167 124 208 254 293 111 124 113 79 103 253 318 414 417 448 417 609 816 871 858 700 851 722 404 493 658 821 626 882 727
0 0 0 0 0 0 0 0 5 6 34 61 35 134 226 161 235 263 334 350 196 99 102 125 237 354 439 433 484 455 503 752 664 637 847 730 692 443 651 585 935 963 1029 1095
0 0 0 0 0 0 0 0 3 4 23 50 164 127 49 290 351 329 284 415 342 184 175 167 252 431 454 520 528 492 541 662 609 490 644 432 485 798 592 539 320 738 1173 1318
0 0 0 0 0 0 0 0 0 1 1 44 86 113 385 535 496 479 388 438 491 353 155 184 358 453 556 415 283 386 638 675 514 535 511 445 513 399 817 601 533 746 848 1076
0 1 14 0 0 0 0 0 0 0 0 11 24 111 585 578 684 820 863 738 629 463 226 273 210 277 315 466 551 264 430 535 739 570 438 750 497 397 333 591 471 716 604 906
18 4 14 22 1 0 0 0 0 0 0 6 8 32 738 780 775 805 869 942 777 481 412 411 292 362 585 408 366 357 620 734 792 695 565 613 625 323 400 474 704 585 703 656
0 42 31 44 64 25 0 0 0 0 5 10 29 88 552 745 818 750 869 948 1017 898 787 849 882 294 290 431 150 102 59 45 323 694 684 706 577 283 493 668 873 686 552 658
17 46 61 37 1 0 4 0 0 0 0 9 29 39 172 838 840 795 666 535 573 525 351 385 773 672 410 275 79 48 39 49 78 145 388 457 598 638 681 811 837 896 1044 920
24 115 90 51 8 0 0 21 0 0 8 3 36 65 653 964 813 602 504 426 373 305 201 129 200 755 598 333 164 90 63 75 58 41 11 12 62 89 231 382 439 555 669 912
92 150 153 118 57 37 11 16 170 137 157 183 75 514 908 823 673 464 401 417 280 231 103 63 55 152 460 366 97 107 143 152 96 98 47 10 5 0 0 2 124 292 368 415
92 117 99 63 107 90 44 8 29 373 388 429 598 687 1017 778 648 491 391 253 105 57 11 1 1 1 11 7 43 4 7 1 3 11 29 14 12 12 0 0 2 44 176 276
9 95 108 48 106 168 45 2 5 73 162 521 670 737 784 493 351 218 182 119 118 5 4 3 2 4 5 0 1 2 1 2 1 1 0 1 0 2 6 1 0 0 7 166
0 1 48 126 46 67 33 0 0 5 185 728 836 771 524 272 255 159 227 118 6 3 1 3 4 2 1 4 2 1 1 0 0 0 0 0 0 0 0 0 0 11 3 1
2 1 0 32 40 45 0 0 0 49 89 4 559 607 385 352 430 128 68 27 4 4 3 0 0 0 0 0 0 0 0 0 0 0 0 0 0 0 0 1 8 5 1 0
57 24 4 8 15 20 3 48 171 53 37 55 645 674 386 173 54 27 7 2 2 0 0 0 0 0 0 0 0 0 0 0 0 0 0 0 0 0 0 0 2 0 0 0
4 26 146 31 80 67 30 35 97 155 168 103 616 669 356 177 85 4 6 2 0 0 0 0 0 0 0 0 0 0 0 0 0 0 0 0 0 0 0 0 0 0 0 0
5 34 157 127 143 87 33 87 48 118 280 430 544 574 352 213 7 3 8 2 0 0 0 0 0 0 0 0 0 0 0 0 0 0 0 0 0 0 0 0 0 0 0 0
80 39 39 42 180 110 56 49 61 121 281 376 377 377 354 231 7 10 10 3 1 0 0 0 0 0 0 0 0 0 0 0 0 0 0 0 0 0 0 0 0 0 0 0
64 31 6 96 299 222 155 0 0 23 152 324 271 204 213 180 9 6 5 0 0 0 0 0 0 0 0 0 0 0 0 0 0 0 0 0 0 0 0 0 0 0 0 0

GFSCGP_con_mlcape_111.txt.gz
CAPE
0 0 0 30 42 2 8 25 25 59 110 24 18 10 0 69 135 57 39 60 64 93 83 46 68 67 132 207 277 320 461 674 773 637 519 396 523 604 784 1271 1263 1487 1561 1611
0 0 0 33 85 7 0 29 31 128 106 11 0 32 3 41 106 80 42 77 114 85 79 85 70 93 98 206 335 513 636 771 849 573 606 587 462 567 782 1017 1174 1473 1520 1773
0 0 0 6 61 0 0 100 130 81 62 24 2 22 6 6 126 169 73 56 68 77 72 76 161 102 130 132 295 385 707 772 1046 1020 746 973 1242 1141 981 1074 944 1236 1445 1585
0 0 0 5 25 5 5 118 47 113 59 52 38 3 1 37 63 64 92 54 78 59 71 108 226 182 145 172 222 567 549 902 631 1334 872 725 298 476 683 790 731 1340 1281 1203
0 0 0 0 30 10 1 1 95 146 71 35 17 25 9 23 1 10 119 92 72 97 93 127 169 240 270 232 220 363 501 714 765 895 988 915 741 578 650 678 1181 1140 1350 1406
1 0 0 0 47 2 0 0 113 116 75 60 10 30 15 13 2 4 59 114 57 74 129 67 248 241 200 139 143 312 476 746 970 980 1010 868 428 784 653 848 1043 876 1095 1011
0 0 0 0 17 0 0 20 89 40 62 96 51 70 29 41 18 28 49 103 165 98 64 119 285 184 215 188 113 236 567 796 703 777 715 772 1024 899 906 1023 799 653 493 772
0 0 0 0 4 0 0 59 76 51 34 50 78 107 68 0 72 106 56 53 54 163 165 149 182 176 258 247 195 177 526 867 802 652 601 801 855 593 721 694 647 500 792 537
1 0 0 0 0 0 0 4 116 1 27 68 73 155 319 194 183 253 135 77 54 185 125 175 207 235 210 318 292 324 768 890 774 608 691 732 736 624 831 808 1090 973 962 760
7 9 1 0 0 0 0 5 3 39 11 6 52 15 62 277 298 313 380 118 105 170 204 204 161 174 449 278 410 419 599 788 714 501 603 637 512 632 661 868 774 847 595 1534
0 0 7 0 0 0 0 0 1 34 48 5 15 157 149 209 320 383 444 452 197 219 239 304 131 254 359 387 482 503 607 957 908 712 695 512 373 377 537 702 727 937 1069 1305
0 5 0 3 0 0 0 0 0 0 0 1 0 0 8 527 651 641 520 494 593 498 257 289 229 460 644 908 995 1017 789 933 1097 969 959 836 780 446 294 417 604 749 1034 1088
33 0 23 8 3 0 0 0 0 0 0 6 10 293 424 735 891 849 831 745 719 723 458 354 357 777 1006 830 1002 867 822 875 1135 1058 1007 842 1044 682 439 303 333 618 1081 1173
0 2 17 19 2 0 2 0 2 0 2 0 2 694 811 966 984 1235 1183 1060 1007 963 751 523 381 430 674 975 990 1059 978 1072 890 732 730 853 912 964 617 453 333 426 677 978
1 4 1 0 0 3 0 0 0 0 0 23 34 71 386 800 877 959 1060 1272 1381 1254 1093 822 831 858 800 627 473 316 155 59 87 62 173 616 917 1057 778 901 720 499 461 739
31 14 5 33 0 0 18 14 10 2 1 0 0 4 80 895 1053 893 1002 1002 1064 845 752 1180 1124 953 749 836 431 242 158 274 123 105 111 248 574 612 879 825 814 677 707 895
135 104 57 23 24 3 5 17 32 33 19 14 100 561 49 780 1179 882 723 687 636 667 384 316 564 878 1008 715 502 502 387 348 240 159 119 98 150 98 116 152 456 562 557 681
195 138 97 139 109 30 75 52 48 96 188 202 176 102 633 911 1086 825 770 771 653 452 138 92 29 161 474 535 454 312 244 223 327 161 96 21 2 0 0 0 0 52 216 337
104 204 127 70 71 10 0 61 86 134 290 318 356 532 1191 805 707 632 543 669 520 300 8 5 4 1 3 40 47 54 168 32 11 1 4 6 36 39 21 3 0 1 60 84
29 46 102 88 111 0 0 0 0 27 96 31 660 869 701 591 485 557 476 326 158 47 3 5 7 5 2 3 5 3 2 5 3 4 1 0 1 1 29 63 60 62 37 8
0 3 34 55 76 116 21 0 3 24 130 115 591 918 666 581 686 616 236 151 1 4 5 4 3 2 3 2 2 1 1 0 1 0 0 0 1 1 2 4 22 3 0 0
224 228 101 57 0 33 36 107 145 214 209 127 486 870 666 295 635 370 66 8 4 5 2 0 0 0 0 0 0 0 0 0 0 0 0 0 0 1 6 2 3 2 0 0
0 14 266 151 223 147 61 112 85 199 344 442 362 879 774 581 344 102 28 3 1 0 0 0 0 0 0 0 0 0 0 0 0 0 0 0 0 0 5 6 0 0 0 1
24 94 5 263 197 166 153 98 126 132 289 536 589 599 679 477 263 75 15 3 2 1 0 0 0 0 0 0 0 0 0 0 0 0 0 0 0 0 0 1 1 1 3 1
264 329 8 103 408 246 168 153 96 186 300 493 692 628 526 462 219 6 4 0 0 0 0 0 0 0 0 0 0 0 0 0 0 0 0 0 0 0 0 0 0 0 0 0
160 46 140 216 592 466 474 162 63 88 217 397 516 550 454 329 185 35 1 2 0 0 0 0 0 0 0 0 0 0 0 0 0 0 0 0 0 0 0 0 0 0 0 0

GFSCGP_con_mlcape_114.txt.gz
CAPE
0 0 0 0 30 43 26 42 51 44 44 6 8 0 7 62 76 79 72 55 79 27 46 38 61 140 7 62 351 282 265 666 532 699 91 339 670 595 948 1481 1426 1504 1465 1294
0 0 0 0 45 17 9 88 73 122 15 22 7 2 0 31 63 115 59 74 50 32 34 34 44 82 14 156 161 357 674 717 453 437 534 612 556 392 912 1294 1250 1263 1429 1405
0 0 0 0 0 45 62 95 127 90 51 20 5 10 0 8 47 101 117 67 79 27 9 43 52 69 183 226 277 568 572 519 782 930 542 108 577 583 867 913 1131 1187 1442 1502
0 0 0 0 4 47 109 144 56 83 18 32 22 1 7 0 43 69 133 110 115 60 83 54 43 51 95 443 268 446 703 603 688 915 647 327 489 666 640 968 965 1152 1200 1181
0 0 0 0 0 57 3 54 201 58 38 22 54 0 0 0 14 56 61 99 54 127 29 98 27 113 37 29 542 472 549 698 743 1190 593 545 466 394 700 1044 983 1410 1178 1260
0 0 0 0 6 34 0 114 31 0 25 41 25 9 0 0 0 5 65 79 70 27 74 49 92 34 214 63 314 429 528 411 541 709 662 821 323 330 706 663 662 995 1151 1113
0 0 0 0 0 85 8 55 49 56 60 15 20 24 0 0 0 0 4 30 55 47 61 49 67 204 222 154 343 626 842 495 585 858 860 667 350 200 577 771 676 721 903 1095
0 0 0 0 0 57 2 0 88 25 31 23 33 11 23 0 0 4 5 31 48 117 116 126 41 180 108 170 243 356 811 717 544 798 771 638 740 703 773 611 548 222 688 992
0 0 0 0 0 2 2 0 15 166 3 37 0 4 51 14 8 12 10 12 45 88 20 58 270 176 144 113 176 884 732 592 773 750 692 624 876 709 622 559 109 47 1022 896
0 0 0 0 0 0 0 5 12 106 0 1 3 48 46 114 75 141 72 65 86 58 104 90 130 150 11 67 96 819 794 1023 725 519 757 610 892 693 789 926 809 768 565 39
0 0 0 2 0 0 0 0 0 6 45 6 5 108 20 181 63 331 224 174 120 1 2 132 104 156 91 240 335 843 700 687 614 692 454 460 413 483 821 720 901 1055 245 44
0 0 0 3 0 0 0 0 0 0 0 0 2 13 0 0 130 400 384 230 267 138 186 284 220 72 57 386 443 659 671 372 271 439 210 686 250 466 552 483 652 907 799 1128
0 1 0 0 1 3 0 0 0 0 0 0 0 144 138 56 352 559 478 424 271 168 133 235 137 236 452 417 290 103 0 592 771 197 764 783 917 342 380 406 491 582 1047 1093
0 0 4 3 0 4 2 17 0 0 0 0 0 193 75 110 776 670 680 589 324 238 366 282 815 544 25 37 1055 886 1100 840 1052 941 897 879 680 766 484 648 500 322 853 733
0 0 0 0 0 0 0 0 15 0 0 0 0 375 420 414 863 1025 1044 920 684 562 438 347 431 932 971 1055 956 738 586 483 337 307 294 540 493 501 737 742 648 501 594 1004
1 0 0 0 0 2 0 0 7 3 0 0 0 3 4 804 388 124 1284 1459 1367 706 484 699 704 789 837 842 461 424 332 154 54 56 53 92 90 163 224 361 438 546 424 482
36 65 65 17 37 0 0 6 1 24 7 45 29 922 367 0 0 0 879 1257 1137 892 839 641 718 968 986 639 439 317 233 228 175 190 339 303 238 101 112 109 319 121 368 531
51 85 51 75 0 44 41 0 0 1 334 375 614 1061 617 48 0 331 919 988 821 594 346 233 182 405 705 694 482 458 364 286 327 252 188 127 67 15 1 1 4 56 143 258
64 78 57 96 0 4 20 5 0 0 0 54 141 759 0 304 362 502 739 869 473 328 116 6 0 19 76 257 369 381 218 219 218 177 110 100 59 1 0 0 0 2 2 0
57 81 130 177 61 20 27 0 0 0 73 57 28 269 0 323 1 186 617 422 200 29 3 4 2 1 0 1 0 0 0 0 1 1 2 3 0 20 10 0 0 0 0 0
22 152 18 89 84 57 7 52 0 0 108 45 110 458 50 94 200 428 350 118 0 3 4 4 3 2 3 1 0 0 0 0 0 0 0 0 0 0 0 1 3 0 0 0
0 34 274 203 147 38 25 0 6 136 148 163 126 436 514 738 501 433 184 11 3 2 4 2 0 2 3 1 0 0 1 0 0 0 0 0 0 0 1 0 0 0 0 0
18 125 213 157 44 132 52 108 163 117 251 244 109 744 384 358 298 219 14 2 4 1 0 0 0 0 0 0 0 0 0 0 0 0 0 0 0 0 0 0 0 0 0 0
23 54 10 1 233 161 165 97 99 126 103 111 404 632 725 481 394 125 0 1 0 0 0 0 0 0 0 0 0 0 0 0 0 0 0 0 0 0 0 0 0 0 0 0
310 537 109 21 304 445 258 170 49 84 169 185 477 655 710 536 314 95 18 0 0 0 0 0 0 0 0 0 0 0 0 0 0 0 0 0 0 0 0 0 0 0 0 0
118 58 49 280 630 640 500 339 83 8 59 110 258 679 703 452 200 11 0 0 0 0 0 0 0 0 0 0 0 0 0 0 0 0 0 0 0 0 0 0 0 0 0 0

GFSCGP_con_mlcape_120.txt.gz
CAPE
0 0 0 0 0 0 0 0 35 11 30 25 15 0 30 0 14 83 63 34 33 50 32 128 154 116 59 20 42 25 79 100 144 327 422 239 339 521 852 876 844 1064 916 718
0 0 0 0 0 0 70 47 65 66 28 7 10 3 18 2 1 55 91 30 29 33 47 89 35 62 140 74 27 0 144 107 164 289 448 275 402 409 905 981 1133 1026 1077 1039
0 0 0 0 0 12 19 0 41 51 49 21 1 0 0 5 5 9 69 72 12 19 27 43 27 62 150 113 29 71 22 85 366 280 416 394 419 492 618 628 752 826 1010 1196
0 0 0 0 0 0 0 185 78 66 61 20 2 0 0 0 0 4 35 57 26 25 44 63 30 20 137 100 17 41 71 145 313 285 237 337 297 318 283 573 620 785 1003 1084
0 0 0 0 0 12 176 127 41 63 33 7 0 0 0 0 1 3 37 42 58 24 37 51 52 48 142 132 99 72 132 270 287 228 175 190 222 171 343 569 654 649 821 968
0 0 0 0 11 90 210 130 95 35 18 0 2 1 3 0 0 5 24 31 40 28 40 52 64 37 93 154 119 102 183 218 209 261 308 179 180 271 478 596 602 645 728 892
0 0 30 443 387 383 194 98 16 3 10 7 1 6 4 7 5 0 13 20 10 19 11 26 42 58 42 97 92 129 185 74 111 142 307 177 251 259 445 546 600 580 625 642
0 0 3 279 167 150 131 56 0 0 27 34 15 0 0 0 0 4 1 44 7 36 62 25 74 91 48 49 61 212 169 149 201 237 289 316 230 89 373 494 469 330 341 448
0 0 0 52 277 157 154 94 34 32 23 14 16 0 0 0 0 0 0 7 3 61 65 50 83 141 124 118 153 186 163 267 270 336 274 235 138 0 258 452 412 314 406 539
0 0 0 0 2 85 24 15 0 27 34 12 11 1 0 0 1 0 0 1 12 28 71 27 28 175 171 249 276 267 227 147 139 249 329 311 186 399 520 547 390 256 500 545
0 0 0 0 0 0 0 0 0 0 63 76 31 5 0 0 0 0 0 2 1 2 14 72 70 55 180 296 347 424 322 259 107 213 581 431 299 442 667 479 261 45 386 270
0 0 0 0 0 0 0 0 0 0 0 2 0 0 10 0 19 2 11 1 0 0 27 85 136 117 80 214 273 499 529 423 281 261 424 392 287 555 460 511 739 515 423 233
0 0 0 0 0 1 9 0 0 0 0 0 0 0 29 13 15 42 5 12 0 20 58 93 159 101 145 84 149 478 581 463 390 314 369 446 381 247 399 364 496 629 431 208
0 0 0 0 0 0 0 3 5 0 0 0 0 0 2 22 0 38 0 29 45 13 50 50 116 135 109 108 246 340 521 515 415 330 552 440 327 366 387 434 539 582 484 446
0 0 0 0 3 6 0 14 9 0 0 0 0 28 66 86 89 125 262 147 166 33 18 36 106 170 180 191 203 331 313 285 250 200 276 505 488 368 301 381 341 529 578 632
0 0 0 0 0 2 0 11 45 0 0 29 241 161 4 47 121 285 516 420 390 165 33 87 121 195 227 270 226 296 287 162 114 69 174 251 290 253 230 207 275 274 232 265
0 0 0 1 0 0 0 0 34 34 100 203 83 32 0 0 30 217 161 219 400 382 277 219 194 157 177 173 63 76 6 36 44 4 53 60 116 43 118 98 142 148 124 22
0 0 0 0 0 1 11 0 15 60 169 143 127 224 144 94 278 274 197 34 138 150 192 136 40 110 43 87 189 195 98 107 105 128 144 149 95 81 60 57 51 50 44 0
0 0 0 25 8 3 35 17 1 3 27 150 64 71 9 0 122 92 65 81 50 20 1 1 10 2 122 168 148 86 34 172 163 127 186 140 73 23 28 10 0 0 2 1
0 0 8 0 13 0 54 0 0 0 0 111 19 28 4 0 0 131 1 1 0 1 0 0 1 2 3 220 177 151 120 136 156 125 102 40 16 8 9 0 0 0 0 0
0 0 0 1 6 4 42 39 10 0 0 11 158 57 16 31 17 1 0 0 0 0 0 1 1 0 2 3 11 58 30 40 13 78 46 22 11 42 6 0 0 0 0 0
0 0 0 0 0 0 83 97 38 47 25 104 257 382 274 150 38 15 0 0 0 1 2 0 0 2 2 1 3 1 0 1 0 0 0 1 16 23 11 0 0 0 0 0
35 12 18 0 0 30 134 115 86 52 135 307 426 429 260 80 51 7 0 0 0 1 2 1 0 0 2 2 2 1 2 0 0 0 0 0 0 0 0 0 0 0 0 0
70 3 6 0 0 58 229 201 127 89 370 393 324 153 70 42 13 0 1 1 0 1 1 1 0 0 0 0 0 0 0 0 0 0 0 0 0 0 0 0 0 0 0 0
158 136 11 35 28 68 171 188 108 71 565 452 452 354 211 115 22 0 0 0 0 0 0 0 0 0 0 0 0 0 0 0 0 0 0 0 0 0 0 0 0 0 0 0
160 67 23 33 70 165 95 6 2 26 367 478 252 253 254 164 34 0 0 0 0 0 0 0 0 0 0 0 0 0 0 0 0 0 0 0 0 0 0 0 0 0 0 0

GFSCGP_con_mlcape_123.txt.gz
CAPE
0 0 0 0 0 0 0 0 22 1 0 0 0 0 1 0 6 37 62 33 75 116 124 93 99 135 100 40 99 85 116 93 155 218 319 277 466 554 590 775 691 724 720 468
0 0 0 0 0 0 74 61 52 34 10 10 3 7 12 1 0 45 69 32 46 92 75 89 100 125 81 52 98 20 35 105 304 306 301 278 389 428 826 976 957 775 824 682
0 0 0 0 0 2 39 76 1 15 63 38 29 6 3 0 16 45 49 35 20 23 51 93 82 96 37 35 39 0 16 65 184 249 329 265 370 463 645 810 718 949 913 804
0 0 0 0 0 0 17 96 126 54 47 37 0 0 0 1 15 23 23 47 0 9 68 102 69 73 0 48 19 0 0 84 223 230 338 240 242 373 268 336 596 775 945 979
0 0 0 0 0 0 2 226 175 37 15 16 8 0 0 0 1 5 0 36 1 13 47 84 90 64 45 40 7 0 46 147 206 160 217 208 254 231 273 331 587 661 662 885
0 0 0 0 0 0 343 160 117 69 8 1 4 0 0 0 0 0 0 36 27 22 56 76 70 106 105 38 27 0 0 59 99 164 142 194 207 230 228 349 461 448 538 735
0 0 239 355 255 383 227 128 22 12 6 2 14 2 0 0 0 0 0 3 41 13 63 49 33 119 104 37 38 62 55 60 116 147 146 130 166 183 202 305 431 465 559 641
1 0 374 594 280 233 236 91 5 0 2 21 25 2 0 0 0 1 0 1 7 15 50 42 41 56 118 93 76 97 115 122 116 152 230 191 119 148 217 368 442 408 458 489
1 9 229 641 536 466 401 178 14 40 41 26 44 23 0 0 0 0 0 0 1 6 10 41 48 60 89 143 95 98 104 109 114 130 135 183 134 110 151 320 404 352 278 335
0 10 17 259 407 272 181 146 70 47 31 17 4 13 0 0 0 0 0 0 2 16 26 14 65 88 92 103 106 134 108 105 67 98 127 168 223 174 79 277 374 298 237 353
0 3 2 1 42 133 1 19 1 25 42 51 8 1 0 0 1 5 0 1 26 31 17 11 72 138 152 111 104 133 150 126 121 143 253 236 203 165 155 370 370 286 249 325
0 0 1 9 0 0 0 0 0 0 0 1 0 0 0 0 0 6 0 0 50 45 19 14 74 113 176 170 140 192 202 172 184 198 271 192 246 232 459 494 380 196 242 258
0 0 0 10 0 0 0 0 0 0 0 0 0 0 20 6 9 1 0 7 25 48 20 33 61 96 154 184 199 256 259 245 219 183 169 261 345 265 303 447 455 389 204 337
0 0 0 0 0 0 3 0 0 0 0 0 0 0 15 63 29 77 66 17 1 0 11 23 57 102 102 149 169 291 343 357 266 214 189 193 233 234 271 323 333 408 348 325
0 0 0 0 4 21 29 2 0 0 0 10 45 0 13 30 158 300 296 215 55 8 4 30 73 72 96 114 136 333 420 433 360 325 266 192 226 372 336 309 378 429 438 474
0 0 0 0 4 10 3 14 31 19 126 152 78 35 0 80 215 193 328 369 251 69 32 14 52 118 132 151 158 245 280 282 376 340 272 208 331 351 285 283 278 227 244 331
0 0 0 0 0 0 0 5 35 68 89 126 9 81 133 284 173 70 197 198 102 54 28 85 85 181 216 178 209 213 220 227 187 200 171 184 159 155 81 67 77 87 140 87
0 0 0 0 0 0 0 2 127 91 119 136 134 188 208 282 178 24 20 28 45 41 27 52 141 193 198 273 267 219 212 163 65 34 49 83 62 53 32 22 11 31 45 14
0 0 0 0 0 0 9 0 0 24 22 71 66 34 0 146 199 97 0 1 1 1 2 1 0 16 134 139 195 140 120 80 18 34 62 28 37 39 20 7 1 1 0 0
0 0 0 0 0 0 0 0 0 0 0 71 45 27 7 0 0 0 23 0 0 0 1 1 1 8 72 44 0 63 43 22 82 41 69 52 60 19 5 0 0 0 0 0
0 0 0 0 0 2 0 0 0 0 0 7 137 97 66 36 5 19 1 0 1 1 1 2 1 0 1 1 71 48 47 18 27 34 17 29 7 13 2 0 0 0 0 1
0 0 0 0 0 0 4 0 4 0 56 85 228 298 135 56 7 0 1 1 0 0 1 1 1 0 1 1 12 0 0 1 1 0 19 0 13 2 20 0 0 0 0 0
3 3 0 0 0 0 16 0 26 41 148 214 220 296 122 62 12 0 0 0 0 0 0 2 1 1 1 1 0 0 1 0 0 0 0 0 0 2 1 0 0 0 0 0
25 0 57 0 0 106 116 37 23 110 77 93 74 139 112 0 0 0 0 0 0 0 0 1 1 1 1 1 1 2 1 0 0 0 0 0 0 0 0 0 0 0 0 0
25 2 7 3 17 49 153 52 55 326 184 101 127 139 63 7 0 0 0 0 0 0 0 0 0 0 1 0 0 0 0 0 0 0 0 0 0 0 0 0 0 0 0 0
78 50 48 22 35 35 177 70 66 342 189 70 49 48 19 12 0 0 0 0 0 0 0 0 0 0 0 0 0 0 0 0 0 0 0 0 0 0 0 0 0 0 0 0